GFSNW_sfc_temp_000.txt.gz
Temp
53 52 53 53 53 54 63 74 64 76 79 66 68 65 69 62 70 74 71 72 69 66 65 63 62 60 62 68 68 60 62 58 48 58 65 67 64 60 59 44 44 45 42 45
51 52 52 53 53 53 74 70 69 77 76 58 57 68 68 72 69 70 69 66 69 70 65 57 63 61 65 66 64 58 61 55 46 52 58 64 59 62 60 55 46 41 37 44
50 52 52 53 53 53 69 74 59 69 71 73 67 65 64 63 72 69 71 68 70 66 63 66 60 58 62 65 63 53 58 59 50 45 52 59 54 58 61 57 43 43 45 51
50 51 52 53 53 53 69 74 66 71 56 63 69 70 68 64 61 70 71 66 67 64 56 61 59 62 60 63 55 61 61 49 53 55 58 59 57 57 58 55 54 44 50 53
50 51 53 52 52 51 71 69 68 71 69 70 68 59 66 66 67 66 65 65 67 67 56 61 58 63 62 60 62 61 60 46 43 43 57 57 51 56 57 57 58 57 56 54
52 54 53 52 52 55 76 76 76 73 58 67 64 62 66 67 67 66 72 70 66 57 63 66 66 66 66 65 60 55 47 44 43 40 47 44 38 47 56 58 60 57 46 56
55 54 53 52 52 53 72 74 77 62 56 63 64 67 70 68 66 63 70 71 61 65 70 66 63 62 62 63 61 60 40 41 41 37 38 34 54 63 62 57 59 61 61 59
54 53 53 52 52 53 74 74 73 65 41 63 66 67 68 68 68 65 63 66 70 72 66 51 45 43 41 46 59 58 54 46 36 35 38 45 51 56 54 50 50 60 57 56
54 53 52 52 52 53 71 68 68 72 55 60 71 68 67 59 58 57 58 67 71 69 55 45 37 43 48 45 49 56 52 44 43 36 32 32 49 60 62 59 42 57 55 51
54 53 52 52 52 52 63 68 68 69 63 70 70 65 62 67 62 58 59 58 57 66 46 36 43 46 55 44 38 36 37 39 37 37 34 40 56 61 61 39 42 53 51 51
55 53 52 52 52 52 60 68 70 67 66 65 70 71 68 68 66 54 61 57 57 52 38 40 45 39 47 47 52 42 39 37 34 38 34 32 59 58 44 51 54 52 52 52
53 54 52 52 52 52 54 71 71 71 68 63 69 68 69 68 69 67 63 62 59 57 50 45 47 38 37 41 40 60 46 48 45 46 44 58 60 57 58 53 51 51 50 53
52 53 52 52 52 53 54 70 70 72 61 64 65 64 69 73 70 73 61 63 68 63 63 46 41 35 43 35 43 48 57 63 48 47 56 59 59 59 56 55 54 55 55 54
52 52 52 52 52 52 52 69 69 70 56 38 58 69 67 70 73 73 72 68 66 64 59 42 38 37 55 41 48 47 53 58 53 51 57 59 56 55 55 54 55 55 56 56
50 50 50 50 53 52 60 70 70 70 64 46 54 66 67 70 71 70 69 66 63 58 45 37 39 52 51 49 48 46 57 53 47 45 56 53 52 54 55 53 53 56 55 55
48 49 50 50 50 51 66 63 69 70 69 53 45 62 62 66 67 67 66 65 63 61 53 42 52 60 53 38 40 54 60 63 62 56 57 55 54 56 57 55 57 57 55 55
48 49 50 50 50 61 59 57 58 54 65 50 45 50 58 61 65 64 63 64 61 59 55 49 49 53 55 38 39 54 59 61 62 59 56 51 53 52 56 57 56 54 57 56
49 49 49 50 50 52 58 60 56 56 63 57 45 43 45 58 46 46 55 50 52 54 53 49 47 53 49 41 54 57 60 60 56 55 55 55 57 57 57 57 56 53 52 52
49 49 50 55 55 54 58 50 52 64 59 51 42 38 37 56 44 45 46 49 40 51 41 43 46 41 39 48 53 56 59 55 54 55 56 56 54 54 54 54 52 50 49 48
48 50 47 41 45 50 51 57 54 51 54 52 39 49 41 52 40 38 40 40 39 36 39 42 36 39 52 56 57 58 55 56 56 48 47 49 49 50 50 50 50 49 45 44
46 41 38 44 48 51 48 42 41 41 39 44 43 42 40 48 40 37 41 36 37 34 37 37 34 35 45 53 54 54 55 56 56 56 54 53 52 49 48 45 43 39 38 37
45 45 46 45 42 37 38 36 36 37 39 39 36 40 45 42 49 41 36 34 34 32 39 33 33 45 52 52 51 53 55 54 53 54 52 51 50 49 41 39 37 35 35 32
44 39 36 37 33 32 32 32 33 34 34 35 35 34 37 38 39 34 33 32 32 36 33 33 41 47 51 51 51 52 52 46 47 51 51 48 46 42 33 35 33 33 34 37
36 33 32 32 32 33 33 33 32 34 34 35 35 33 34 33 33 32 32 33 35 31 30 32 41 47 50 51 51 50 46 37 38 41 40 36 35 34 33 32 34 32 32 35
36 35 31 32 33 34 33 33 34 34 37 36 34 34 36 33 32 33 32 30 29 31 32 35 41 43 45 43 46 42 38 33 36 41 37 33 32 33 34 34 33 33 34 33
40 36 33 33 33 32 32 32 33 38 36 38 37 33 33 32 33 30 30 30 29 34 36 41 41 39 40 41 42 41 41 39 39 38 36 35 33 32 34 34 34 33 33 33
34 32 34 34 34 33 33 35 36 40 35 32 35 31 30 33 31 30 34 32 34 35 39 40 40 40 41 42 41 36 38 39 39 38 39 37 35 35 34 33 36 36 35 34

GFSNW_sfc_temp_003.txt.gz
Temp
51 52 52 52 52 54 58 58 51 65 65 52 51 50 62 60 64 68 65 63 63 59 59 56 55 52 56 62 60 53 54 47 34 50 58 61 56 52 51 32 35 32 29 34
50 52 52 52 52 54 59 56 56 65 63 41 40 59 63 66 64 64 63 61 63 63 56 50 54 54 59 59 56 50 52 43 32 43 51 56 52 56 53 46 35 34 26 33
49 51 52 52 52 53 59 57 46 55 56 57 56 59 57 58 65 64 66 63 62 59 56 58 51 52 58 58 56 51 53 51 40 33 43 49 45 52 53 46 31 34 34 43
49 50 52 52 52 53 63 60 52 55 40 48 55 58 60 57 55 63 64 59 60 57 48 52 49 53 54 56 54 55 52 39 43 47 50 52 51 50 51 48 45 35 42 46
49 53 52 52 52 50 59 57 55 57 54 58 55 51 57 58 61 60 59 57 60 58 49 52 48 54 53 51 55 52 49 35 34 35 49 48 43 47 48 49 51 49 48 45
54 53 52 52 52 52 58 61 61 58 49 53 49 48 58 60 59 59 63 59 53 47 53 54 55 56 56 55 52 44 38 32 32 31 39 36 31 40 48 51 51 49 36 46
54 53 52 52 52 51 59 59 59 49 41 45 51 61 61 58 60 55 60 59 51 57 60 56 53 51 53 55 52 50 34 34 31 26 30 23 46 55 54 50 51 52 50 48
54 53 52 52 52 53 58 59 59 49 37 48 56 59 59 56 56 54 56 59 60 60 55 39 38 34 37 40 52 49 46 33 26 27 25 36 45 51 47 43 42 50 46 47
53 52 52 52 52 52 60 57 58 55 45 46 63 58 56 44 45 45 51 59 60 57 37 33 30 29 37 35 44 46 44 35 31 25 22 19 38 52 56 53 32 48 47 45
53 52 52 52 52 52 56 57 60 58 49 56 58 52 50 55 49 43 49 49 49 52 36 33 32 32 45 35 33 29 28 28 25 28 20 31 46 54 55 32 35 46 45 44
54 52 52 52 52 52 56 58 61 59 52 54 59 60 56 56 51 41 49 46 44 36 34 33 33 30 34 35 41 35 32 28 31 30 26 24 53 51 40 42 45 45 45 45
53 52 52 52 52 52 53 59 62 62 56 54 59 59 59 60 59 53 51 49 49 44 37 36 37 33 34 31 29 48 35 38 33 36 34 46 52 49 48 48 45 45 44 46
53 52 51 51 52 52 52 57 59 59 50 52 54 54 60 65 62 63 51 49 57 51 49 40 38 34 37 32 34 36 47 52 37 39 48 51 49 50 51 49 47 47 48 51
52 51 50 49 51 51 53 57 58 55 48 36 48 62 58 63 64 64 62 58 56 52 46 38 36 33 44 34 39 36 43 49 45 40 48 48 49 49 49 49 50 51 54 53
48 49 49 49 49 51 54 58 59 59 53 39 42 58 60 64 63 61 59 57 53 46 38 36 34 35 39 35 35 33 49 45 37 36 48 46 44 48 51 50 50 51 51 51
48 49 49 50 49 49 55 52 56 55 57 46 38 52 53 58 60 58 57 56 53 49 40 35 41 51 41 34 33 46 53 55 55 47 51 49 49 51 54 51 51 51 50 49
48 49 50 50 51 54 51 50 52 50 54 42 38 37 47 53 55 50 51 53 50 48 41 36 36 40 46 35 35 47 52 55 53 51 50 45 50 48 52 53 51 51 49 47
48 49 50 51 50 50 52 53 51 50 52 46 38 38 39 50 39 39 46 41 44 45 43 42 38 40 35 32 44 50 54 53 49 49 51 51 52 52 54 53 49 46 43 42
49 50 51 53 51 45 49 50 49 55 50 38 36 35 34 46 41 40 40 42 36 42 36 38 40 36 36 42 45 49 51 48 47 50 52 52 50 51 50 47 45 42 39 39
49 51 48 40 44 49 49 51 43 42 41 42 36 41 36 44 36 35 36 35 35 34 36 40 34 36 43 48 50 50 49 50 50 44 43 45 46 45 44 43 42 41 38 38
47 41 38 44 49 49 44 38 37 39 36 41 40 38 37 42 36 35 36 34 34 32 32 34 32 33 39 46 47 49 51 52 52 51 49 48 46 43 40 38 36 34 34 33
45 45 46 45 42 37 37 35 35 35 36 36 36 38 39 38 43 35 34 34 33 30 36 33 30 34 44 45 46 48 50 50 49 49 47 44 43 41 35 34 33 29 30 28
44 40 36 38 33 32 32 31 33 33 33 34 34 33 35 36 37 33 33 32 31 34 32 30 29 44 46 47 44 43 44 42 42 43 42 41 40 36 29 30 27 28 30 31
35 34 32 32 31 32 31 32 32 33 33 33 34 33 34 33 33 32 31 31 32 29 25 23 34 40 42 44 43 42 39 35 35 37 35 32 30 27 25 25 26 23 25 29
34 34 30 31 32 32 32 33 33 34 35 34 33 33 34 32 31 32 30 28 27 28 29 31 33 37 40 38 39 36 34 32 33 36 32 29 28 25 28 28 28 31 33 32
35 34 31 32 32 32 32 32 32 36 34 35 34 32 32 30 30 28 29 28 26 30 32 33 34 36 37 37 37 36 35 35 36 34 32 31 27 26 29 31 33 33 33 32
34 31 33 33 33 32 32 33 34 38 34 32 32 30 28 30 28 28 31 30 32 33 33 33 36 36 36 37 36 33 34 35 34 32 34 31 29 28 32 30 33 30 30 30

GFSNW_sfc_temp_006.txt.gz
Temp
52 52 52 52 53 54 57 54 48 61 62 50 45 46 57 59 61 64 62 60 58 56 55 51 49 49 52 57 55 50 51 44 32 46 55 57 53 49 46 31 35 29 27 34
51 52 52 52 52 54 56 52 52 61 59 39 34 53 60 61 59 59 59 57 59 58 53 46 50 51 54 56 53 48 50 40 31 40 48 52 50 51 49 42 33 33 25 31
49 52 52 52 52 54 56 53 44 51 52 50 51 51 54 55 61 60 61 59 60 56 52 53 48 49 54 55 54 50 51 45 39 33 40 45 41 47 47 43 29 33 32 41
49 51 52 52 52 53 58 54 48 52 38 44 51 54 56 54 53 59 61 57 57 54 45 48 46 50 51 54 53 52 48 38 41 44 46 46 45 45 45 44 42 35 40 41
51 52 52 52 52 53 57 54 51 51 48 54 52 49 53 55 56 57 55 53 55 54 46 50 46 50 49 48 51 48 45 35 33 35 44 43 40 44 44 45 47 45 42 40
54 52 52 52 52 54 59 60 56 55 45 48 46 45 55 55 57 56 59 54 49 46 50 51 51 52 52 52 49 40 37 31 30 30 35 34 31 40 45 46 46 46 37 42
54 52 51 51 52 55 61 58 55 48 39 42 48 56 57 56 55 52 55 55 49 55 57 53 52 50 50 50 47 46 34 33 28 25 27 21 43 50 50 44 45 45 44 44
52 52 51 51 51 52 57 55 56 48 35 43 53 54 52 53 52 50 52 54 56 56 50 37 38 34 37 38 46 44 42 29 26 23 24 34 43 48 46 42 39 46 44 44
52 51 51 51 52 52 56 54 55 52 44 44 57 51 53 42 42 44 48 56 56 50 33 32 28 28 35 33 40 43 40 32 30 27 21 20 37 48 52 50 33 46 45 43
52 52 51 51 52 52 57 55 57 55 47 52 54 49 49 50 45 41 45 46 47 47 28 28 30 31 42 33 30 28 27 25 24 24 17 29 43 49 51 33 36 44 44 42
51 51 51 51 51 52 57 56 57 57 49 51 55 55 53 51 47 41 48 45 42 35 31 27 32 30 33 32 38 34 31 27 24 23 19 25 48 49 39 42 42 44 43 43
51 51 51 50 51 51 54 56 58 58 53 53 56 57 56 57 57 50 48 48 45 41 36 35 37 32 33 28 29 43 36 36 32 36 34 45 48 48 47 46 43 43 43 45
50 50 49 49 50 52 55 55 55 54 45 49 52 52 59 62 59 59 49 45 52 48 44 37 36 29 35 31 33 34 45 47 35 37 46 46 49 46 48 47 45 45 46 46
48 48 48 48 49 50 54 55 54 50 43 36 46 58 56 62 62 61 59 55 51 47 42 36 35 30 41 31 36 34 41 46 42 38 45 44 46 46 46 47 47 47 49 48
48 49 49 49 49 50 55 55 53 55 51 39 42 53 58 60 60 58 56 54 50 43 37 34 34 31 36 35 32 32 45 44 37 39 46 46 45 46 48 47 47 49 50 46
48 49 50 50 50 50 54 49 54 52 53 44 37 47 50 54 57 55 53 53 49 45 40 36 38 46 38 34 37 44 48 52 51 46 50 49 47 48 50 48 49 48 48 46
48 50 50 50 50 52 51 49 51 49 51 41 38 36 44 50 49 46 47 48 46 46 39 36 37 37 42 34 32 45 49 52 52 51 48 44 46 45 50 51 49 47 45 44
48 50 50 51 50 51 50 51 50 50 48 42 36 35 37 48 37 38 43 39 43 43 41 38 36 37 34 34 42 47 51 52 49 48 48 47 49 49 50 49 47 43 40 39
49 50 51 50 48 46 50 48 48 52 48 37 34 34 35 43 40 38 36 41 34 41 36 36 39 35 36 42 45 46 48 46 45 47 48 48 48 48 47 45 43 40 38 38
49 49 44 41 44 48 49 47 43 42 42 42 35 38 36 42 35 34 35 34 34 34 36 40 34 36 41 43 47 48 48 48 47 41 41 43 43 42 42 42 42 41 38 37
47 42 39 44 49 46 42 37 36 38 36 39 38 37 37 38 36 35 35 34 33 32 32 35 31 32 37 44 44 46 47 49 49 47 45 45 43 41 39 37 36 34 34 34
45 45 46 45 41 38 36 35 35 35 35 35 35 36 39 37 39 36 34 34 33 30 35 33 30 34 41 42 42 44 46 45 43 43 41 41 41 40 36 34 32 29 29 25
44 41 36 39 34 33 35 34 33 33 33 34 34 34 35 36 37 33 33 32 31 34 32 30 32 41 42 42 41 41 41 39 39 41 40 40 39 35 30 31 27 24 27 31
36 34 32 33 30 31 31 32 32 33 33 33 33 33 33 33 33 32 31 32 32 29 26 24 32 37 39 39 39 40 39 36 36 36 35 31 30 29 26 24 24 20 23 27
34 34 29 29 31 32 32 32 33 33 35 34 33 33 34 32 31 31 30 28 26 28 27 30 32 35 37 37 37 34 32 31 34 35 32 30 27 24 27 26 24 29 31 31
35 33 31 32 32 32 32 32 32 36 34 34 33 32 31 29 30 27 27 27 25 29 32 32 34 36 36 36 36 36 36 35 35 34 32 30 27 25 28 28 28 27 27 27
34 30 32 32 32 32 32 33 33 37 33 32 32 26 26 30 27 27 31 29 31 33 33 32 34 36 36 36 35 33 34 35 34 32 34 30 28 24 26 27 33 29 29 27

GFSNW_sfc_temp_009.txt.gz
Temp
52 53 53 53 53 54 56 52 47 59 59 49 42 45 53 56 58 62 59 57 55 52 51 48 47 47 49 53 52 48 48 42 32 44 52 53 49 45 43 30 33 28 25 32
52 52 52 52 53 55 55 50 50 59 58 38 32 49 55 57 57 57 56 55 55 54 49 45 47 48 52 53 51 47 48 39 31 39 46 50 46 48 44 39 32 32 23 31
51 52 52 52 53 54 56 50 43 49 50 47 49 49 51 52 58 57 58 56 56 53 49 49 45 47 51 52 52 50 50 42 38 33 38 42 40 44 44 41 29 32 31 37
49 50 52 52 53 53 57 50 46 50 38 42 48 52 52 51 50 57 58 55 55 51 43 44 43 47 49 52 51 49 47 38 39 40 42 43 42 43 43 41 40 35 38 39
49 53 52 52 52 53 55 51 48 48 45 51 49 46 51 53 53 54 52 52 51 51 45 49 44 48 46 46 49 44 43 34 32 34 41 40 38 43 42 42 42 41 39 38
53 52 52 52 52 55 54 53 53 52 41 44 45 43 52 54 54 53 55 53 49 44 47 49 49 49 49 49 47 38 35 30 30 29 33 34 30 38 43 43 44 42 34 41
53 52 51 51 53 54 58 54 53 45 36 40 46 53 53 53 53 51 52 53 48 52 53 51 51 47 47 47 44 44 33 29 26 24 26 22 41 46 47 44 42 42 41 42
52 51 51 51 52 53 60 56 53 47 35 43 49 51 50 50 50 48 49 51 52 54 47 38 38 33 37 37 43 41 40 29 27 23 23 33 42 45 42 41 40 44 42 42
51 51 51 51 51 53 59 54 52 50 45 43 54 49 50 41 41 42 46 53 52 48 32 32 29 29 35 32 37 41 38 31 29 25 20 21 37 45 49 47 33 44 43 41
51 51 50 50 51 54 58 54 55 54 45 50 52 47 48 48 44 40 44 46 45 46 28 24 28 30 39 32 29 27 27 23 22 19 17 29 41 48 49 34 36 43 44 43
50 50 50 50 51 52 58 54 55 55 47 49 52 54 50 49 47 41 46 44 42 34 31 27 27 27 32 32 36 34 31 27 22 25 19 27 46 46 39 43 41 45 43 43
51 49 49 49 50 51 55 55 56 55 52 51 54 54 54 54 55 48 45 47 44 40 34 30 32 31 32 28 29 40 33 36 32 35 34 44 46 46 46 46 44 43 43 44
47 48 48 49 49 52 56 54 53 52 45 49 51 50 57 60 57 57 48 43 49 45 42 37 32 28 30 29 31 32 41 44 34 37 44 45 46 47 47 46 45 44 45 45
48 48 49 49 50 52 55 52 52 49 43 36 45 55 55 60 59 58 56 52 48 44 40 35 33 29 39 29 35 33 40 43 40 36 43 44 47 47 47 46 45 45 47 47
49 49 50 50 50 51 55 52 51 52 51 38 38 52 55 56 57 55 54 52 48 41 36 33 33 30 35 34 32 33 43 42 35 36 45 45 45 48 47 45 45 47 46 45
49 49 50 50 51 52 54 49 52 51 50 43 38 45 48 51 52 52 52 50 47 43 40 34 36 42 37 34 35 43 47 49 49 47 48 47 46 47 47 47 47 47 45 44
49 49 49 49 51 51 50 47 49 49 50 41 38 36 43 46 47 44 46 46 45 45 39 36 37 35 41 34 33 47 47 49 49 49 47 42 44 44 47 47 45 46 45 44
49 50 49 49 50 50 50 50 48 48 46 41 35 34 36 46 38 38 44 38 42 42 40 39 37 36 35 34 41 45 50 50 48 48 48 47 47 47 45 45 44 42 40 40
50 50 50 50 48 46 49 48 48 49 47 37 34 34 35 42 39 37 37 41 34 40 37 36 37 34 35 40 43 44 46 45 46 45 45 45 44 44 45 43 42 39 37 38
49 48 43 40 44 49 49 47 42 40 41 40 33 38 36 42 34 34 34 34 36 35 37 39 34 36 40 41 42 43 45 46 45 40 38 39 40 40 40 39 38 40 39 37
45 42 39 45 49 45 41 37 36 38 36 39 37 36 36 41 36 35 35 34 33 33 32 35 33 32 36 41 40 42 43 43 42 43 43 42 40 37 35 37 37 36 35 34
45 43 45 43 39 37 35 34 35 35 34 35 35 36 39 37 38 36 35 34 33 30 35 33 31 31 36 37 37 39 40 39 38 38 38 39 39 39 36 35 33 31 31 25
44 41 37 41 34 34 34 33 32 33 33 34 34 34 34 36 37 34 33 32 31 33 32 31 31 37 40 38 38 38 39 38 38 37 38 38 37 34 30 30 29 27 29 31
36 34 33 33 31 31 31 32 32 32 33 33 33 33 33 33 33 32 31 32 32 29 24 23 32 34 35 37 38 38 36 34 35 35 34 31 30 29 28 27 24 22 25 27
34 34 28 29 31 32 32 32 33 33 34 34 33 33 34 32 31 31 29 28 26 26 24 30 32 34 35 35 36 34 32 32 33 34 31 30 28 27 28 27 25 29 29 26
35 33 30 32 32 32 32 32 32 35 34 33 33 32 31 29 30 26 22 22 22 28 31 32 33 34 33 33 35 35 35 34 34 32 31 29 27 27 29 28 26 25 24 24
34 31 32 32 32 32 32 33 33 36 33 31 32 26 24 30 25 25 30 27 31 32 33 32 34 34 34 34 34 32 34 34 34 32 34 30 27 24 25 27 32 28 28 24

GFSNW_sfc_temp_012.txt.gz
Temp
54 52 51 53 53 53 53 50 46 57 56 48 40 44 50 54 56 57 56 55 53 50 48 46 45 46 48 50 50 47 46 41 32 42 49 50 47 43 41 30 32 27 24 31
53 51 52 53 53 55 54 49 49 56 56 37 31 46 52 55 54 54 54 52 53 52 47 43 45 46 50 50 48 47 48 38 31 38 44 47 43 44 41 37 32 31 24 31
52 52 52 52 53 54 54 50 43 48 48 45 47 47 49 50 55 54 55 53 54 49 46 47 44 45 49 50 49 48 49 40 37 33 37 40 39 42 42 40 28 31 30 35
51 52 52 52 52 53 54 48 45 48 37 41 46 50 50 48 48 54 55 52 52 49 42 42 41 45 46 50 48 46 45 37 37 37 39 40 40 41 41 40 38 35 36 37
49 50 52 52 52 53 53 49 46 45 43 47 48 44 50 50 50 51 50 50 49 49 44 47 43 46 45 45 46 42 41 33 33 34 38 38 37 41 41 39 40 39 38 39
49 51 52 52 52 55 51 49 50 50 39 41 43 41 50 52 52 50 52 52 47 43 46 47 46 46 45 46 45 37 34 30 31 29 32 32 30 38 40 40 41 41 34 42
52 52 51 51 52 54 55 52 51 44 34 37 43 50 52 51 51 50 49 51 47 48 51 50 49 46 45 45 42 42 30 28 25 24 25 21 40 43 43 42 42 43 41 41
52 51 51 51 52 52 55 52 53 46 31 40 46 49 48 48 48 46 47 49 49 52 46 37 38 34 37 36 40 38 37 28 25 23 22 33 41 42 41 40 41 43 42 40
50 50 50 51 52 53 55 53 51 50 41 41 52 48 48 39 40 39 44 50 50 46 32 32 29 30 35 33 36 39 36 30 28 20 20 21 38 43 46 46 33 43 43 40
50 50 50 50 52 54 58 52 53 52 45 48 51 46 46 46 42 38 43 45 44 44 27 24 26 30 37 32 29 26 27 25 21 19 16 29 40 45 47 34 37 41 44 42
50 50 49 50 52 53 59 54 53 53 46 48 51 52 48 47 45 40 45 43 41 33 32 27 27 23 31 31 35 33 31 26 21 22 17 26 44 45 39 43 40 43 42 42
47 48 48 49 51 53 58 56 55 53 51 49 52 53 52 52 54 46 43 47 44 41 33 26 30 30 31 27 28 38 32 35 30 33 33 43 45 43 46 45 44 43 43 43
48 48 48 50 51 53 56 53 50 51 44 48 50 49 55 58 55 55 47 42 47 43 41 32 32 28 29 28 30 31 39 41 32 36 43 43 44 46 47 46 45 45 45 44
48 49 49 50 52 53 54 51 50 49 43 36 44 54 52 57 57 55 54 49 45 42 39 30 33 29 36 27 34 32 38 41 38 35 42 42 45 45 47 46 46 45 45 45
49 49 50 51 51 53 54 51 49 50 50 38 38 49 52 53 54 52 52 51 46 41 35 31 33 30 34 34 33 32 41 41 34 34 45 45 45 48 46 45 45 45 44 43
49 49 49 50 51 52 52 49 50 51 48 43 38 44 46 49 51 50 49 48 45 42 40 33 35 40 36 34 30 42 45 46 47 47 46 45 46 45 46 46 45 45 44 42
49 49 50 51 51 51 48 46 48 48 48 41 37 36 42 45 46 44 45 46 43 43 38 34 30 36 38 35 29 48 47 48 48 47 44 43 43 45 45 46 44 44 43 43
50 50 50 50 50 50 49 49 48 48 45 41 34 34 36 44 37 37 43 38 42 41 39 38 36 37 35 34 40 43 46 47 46 46 46 45 44 43 41 42 42 40 38 38
49 50 50 50 48 46 48 48 48 48 47 36 35 35 34 43 38 37 38 40 34 40 36 36 39 34 34 37 38 40 42 42 43 43 43 43 40 40 40 40 38 35 33 33
49 48 44 40 45 49 49 46 41 40 39 40 34 38 36 43 34 34 35 35 36 34 36 39 34 35 37 37 38 38 39 41 42 37 35 36 35 36 37 36 36 36 35 36
44 41 39 46 48 45 38 36 34 38 37 38 37 36 35 41 36 35 34 34 33 32 31 35 33 32 33 36 35 36 37 38 38 39 39 39 38 36 34 34 35 34 34 34
44 45 44 42 39 36 35 33 34 35 32 35 35 36 38 36 37 36 35 34 33 31 34 33 30 31 36 34 34 37 38 39 38 39 38 38 38 38 36 34 32 30 30 27
42 39 36 39 34 34 33 31 32 33 33 34 34 34 34 36 36 34 34 32 32 33 31 30 30 35 36 37 37 37 39 38 38 38 38 37 34 33 30 30 28 28 29 31
37 35 33 33 32 31 30 32 32 32 33 33 33 33 33 33 34 32 32 32 31 29 26 25 31 34 34 35 35 35 34 32 33 34 32 30 30 29 28 27 26 25 27 27
34 34 29 29 31 32 32 32 33 33 34 33 33 33 34 32 32 31 30 25 21 21 18 30 32 33 33 34 34 33 32 29 31 33 31 29 28 27 28 28 26 27 26 25
34 32 30 31 32 31 32 32 32 35 33 33 34 32 30 29 30 25 23 23 19 26 32 32 33 32 32 33 34 34 34 32 34 32 30 28 24 24 27 26 25 24 25 25
33 30 32 32 32 32 32 33 33 36 33 32 31 25 25 30 22 21 27 22 29 33 32 33 33 33 34 34 34 32 33 34 33 30 32 28 25 23 26 29 31 29 27 22

GFSNW_sfc_temp_015.txt.gz
Temp
55 54 54 53 53 53 52 50 47 57 56 49 44 46 51 53 57 60 59 58 55 53 52 50 50 50 53 54 56 54 53 47 43 49 55 56 55 51 49 42 38 35 36 44
54 54 53 52 53 55 52 49 51 57 56 41 37 49 54 57 56 57 57 55 56 55 50 47 49 50 53 54 55 51 52 46 40 46 51 54 52 50 46 43 40 36 36 45
54 53 51 52 53 54 54 51 45 51 49 48 49 50 51 53 57 57 57 55 55 52 50 50 47 49 53 53 52 48 51 45 44 41 45 48 46 47 47 47 40 39 40 47
53 51 52 52 53 53 52 49 47 50 40 43 48 52 52 52 51 57 58 55 54 51 46 47 45 50 51 52 50 49 51 44 44 43 44 46 47 47 46 46 46 43 45 44
52 52 52 52 52 53 51 48 47 46 45 48 49 46 51 52 53 53 53 53 53 53 47 51 46 49 49 49 49 47 46 40 40 40 42 42 43 46 46 46 45 46 45 46
51 51 52 51 52 55 52 51 52 52 39 44 45 44 49 53 54 51 54 54 51 48 51 51 49 49 48 50 48 42 41 36 38 36 37 38 37 42 46 46 47 49 43 52
50 50 51 51 52 54 55 53 51 46 36 41 45 49 53 53 53 51 52 53 51 51 54 52 53 49 47 48 44 45 35 35 33 35 31 32 48 49 49 47 48 50 48 50
50 51 51 51 52 54 55 53 53 47 34 42 47 49 48 49 49 48 49 50 51 53 50 43 42 39 40 39 42 42 42 36 30 34 33 39 48 46 45 44 49 52 50 50
51 51 51 51 52 54 55 53 53 50 42 42 52 48 49 43 43 44 46 51 53 49 38 38 36 36 40 40 40 42 40 36 38 30 33 31 44 49 51 52 41 52 51 46
50 50 50 50 51 53 55 54 54 53 46 50 52 49 48 48 46 43 46 48 47 49 36 34 36 38 41 39 34 31 33 31 33 26 33 37 46 50 52 41 45 48 49 48
50 50 50 51 52 54 56 53 55 55 48 50 53 54 49 48 49 44 47 47 45 39 37 36 36 35 38 38 40 36 37 33 31 27 29 33 48 50 44 50 49 49 49 49
48 49 49 51 53 54 55 54 55 55 52 51 54 55 55 55 56 49 46 50 46 46 39 35 33 33 33 33 37 41 38 41 39 39 40 48 50 50 52 51 50 51 49 51
48 49 50 51 54 54 56 55 52 52 47 50 52 51 56 57 55 57 49 46 50 46 46 37 35 35 35 33 35 38 42 44 40 40 48 45 48 52 52 53 52 53 52 53
49 49 50 51 53 53 55 53 51 50 45 37 46 54 52 56 56 57 55 50 46 45 44 36 34 35 39 34 39 37 43 44 41 40 45 48 51 51 54 54 51 51 52 51
49 51 51 52 53 53 54 52 51 50 53 40 41 50 52 53 53 52 53 51 48 44 39 35 37 36 37 36 36 37 44 45 41 41 51 51 52 54 53 51 51 52 49 47
49 50 52 52 51 52 53 50 51 51 49 45 39 46 46 49 51 50 49 49 47 46 44 37 39 42 41 35 36 46 47 50 51 51 51 51 52 52 53 52 51 49 48 47
49 51 51 51 51 52 50 49 49 49 49 42 38 38 44 45 47 46 46 49 45 46 40 37 36 39 41 35 36 46 46 49 50 51 49 48 49 48 47 45 44 44 44 43
49 50 50 50 50 50 50 49 48 48 46 43 36 35 38 45 40 39 44 40 44 43 40 38 37 39 39 36 41 41 44 45 48 46 48 47 44 44 43 44 42 39 37 38
49 49 50 51 48 46 48 48 48 49 48 37 34 36 36 44 39 38 40 42 37 41 38 37 41 35 33 33 36 37 37 38 40 43 42 42 40 39 40 39 37 35 35 35
49 49 45 40 45 49 49 47 43 41 40 41 34 38 35 43 35 35 36 37 35 35 38 40 35 35 35 36 37 37 37 39 42 39 34 35 35 36 37 36 37 38 39 37
46 42 40 46 48 47 40 35 36 38 35 38 37 36 36 41 38 36 36 35 34 33 37 36 34 32 33 36 36 38 39 40 40 40 39 38 37 35 35 36 37 36 36 36
45 45 45 44 41 37 36 34 35 34 34 35 35 36 39 37 41 38 36 34 33 32 37 33 31 31 35 35 36 38 39 40 39 40 39 39 39 39 37 35 34 33 32 30
44 41 37 40 35 33 30 31 33 32 33 34 34 34 35 37 37 34 35 33 32 35 32 31 31 35 36 36 37 36 39 39 39 39 40 39 37 34 32 32 31 31 32 33
35 35 32 31 33 31 32 33 33 33 33 33 34 33 34 33 34 33 33 32 32 30 28 28 31 34 34 35 36 37 37 32 34 35 34 31 30 30 29 28 28 28 30 31
34 35 28 29 31 32 32 32 33 33 34 34 34 34 35 33 32 32 31 28 27 28 26 31 32 33 33 33 34 35 33 29 34 36 33 30 28 27 30 29 29 29 28 29
33 32 31 32 32 31 32 32 32 35 33 34 34 32 32 30 32 30 29 26 23 28 32 32 33 32 33 34 35 35 35 35 35 34 32 31 29 28 30 30 30 28 28 27
32 31 32 32 32 32 32 33 33 35 33 32 32 30 28 31 28 26 30 26 30 32 32 33 34 33 33 35 35 33 35 35 34 33 32 30 28 27 29 28 29 28 29 27

GFSNW_sfc_temp_018.txt.gz
Temp
54 55 55 54 53 53 53 63 57 65 68 60 63 60 64 58 66 67 66 67 66 64 63 61 61 60 62 64 66 62 63 61 52 58 62 64 64 61 61 51 47 48 46 54
53 54 54 53 53 54 57 61 62 66 64 54 52 60 64 65 65 66 66 65 66 65 62 57 60 60 60 61 63 62 62 57 49 52 58 62 60 61 60 56 52 46 43 54
53 53 54 53 53 55 67 64 54 60 63 66 62 60 61 62 65 66 66 63 65 62 59 60 57 58 58 60 61 49 58 58 55 50 55 60 55 57 60 60 49 51 51 59
52 53 53 53 53 54 65 63 61 66 51 56 62 65 64 62 60 66 67 63 65 63 55 57 56 59 57 59 51 58 61 54 55 55 54 55 56 58 58 57 58 50 58 58
52 52 52 53 53 54 64 62 60 62 62 61 61 57 61 62 62 64 63 63 63 64 58 62 57 60 60 60 58 59 57 52 50 48 51 52 51 57 59 59 60 58 60 58
52 52 51 52 53 56 65 66 65 68 49 59 59 59 62 64 65 59 63 67 63 60 60 62 64 63 63 63 59 55 53 48 48 46 47 48 40 51 58 59 60 59 53 62
53 52 52 52 53 57 73 69 69 62 51 55 59 62 64 64 66 61 60 65 63 58 65 65 64 62 60 59 55 57 46 48 45 43 39 35 57 59 59 59 61 65 63 65
52 52 51 51 52 55 70 68 69 64 42 58 59 61 64 62 61 58 59 58 61 65 61 56 51 49 47 48 52 53 54 49 40 39 44 51 58 56 54 53 58 65 64 66
50 50 51 51 52 54 68 67 67 69 53 53 64 62 62 57 58 56 53 58 62 60 55 51 46 45 50 47 48 51 50 49 50 40 38 36 54 56 59 59 50 62 62 61
49 50 51 51 52 54 66 67 64 70 62 63 64 61 59 63 61 57 55 55 54 58 50 43 47 49 51 48 42 37 42 42 40 41 39 48 58 58 59 46 51 62 60 61
50 50 50 50 51 53 63 64 64 68 63 61 62 64 60 60 63 56 57 57 55 52 47 47 49 44 49 49 52 46 46 42 39 39 36 37 58 57 50 58 61 61 62 62
50 50 50 50 52 54 58 64 63 67 66 61 63 62 63 65 69 64 60 62 59 61 53 48 46 39 37 45 46 51 46 52 51 51 53 58 60 62 64 61 59 61 61 64
49 49 50 51 52 55 60 64 62 65 59 60 64 60 64 66 64 67 62 60 62 59 58 51 47 38 47 38 48 49 53 54 50 49 59 59 60 62 63 64 62 64 65 64
49 49 50 51 53 54 59 64 60 62 59 44 55 64 60 63 65 65 65 63 59 58 62 50 42 43 52 46 51 49 54 53 52 51 57 60 62 63 63 64 64 63 64 62
49 50 51 52 54 54 60 60 57 60 61 48 53 59 59 62 64 62 63 63 62 60 51 42 47 49 48 46 48 48 55 55 50 50 60 58 60 62 62 60 60 60 59 59
50 50 53 53 54 56 64 53 60 59 63 58 48 56 55 59 61 60 59 60 60 61 58 47 52 50 52 40 48 53 55 57 57 55 59 58 60 60 58 56 54 54 54 54
51 51 51 51 52 62 60 60 56 52 59 54 45 48 54 54 56 53 55 57 55 59 51 43 46 50 54 40 46 48 50 52 54 55 56 55 51 50 52 51 50 49 49 47
50 50 51 51 50 52 57 56 52 52 60 59 46 43 47 54 46 44 49 47 54 49 44 43 43 44 47 43 45 46 48 50 53 50 53 51 51 51 49 50 47 42 39 38
50 50 51 56 54 56 57 49 50 60 60 52 46 43 41 49 42 44 47 50 42 47 43 43 46 39 39 38 40 42 43 43 45 48 49 49 46 44 40 39 37 36 36 38
50 57 57 50 50 49 52 57 55 53 50 49 37 45 39 48 41 40 43 44 40 38 41 43 40 36 39 39 39 40 43 47 48 42 38 40 37 37 39 39 40 42 44 45
55 49 46 53 50 57 50 44 45 48 40 43 40 41 40 47 42 39 41 39 39 36 41 39 37 34 36 37 38 41 44 46 46 44 40 40 41 41 41 42 44 41 39 39
51 51 51 53 51 48 39 37 39 41 38 38 40 40 42 41 46 43 40 37 37 34 43 36 34 35 36 37 37 39 41 43 44 45 44 45 45 44 40 38 37 34 35 33
54 49 40 46 39 35 36 32 35 34 36 36 36 36 40 42 46 38 39 35 35 42 34 35 36 35 36 37 39 42 45 45 44 44 44 43 41 39 35 35 33 34 37 39
42 38 34 35 34 34 34 35 34 34 34 36 39 36 40 37 37 37 36 33 34 32 31 31 32 34 35 37 40 43 42 36 40 41 38 35 34 33 33 32 32 32 32 36
38 39 31 31 32 33 33 33 34 35 36 36 38 37 42 35 34 34 33 32 31 34 33 33 34 34 35 36 39 40 39 34 39 41 36 33 34 33 34 33 33 33 32 31
36 35 33 33 33 32 33 33 33 36 36 37 36 33 33 33 35 33 33 32 32 33 35 33 34 34 35 36 40 40 40 40 39 38 37 34 32 32 33 33 31 30 31 30
34 32 33 33 33 32 32 33 33 36 34 32 34 33 31 35 33 31 36 32 34 33 34 35 37 37 36 36 37 37 38 39 38 37 35 33 32 31 31 30 33 32 32 31

GFSNW_sfc_temp_021.txt.gz
Temp
54 54 55 54 54 54 55 62 55 69 72 60 63 59 67 67 72 74 71 71 71 67 68 65 66 65 70 75 74 67 71 66 56 62 69 71 70 66 65 52 51 53 50 55
53 54 54 53 53 55 63 60 62 67 70 53 55 66 68 71 70 70 69 68 72 73 68 62 67 68 65 68 69 68 69 62 52 56 63 68 64 67 67 65 57 52 45 55
53 53 53 53 53 55 67 65 55 59 63 69 63 62 64 64 73 71 74 72 73 69 66 69 64 65 64 66 69 52 61 64 58 51 58 65 59 64 66 62 52 53 55 62
53 53 53 53 53 55 64 68 63 66 52 60 64 66 66 64 63 71 73 68 69 68 62 64 63 67 62 64 54 64 66 57 62 64 63 63 63 63 64 62 62 55 60 63
52 52 51 52 53 55 60 64 66 69 64 65 64 60 64 65 68 68 66 67 70 71 65 66 63 66 65 63 64 64 66 56 56 53 62 60 58 63 64 65 65 65 66 64
52 52 50 52 53 55 62 67 73 70 58 63 61 63 66 67 71 66 73 72 70 67 68 70 71 72 71 71 65 62 60 54 51 49 54 54 44 54 61 65 67 66 57 67
51 50 50 52 54 55 71 70 71 62 55 62 62 66 68 69 70 66 69 73 69 66 73 72 71 69 67 66 63 67 53 54 51 47 41 34 61 67 66 63 67 71 69 71
51 50 49 52 53 54 66 73 71 68 47 63 65 66 67 70 69 68 66 65 70 73 70 60 54 53 51 55 60 61 63 55 46 40 47 55 60 65 60 58 60 69 67 69
50 50 51 52 52 53 58 68 74 73 60 60 70 67 69 62 62 60 58 66 70 67 63 56 50 48 54 51 54 59 57 55 51 46 38 35 56 62 65 65 53 67 67 66
50 50 51 51 52 53 57 70 70 75 66 71 71 66 65 71 67 63 59 59 59 65 55 44 51 51 59 50 46 40 46 46 42 45 41 50 63 64 65 49 52 65 66 66
51 51 50 51 51 52 56 70 72 76 70 68 70 74 69 70 70 59 62 60 60 58 50 49 54 49 54 54 59 51 49 46 42 46 37 37 65 63 53 60 66 67 66 67
50 50 50 51 51 51 54 65 74 78 72 65 70 68 69 72 77 73 65 68 64 65 59 54 55 44 40 53 47 61 50 57 54 55 55 64 66 65 69 68 64 65 65 67
49 50 50 51 51 52 55 69 73 74 65 65 66 64 68 72 71 72 67 69 72 68 70 58 54 42 53 41 52 56 60 62 55 54 64 65 66 69 68 68 66 68 69 68
50 50 50 50 51 52 53 71 73 74 65 47 59 69 65 69 71 72 71 72 68 68 69 56 46 45 61 52 57 55 60 60 58 57 63 66 67 68 66 66 66 66 68 66
49 50 50 51 51 53 63 71 68 70 69 51 56 64 65 69 70 69 70 68 66 64 56 46 51 57 55 53 55 54 62 60 53 52 61 59 62 65 62 62 60 61 61 61
49 49 50 51 52 54 68 62 67 68 71 60 50 62 61 66 69 68 68 69 69 70 62 52 61 59 59 44 51 59 59 60 59 58 61 61 62 59 60 56 56 57 56 55
49 50 50 51 53 66 63 63 59 55 68 57 49 50 59 62 64 61 64 66 65 68 61 49 56 57 59 44 49 55 54 56 59 58 59 57 56 54 56 55 53 49 48 46
51 51 52 52 52 51 60 57 52 56 61 65 49 44 50 61 52 51 60 55 62 56 51 51 50 53 53 48 52 52 53 56 53 55 57 56 56 55 51 50 45 43 42 42
51 52 54 63 60 58 56 48 53 61 61 55 50 42 41 57 49 51 51 58 46 53 43 49 53 41 43 46 47 49 49 49 50 53 54 53 47 44 45 46 44 41 41 42
50 66 62 53 53 49 53 57 55 57 57 55 41 51 42 55 44 42 46 46 43 40 43 50 42 42 44 46 46 48 50 53 52 45 43 42 41 42 42 43 47 48 47 46
62 56 50 55 49 52 52 48 50 54 46 48 44 46 44 51 45 40 43 41 42 37 43 41 39 39 41 43 44 46 49 51 50 49 46 47 47 45 45 45 44 41 41 39
54 54 55 56 52 52 42 39 42 45 40 41 41 42 46 44 53 45 43 38 40 36 47 39 37 36 39 39 40 43 47 48 47 48 46 46 46 46 42 41 39 35 36 33
59 54 44 51 43 37 35 32 37 36 38 38 39 37 43 45 48 42 42 36 37 47 37 37 37 37 37 39 43 45 47 46 46 46 47 45 42 39 37 36 33 34 39 41
46 41 35 35 36 34 34 35 35 34 35 39 41 39 41 40 38 39 34 34 39 34 33 35 33 35 36 40 44 45 44 40 43 42 40 37 34 33 33 33 33 33 33 37
40 40 32 32 33 33 33 34 35 35 38 40 42 42 46 38 36 37 35 32 32 35 35 34 34 35 36 39 44 43 40 35 41 42 37 34 35 34 34 33 33 33 32 32
38 35 33 33 33 32 33 33 33 36 36 39 42 36 36 34 36 35 34 35 34 33 35 35 35 34 36 39 42 43 44 43 42 41 38 35 33 33 35 34 33 32 32 31
35 33 33 33 33 32 32 33 33 36 35 33 36 34 32 35 34 33 36 33 35 34 34 36 36 34 36 41 40 39 41 41 41 39 37 35 34 34 34 34 35 35 34 32

GFSNW_sfc_temp_024.txt.gz
Temp
52 54 54 54 54 54 53 59 51 68 68 54 58 54 62 64 70 76 71 72 71 67 68 65 65 64 70 77 75 66 71 64 53 61 71 73 69 63 64 48 48 51 45 50
51 53 54 54 54 54 55 56 59 66 66 49 50 60 63 68 68 71 69 68 71 73 68 62 67 69 69 71 71 66 69 60 48 55 64 69 63 66 66 64 55 47 41 50
49 53 54 54 53 54 58 60 49 52 57 65 58 57 60 61 71 72 73 71 73 70 67 70 65 66 65 68 70 54 64 63 57 47 56 63 59 63 66 63 46 47 49 58
49 53 54 54 53 53 53 60 56 59 47 53 60 63 63 61 63 71 74 69 69 67 61 65 63 68 63 65 56 64 65 55 60 63 65 64 62 62 64 61 61 51 56 60
50 53 53 53 53 53 50 56 60 63 60 59 58 57 60 63 67 68 66 66 70 70 64 66 62 67 64 62 63 64 66 54 56 52 61 62 58 62 63 63 64 63 64 62
51 53 53 53 52 52 51 62 68 64 56 58 57 58 63 65 69 71 74 71 69 66 69 72 71 71 72 71 63 61 60 52 48 45 55 52 42 53 59 62 66 64 55 64
52 53 53 52 52 52 61 64 68 56 52 57 59 63 66 67 69 66 72 74 69 69 75 73 71 70 69 68 65 69 53 51 48 43 40 35 58 69 67 63 65 68 68 69
52 52 51 51 49 51 58 62 57 56 45 61 63 65 67 69 70 69 69 68 72 74 70 58 52 50 49 56 63 63 63 52 44 38 43 52 58 64 61 59 59 66 65 66
51 51 51 50 50 49 54 57 56 57 55 58 69 66 68 62 60 60 60 70 74 72 62 53 48 46 53 51 54 62 59 54 48 43 38 35 55 63 67 66 49 65 65 63
50 50 50 49 49 50 51 56 57 56 56 69 69 65 63 70 63 59 60 60 60 66 51 42 49 49 61 48 45 39 44 45 39 42 39 46 64 65 66 46 49 64 64 64
50 50 49 49 49 51 51 52 56 55 54 69 73 75 69 69 67 56 61 59 61 58 49 48 52 46 53 53 58 48 45 43 39 44 35 35 66 63 51 59 64 64 64 64
50 50 49 50 51 52 53 49 58 60 59 64 69 69 71 73 75 65 63 65 63 62 58 53 54 41 40 49 45 64 49 55 50 51 48 63 67 64 68 67 64 64 64 65
49 49 50 51 51 51 52 52 55 61 62 63 67 64 68 72 71 73 63 67 72 68 71 58 54 40 50 40 49 56 62 64 54 54 63 65 67 69 69 68 64 66 66 65
50 50 50 50 51 51 52 52 56 64 64 47 57 70 66 71 73 73 72 73 71 69 67 56 43 43 60 49 56 54 60 62 57 56 62 65 66 64 63 63 64 63 63 61
49 50 50 51 51 52 53 55 60 69 68 51 54 64 67 70 71 70 71 70 67 64 55 43 51 57 53 52 54 52 63 59 51 49 59 58 58 59 61 58 57 58 57 54
49 49 50 51 51 51 54 53 68 68 75 58 49 61 63 68 70 69 68 69 68 67 60 52 60 62 58 44 48 61 60 62 60 58 60 60 58 58 57 53 53 53 51 49
49 49 50 51 51 57 56 56 56 53 68 58 46 47 59 67 65 64 64 68 67 67 60 52 55 56 58 43 47 57 57 58 60 59 59 54 57 52 54 50 49 47 47 46
49 49 50 51 50 52 56 60 54 53 65 59 45 40 48 62 53 51 60 58 61 57 53 54 52 52 52 47 54 55 55 57 55 56 58 56 54 51 48 49 48 45 44 44
50 50 51 56 60 57 58 51 51 63 57 45 47 40 40 58 49 50 52 58 45 55 44 51 53 43 43 51 52 52 51 53 52 55 54 50 47 46 46 46 45 43 42 44
51 57 63 48 53 50 51 59 58 54 50 53 42 48 42 51 44 41 45 46 43 40 44 51 44 43 48 50 51 51 53 54 54 45 41 42 42 43 44 45 44 43 42 42
61 54 47 54 51 57 53 45 47 48 41 47 45 45 44 51 44 40 44 41 42 38 42 42 40 39 43 48 47 49 52 52 51 49 47 47 46 44 42 41 40 38 37 34
56 55 55 53 52 46 39 39 42 42 39 39 40 43 47 45 53 44 43 37 40 36 44 37 36 40 43 43 43 47 49 49 48 48 45 45 45 43 40 38 35 33 33 31
58 51 42 45 40 36 36 33 36 35 37 37 39 37 43 45 49 41 41 36 37 45 36 37 38 40 40 42 45 45 47 46 45 45 44 42 39 38 35 33 32 34 36 34
46 39 34 34 34 33 33 33 34 34 34 37 40 38 40 39 37 38 35 35 40 33 32 35 35 37 38 42 43 44 43 39 40 40 37 34 32 31 32 32 31 30 30 33
38 37 31 31 32 33 33 33 34 35 38 38 42 42 43 37 34 37 35 33 32 35 35 34 35 36 38 40 42 40 37 35 38 37 34 32 33 32 32 31 32 32 29 29
35 34 32 33 33 32 32 33 33 36 36 40 42 37 35 33 36 35 33 35 33 33 33 34 35 35 36 40 40 40 41 40 38 36 35 33 33 33 33 32 31 29 29 26
34 32 32 33 32 32 32 33 34 37 36 33 36 33 31 36 34 32 33 31 32 32 33 34 35 35 36 40 38 38 39 39 38 37 36 35 34 33 33 33 34 34 32 27

GFSNW_sfc_temp_027.txt.gz
Temp
51 51 53 54 55 54 52 51 43 58 61 43 45 43 52 56 62 66 64 63 61 58 61 56 56 56 59 67 66 59 54 50 39 53 63 66 61 56 52 35 40 35 32 38
50 50 51 54 54 54 51 47 50 58 60 41 40 50 53 58 59 60 62 60 62 62 60 52 58 56 61 63 62 57 57 49 34 44 53 59 55 58 58 53 41 37 29 38
50 50 49 53 54 54 53 48 43 49 52 55 49 47 51 51 62 61 65 64 63 60 58 63 55 54 60 62 59 53 58 53 45 35 46 54 50 54 56 52 34 35 37 47
50 50 50 52 54 54 52 48 47 53 43 45 50 52 53 52 53 62 65 61 61 58 52 54 55 56 56 59 54 57 56 46 49 52 55 57 56 55 57 53 50 41 46 50
50 50 49 51 53 53 49 46 50 51 48 51 49 50 51 54 58 60 59 58 61 60 55 57 53 57 55 54 54 54 57 43 44 42 55 54 49 53 54 54 55 52 52 51
50 50 49 49 53 53 47 52 54 56 47 49 47 49 54 55 60 61 66 62 59 56 59 62 59 61 61 60 53 50 49 40 37 35 45 45 35 46 52 53 55 53 45 52
50 51 49 50 53 53 49 54 52 49 43 49 49 55 57 57 59 56 64 64 58 60 64 61 59 58 58 59 56 57 44 42 35 31 33 26 47 59 59 55 55 55 55 55
50 50 49 51 52 53 49 51 51 49 36 52 53 55 57 60 62 59 61 61 64 64 59 46 44 38 42 48 56 53 52 39 34 30 30 41 50 54 52 50 48 55 53 55
49 50 50 52 52 52 50 50 51 51 46 49 59 56 59 53 50 49 53 59 58 62 47 38 37 33 42 41 48 53 52 43 35 30 27 25 43 55 60 58 37 54 55 53
49 50 51 51 51 50 49 48 52 50 48 56 58 56 56 60 52 46 50 53 52 56 36 36 34 35 51 38 37 35 33 33 30 26 25 35 53 58 58 37 39 54 55 53
50 50 51 50 51 50 48 46 51 51 49 52 60 65 59 59 54 45 51 49 48 41 39 37 35 33 39 39 46 40 36 32 28 32 29 29 57 55 45 47 52 55 54 53
50 50 50 50 50 50 50 43 54 55 48 51 59 61 60 65 62 54 52 54 51 50 43 40 38 35 35 37 33 51 37 42 36 40 36 50 55 55 56 56 54 53 53 54
49 49 50 50 50 50 50 47 53 52 48 50 53 54 60 65 65 64 52 54 59 56 54 44 41 37 35 33 35 41 50 55 41 44 52 54 55 56 56 56 54 54 53 52
49 49 50 50 50 50 51 48 52 51 48 42 50 64 59 65 67 65 65 61 59 57 53 41 38 37 48 35 43 39 47 52 49 46 51 52 52 53 53 53 53 51 50 49
49 49 50 50 51 51 52 52 52 54 48 44 47 58 61 64 63 63 63 60 56 50 43 35 38 40 42 35 39 35 51 49 39 35 51 48 47 50 52 49 48 49 46 43
49 49 50 50 50 51 52 46 52 53 51 46 40 53 56 59 61 61 60 58 55 53 46 41 45 51 42 34 32 50 52 52 52 49 52 50 49 47 48 45 45 45 44 43
49 50 50 50 50 52 48 47 51 52 52 48 39 40 52 58 56 51 54 57 52 51 47 40 42 45 45 33 34 49 51 52 52 53 52 46 48 42 45 44 44 44 43 43
49 49 50 50 50 51 50 53 51 51 53 50 39 38 43 56 42 41 49 45 46 46 43 42 37 41 36 34 45 49 51 52 50 49 50 46 46 46 45 45 43 40 39 39
49 49 49 51 50 50 52 51 51 55 52 39 38 37 36 51 44 41 44 47 38 45 37 37 40 33 34 44 45 46 48 48 47 47 46 45 43 43 43 41 39 37 36 37
50 51 50 43 50 51 51 52 47 45 45 43 36 42 38 47 37 37 38 37 38 33 38 42 34 31 42 44 45 46 47 48 45 39 37 39 41 40 41 39 38 38 38 35
51 47 42 49 51 51 43 36 37 38 34 37 37 40 38 46 37 36 37 35 35 30 34 34 33 30 38 42 43 44 46 49 48 45 43 44 43 39 37 35 35 32 30 30
51 50 50 49 47 41 36 34 34 36 34 34 36 38 43 39 44 35 38 35 33 30 40 35 29 34 40 41 42 44 46 45 45 45 42 42 41 39 35 32 31 30 30 30
51 44 39 42 36 34 34 30 33 33 34 35 35 35 37 39 41 36 35 35 33 36 34 31 30 38 39 41 42 42 43 43 41 39 39 37 35 33 32 31 31 30 29 30
39 35 32 33 32 31 31 32 32 32 33 34 36 35 35 35 34 34 34 33 34 31 29 29 33 36 38 40 41 41 39 36 34 33 32 31 30 30 29 29 27 27 27 29
34 34 29 29 31 32 32 33 33 33 35 34 36 35 37 34 33 33 33 32 30 31 28 32 34 36 38 39 38 36 34 33 32 32 31 30 30 28 29 28 28 28 25 23
34 32 31 32 32 31 32 32 32 35 34 35 35 34 33 32 33 32 32 30 26 29 31 33 35 35 36 36 37 37 36 35 33 33 33 32 29 28 29 28 26 23 22 18
32 30 32 32 32 31 32 32 33 36 34 32 33 31 29 32 32 29 30 27 30 31 32 33 35 35 34 34 35 35 35 34 32 32 32 32 30 28 27 28 29 28 26 18

GFSNW_sfc_temp_030.txt.gz
Temp
52 52 52 53 52 54 52 48 42 55 59 44 43 43 50 52 56 60 58 58 56 54 55 52 53 53 58 61 60 55 55 48 36 50 59 58 55 52 50 34 38 32 30 38
51 52 52 52 52 54 49 45 47 55 57 38 38 46 51 53 54 56 56 56 59 59 54 49 53 53 58 59 60 55 54 45 34 42 51 55 52 55 53 47 38 36 29 37
51 51 51 52 51 53 49 46 40 47 49 52 46 43 45 46 57 55 57 57 58 55 52 55 51 53 57 57 57 52 56 49 43 36 44 49 46 51 52 48 33 35 35 45
51 51 51 51 51 53 49 46 46 47 40 42 47 48 48 45 47 56 58 55 55 53 48 49 52 53 54 56 53 55 54 45 47 49 51 51 50 51 52 49 47 39 45 46
50 51 51 50 49 53 45 43 47 48 44 48 45 46 46 47 51 54 54 53 56 55 52 53 50 54 51 52 53 52 53 43 41 40 49 49 46 50 50 51 50 49 49 47
50 50 50 50 50 49 44 47 52 50 45 46 43 44 48 50 54 56 59 58 56 51 57 59 58 58 57 57 52 48 46 39 35 35 42 42 34 43 49 51 51 51 41 48
50 49 48 49 49 48 49 47 49 46 41 46 45 49 52 51 54 52 59 61 55 58 61 58 57 55 54 54 52 54 42 39 33 30 32 25 45 54 53 49 49 51 51 51
49 49 49 49 49 48 48 49 48 46 35 48 48 50 51 54 56 54 58 59 62 62 55 45 43 37 42 46 50 50 49 37 33 29 29 38 48 52 50 47 44 50 49 51
49 49 49 49 49 49 49 48 49 45 44 45 54 51 54 49 48 51 52 56 58 56 43 37 36 33 40 38 45 50 45 39 34 29 27 25 41 51 56 53 35 52 51 49
49 49 49 49 49 50 49 48 49 46 42 51 56 50 51 56 48 49 49 52 51 52 35 33 33 34 46 36 36 34 32 31 29 23 24 33 47 54 54 38 38 51 51 51
49 49 49 49 49 52 49 47 49 47 45 49 51 58 55 55 54 46 48 47 47 38 37 36 33 31 37 36 42 38 36 31 27 31 25 30 52 52 44 45 48 51 51 51
48 48 49 49 51 51 51 45 50 51 44 47 53 53 54 65 61 52 49 51 50 48 42 39 36 34 33 35 32 46 38 40 34 37 36 48 51 51 52 52 50 49 49 49
48 49 49 50 51 51 50 46 49 49 45 47 48 50 58 61 64 65 51 49 55 51 51 43 40 36 33 32 32 39 46 50 40 42 47 47 49 50 51 51 48 48 49 48
49 50 49 50 51 50 51 46 49 50 48 39 47 59 56 61 64 65 61 59 56 53 49 39 36 36 44 32 41 38 45 49 46 42 44 48 48 48 49 47 46 45 46 45
49 50 49 50 50 50 49 49 50 51 48 40 43 53 58 60 60 61 62 59 53 47 42 35 36 36 41 32 37 33 48 46 38 36 49 45 44 46 47 45 44 44 42 41
49 49 49 49 50 50 48 44 50 53 52 44 37 50 51 56 57 57 59 57 52 49 44 36 42 48 41 33 30 47 48 49 50 47 49 46 44 45 45 42 42 42 40 40
48 49 49 50 50 49 47 45 50 52 52 44 38 40 50 53 51 49 51 52 48 49 44 38 40 43 42 31 34 46 47 49 48 48 47 41 43 39 42 42 42 42 40 40
48 49 49 49 49 50 49 49 51 52 49 48 37 39 41 52 42 42 47 43 45 44 43 40 36 40 34 34 43 46 47 46 46 45 46 44 43 42 41 42 40 38 36 35
49 49 49 49 48 46 47 50 50 51 49 40 36 35 36 47 40 40 42 42 37 42 36 36 39 34 32 40 43 45 46 44 41 43 43 42 40 39 39 38 37 34 33 33
49 48 46 40 47 50 52 49 46 45 45 41 36 41 37 44 36 37 35 36 35 34 35 39 34 34 39 41 43 44 44 44 43 37 35 37 36 38 37 36 36 35 33 31
47 45 41 49 51 48 43 36 36 37 34 36 36 37 39 44 37 35 35 34 33 31 34 34 32 32 36 40 40 42 45 45 43 43 41 40 40 37 35 33 32 30 31 30
49 49 49 48 45 38 35 33 35 34 33 35 36 37 42 39 44 37 36 34 32 28 38 31 32 34 39 41 42 43 44 44 44 44 41 40 39 38 34 30 29 30 30 30
47 43 37 40 34 32 29 29 32 32 33 35 35 35 36 39 41 35 34 32 30 35 34 31 29 37 39 40 40 39 41 40 38 38 37 36 34 34 31 29 29 29 29 29
36 34 30 32 30 30 30 31 32 33 33 34 35 34 35 34 34 33 32 33 33 27 24 27 32 36 37 39 39 38 36 34 33 33 32 31 30 29 30 30 29 28 27 27
33 34 27 29 31 32 32 32 33 33 34 34 35 35 37 33 33 33 32 31 29 27 27 31 34 36 37 36 36 34 32 31 31 32 30 29 29 28 28 28 28 27 25 23
31 32 31 32 31 31 32 32 32 35 33 34 35 33 31 31 32 31 29 29 26 28 30 32 34 34 35 35 34 34 33 32 31 31 31 30 28 28 28 27 25 24 23 20
31 30 32 32 32 31 32 32 33 36 34 32 33 29 29 32 29 26 29 26 28 31 31 33 34 33 33 34 33 33 33 32 32 31 31 30 29 28 27 26 27 27 24 20

GFSNW_sfc_temp_033.txt.gz
Temp
52 53 53 53 53 53 50 45 38 52 57 43 42 39 46 51 55 56 54 54 52 51 51 49 50 50 56 59 56 52 52 45 35 48 54 56 52 48 47 34 37 31 29 36
52 52 52 53 53 53 46 41 45 53 54 39 38 44 48 52 53 52 52 52 54 54 50 47 50 51 56 56 56 52 52 43 33 42 49 52 48 50 49 44 36 34 28 36
51 51 51 52 53 53 47 42 38 45 47 50 45 42 43 45 54 52 53 52 54 51 50 52 49 50 54 55 56 52 54 46 42 36 43 47 43 48 48 46 32 34 34 43
50 50 51 52 52 52 46 42 41 48 39 41 45 46 46 44 46 52 53 49 51 48 44 46 46 50 52 54 52 52 53 44 44 46 48 49 49 49 48 46 44 38 44 43
51 51 51 52 52 52 42 39 41 47 43 47 44 45 43 44 48 48 48 49 53 53 46 49 48 51 49 50 51 49 50 41 41 39 46 46 44 48 48 47 47 46 46 45
50 51 51 51 52 50 40 44 47 44 45 45 42 43 44 46 50 51 55 55 53 48 52 55 55 55 56 56 52 46 45 38 36 35 39 39 34 41 46 48 49 49 41 48
51 50 51 51 51 50 46 45 46 42 39 43 43 46 48 48 50 48 54 56 51 55 57 55 55 52 52 51 49 50 40 37 33 30 32 25 44 50 50 46 46 47 48 48
50 50 50 50 50 51 43 46 45 43 36 45 46 45 46 50 53 51 54 56 60 58 52 44 42 36 40 43 47 46 46 36 31 30 30 37 45 47 47 45 42 48 46 48
50 50 50 50 50 50 45 46 48 44 40 42 51 47 48 44 45 46 49 58 55 53 41 35 35 34 39 37 42 47 43 38 36 27 27 27 41 48 53 51 35 50 48 48
50 49 49 49 50 50 46 46 51 46 39 45 50 46 46 52 48 45 47 50 49 51 33 31 32 32 44 36 36 34 32 30 30 22 25 33 45 51 53 38 39 48 49 48
48 49 49 49 49 49 46 45 50 46 41 45 50 49 48 52 52 44 47 49 46 36 38 36 32 31 37 36 40 38 37 31 27 26 24 30 49 49 43 45 45 49 48 48
48 48 49 49 49 49 47 44 50 50 44 44 50 50 52 50 58 52 46 51 49 47 41 36 36 32 30 35 32 43 38 38 35 37 36 46 48 49 49 49 49 48 49 48
48 49 49 49 49 50 48 46 48 47 43 42 44 46 54 57 55 59 49 48 52 49 50 42 38 35 34 32 32 37 43 46 39 40 44 46 45 46 47 48 46 47 47 47
48 48 49 49 50 50 50 46 49 48 45 38 45 57 54 58 58 58 59 57 53 50 47 40 36 35 42 34 40 36 43 46 42 39 41 44 45 44 44 44 44 43 43 43
48 48 49 49 51 51 49 49 49 50 46 38 41 49 53 55 56 58 58 55 51 46 40 35 37 37 39 31 36 32 45 44 39 36 46 45 44 44 45 43 41 42 41 39
48 49 50 50 50 50 47 41 48 50 50 42 35 48 48 52 54 55 57 55 49 46 44 36 40 46 42 36 31 46 48 48 49 47 48 43 43 42 43 41 40 41 40 39
48 48 49 49 49 46 41 40 46 50 50 42 35 32 47 52 49 48 49 50 48 48 44 37 39 41 42 29 33 47 45 45 45 45 44 39 40 37 40 40 39 40 38 38
48 49 49 49 50 48 46 50 50 52 47 46 36 35 39 49 39 42 47 42 45 45 42 38 35 39 33 36 42 43 44 44 44 42 44 43 41 40 38 39 38 36 34 34
48 49 49 47 45 43 46 50 51 52 48 40 36 34 34 45 40 40 41 43 37 43 37 38 39 34 35 39 41 42 44 43 39 41 40 40 37 37 37 36 35 32 31 31
48 48 45 38 45 50 50 48 45 44 45 41 35 40 37 43 36 36 37 37 35 34 36 40 35 34 38 39 42 42 41 42 41 36 34 35 34 35 35 35 35 34 31 30
46 41 40 47 49 46 41 37 36 37 34 36 38 37 38 44 37 36 35 34 33 33 35 36 32 33 35 38 39 41 43 43 41 42 40 39 38 35 33 32 32 31 31 30
46 48 48 47 44 38 33 33 34 34 33 34 36 36 41 38 42 36 36 34 33 31 37 32 32 34 36 37 38 39 40 41 40 42 40 39 38 37 34 32 30 30 30 28
47 42 37 39 33 31 30 30 32 32 33 34 34 34 35 38 39 33 32 29 28 32 33 32 32 37 38 38 39 38 40 40 39 38 38 36 34 33 31 30 30 29 29 29
36 34 30 30 28 29 29 31 32 32 32 33 34 34 34 33 34 32 29 32 34 29 27 26 32 35 36 37 37 36 34 34 33 33 33 32 30 28 28 28 29 28 27 28
32 33 27 29 31 32 32 32 33 33 34 34 34 35 36 33 33 32 32 31 28 28 25 30 33 35 35 35 34 32 31 31 31 32 30 29 29 28 27 28 28 27 24 23
32 32 30 31 31 31 32 32 32 35 34 34 35 32 32 31 32 30 28 28 25 27 29 32 34 33 33 33 33 32 32 31 31 31 30 30 28 28 27 27 25 24 23 21
30 30 32 32 31 31 32 32 32 35 34 32 32 29 27 32 27 25 28 25 27 30 31 32 33 32 32 32 32 31 31 31 31 30 29 29 28 27 26 25 26 26 23 20

GFSNW_sfc_temp_036.txt.gz
Temp
53 53 53 53 52 53 50 44 34 51 55 42 45 41 44 50 53 55 52 50 49 48 48 46 47 48 53 56 54 50 51 45 35 46 51 53 50 47 44 33 36 30 29 35
52 52 52 53 52 53 46 40 41 52 53 37 39 46 46 48 51 51 50 48 51 51 47 44 48 49 55 54 54 50 50 41 33 40 46 49 46 48 46 42 35 33 27 36
52 52 52 52 51 53 48 41 34 43 45 50 43 42 42 43 52 51 52 49 51 49 47 48 47 49 53 53 54 52 53 43 41 37 42 46 42 46 45 43 32 34 33 41
51 52 52 52 51 52 47 41 37 45 36 39 43 45 44 41 44 52 51 46 48 47 43 44 44 47 49 51 50 50 51 42 43 44 47 47 46 47 45 43 42 38 42 41
51 52 52 51 51 52 43 37 38 43 40 44 42 43 42 42 45 47 46 45 48 48 44 47 45 48 47 48 49 48 47 41 40 38 43 43 41 45 44 44 43 43 43 43
50 52 52 51 51 51 41 42 43 43 43 42 39 40 43 44 48 51 52 51 50 45 52 56 54 54 52 49 47 44 43 38 36 35 38 40 34 40 45 44 45 46 40 46
50 51 50 50 50 51 41 43 44 40 37 41 41 43 46 46 48 46 52 52 49 52 56 55 53 50 48 49 47 48 38 37 34 29 31 25 44 46 47 45 45 46 45 45
50 50 50 50 52 52 42 44 43 41 34 42 44 44 44 48 50 48 50 54 56 56 54 45 41 36 38 40 44 43 44 36 32 31 29 36 43 45 44 44 44 47 44 44
49 49 49 50 51 51 45 43 47 43 38 38 47 46 46 42 43 43 46 56 55 53 45 36 35 34 38 36 40 44 42 37 36 27 27 26 40 47 50 49 36 48 47 44
49 49 50 50 51 51 45 42 44 43 36 44 45 44 43 48 45 39 44 50 47 50 30 30 31 35 43 35 37 35 32 30 30 22 25 33 44 48 50 37 39 47 48 46
49 50 50 50 51 50 45 41 46 43 39 42 47 49 45 48 48 41 44 47 44 36 37 34 33 28 36 35 40 38 37 32 27 26 24 30 48 47 42 44 43 46 46 46
48 49 50 50 50 50 47 40 47 48 43 44 49 48 51 49 52 50 46 47 45 45 40 34 34 30 28 35 33 42 38 40 36 38 37 46 47 46 49 47 47 47 47 46
48 49 49 49 49 49 48 43 46 45 42 43 44 43 50 52 52 54 49 45 50 47 49 41 39 36 34 32 34 38 41 43 39 40 44 44 46 45 45 46 46 46 46 45
48 48 48 48 49 49 49 44 48 47 44 36 42 53 49 55 54 53 53 53 50 48 47 40 37 36 41 34 41 37 41 44 39 38 41 42 45 44 44 42 43 43 42 42
48 48 48 48 49 49 47 46 48 49 42 37 39 46 51 53 53 52 53 54 48 44 40 35 37 37 39 33 38 33 44 43 39 40 46 46 46 43 43 42 40 41 40 38
48 48 48 49 49 49 45 39 47 50 50 41 34 45 45 52 51 50 52 55 47 45 42 37 42 46 43 36 34 47 48 48 49 50 47 41 41 41 42 40 39 39 39 39
48 48 49 49 49 47 41 39 44 49 49 42 35 32 43 51 50 46 47 47 45 46 42 38 40 42 42 32 36 49 47 48 45 44 44 39 41 38 39 39 38 38 37 37
48 48 49 48 48 48 43 45 49 51 46 43 34 35 39 48 41 42 46 39 42 43 41 37 36 39 33 36 43 41 42 43 43 42 43 43 40 39 37 37 37 34 33 33
48 48 48 47 42 39 41 49 50 49 45 37 36 34 34 44 41 41 38 39 34 41 36 37 38 34 35 38 39 40 41 43 39 39 39 39 36 35 35 35 34 32 31 32
48 47 41 32 39 49 50 46 43 43 44 43 35 40 35 43 36 37 36 36 35 32 35 39 34 34 37 38 40 40 40 41 40 34 32 34 33 33 33 33 34 34 32 32
43 39 37 44 49 45 41 34 36 37 34 37 37 37 37 43 35 35 36 34 33 33 35 36 33 34 35 39 40 41 42 42 42 42 39 38 37 34 32 32 33 32 33 32
43 45 47 46 41 36 34 32 33 32 33 34 35 37 41 38 42 35 35 34 33 32 36 34 32 34 37 37 38 38 39 38 38 40 37 37 36 35 34 32 31 31 30 28
46 42 36 37 32 31 28 30 31 32 33 34 34 34 35 37 38 33 34 33 32 34 33 31 31 36 37 37 38 38 39 38 38 37 37 35 34 33 32 29 29 30 29 29
36 34 28 30 28 29 29 30 31 32 32 33 34 33 34 33 34 32 32 32 34 30 27 27 32 34 34 35 36 35 34 33 33 32 32 30 30 29 29 30 30 28 27 28
33 32 27 28 31 32 32 32 32 33 34 33 34 34 36 33 32 32 32 31 27 27 26 29 32 33 33 33 33 32 31 31 31 31 29 28 29 28 27 27 28 27 26 24
32 31 28 31 30 29 30 31 32 35 33 34 34 32 32 30 29 25 23 26 22 25 29 31 32 32 32 31 31 31 31 31 31 30 29 28 28 27 26 26 25 24 23 21
29 29 29 28 29 27 28 29 30 34 34 31 31 25 23 29 25 20 23 21 25 28 30 32 32 32 31 31 31 31 31 30 30 30 29 28 27 26 26 25 25 25 23 21

GFSNW_sfc_temp_039.txt.gz
Temp
53 53 53 53 53 53 50 43 33 48 54 39 43 39 46 49 52 56 53 53 51 50 50 48 49 50 57 58 58 54 56 50 44 52 57 59 57 54 52 44 42 40 39 45
52 52 52 53 53 53 45 38 40 48 51 34 38 45 47 48 50 51 51 50 52 54 51 47 50 50 57 55 57 54 54 48 42 47 52 55 54 53 51 47 44 40 39 46
52 52 51 52 52 53 46 40 33 40 43 48 44 41 42 43 50 50 54 51 53 52 50 51 48 50 55 54 57 51 57 48 47 44 49 52 48 50 50 51 42 43 44 51
52 51 51 51 52 52 45 40 37 42 33 37 42 45 44 42 42 51 53 48 50 49 45 48 47 51 52 54 51 54 56 47 47 50 52 52 52 51 49 49 50 46 51 48
51 51 51 51 52 52 43 37 37 42 42 42 40 43 41 42 45 48 47 47 50 51 47 50 47 51 51 52 51 51 51 47 47 45 48 50 48 51 50 50 49 50 50 50
52 51 50 50 51 50 41 43 42 43 42 40 38 40 43 44 47 49 52 50 48 46 51 55 55 56 56 55 52 48 48 43 42 41 44 46 39 46 50 50 51 52 47 56
51 50 50 50 51 50 44 44 42 39 36 39 39 42 46 45 47 45 51 52 49 53 58 56 55 52 51 51 50 52 43 43 41 37 37 34 51 53 54 52 53 54 53 55
51 50 50 50 51 51 45 45 43 40 35 42 42 43 43 47 49 47 50 53 56 57 55 47 44 40 42 44 47 47 48 41 36 36 38 43 48 50 50 49 54 56 54 53
50 49 50 50 51 51 47 45 46 43 39 38 47 44 45 42 42 44 46 55 56 53 44 39 37 37 41 39 43 46 43 44 43 34 35 34 48 54 55 57 44 55 54 51
49 49 50 50 51 51 48 42 47 44 38 42 44 44 43 48 46 41 44 49 48 52 37 35 36 38 45 39 37 37 39 37 37 32 37 41 50 54 55 44 50 53 54 53
49 49 50 50 51 51 48 41 46 44 39 41 45 45 44 48 48 41 44 45 46 39 38 37 38 36 41 41 43 41 41 38 36 34 35 37 52 51 48 54 53 53 53 53
49 49 49 50 50 51 49 39 46 47 41 41 48 49 49 48 55 50 48 47 46 46 42 38 37 35 34 40 39 45 41 45 43 45 45 53 52 56 56 54 55 52 54 53
48 49 49 49 49 49 48 42 43 43 40 40 41 43 51 52 51 56 46 47 52 48 51 43 42 37 38 35 38 41 44 47 46 47 51 51 52 53 54 54 54 54 55 53
49 49 49 49 50 49 49 43 44 43 43 34 39 51 47 55 53 53 54 54 51 50 49 42 39 38 46 39 44 42 45 47 44 46 48 48 51 52 53 50 50 49 50 50
48 48 48 49 49 49 46 44 45 46 42 36 39 47 51 52 52 51 53 53 51 47 43 38 41 41 41 38 41 39 47 47 43 44 54 53 55 55 49 48 48 48 46 44
48 48 49 49 49 48 43 38 46 48 48 39 33 46 45 51 51 50 50 52 51 50 45 40 43 48 43 38 40 51 52 51 51 53 51 45 44 47 48 46 45 45 45 43
48 48 49 49 49 46 41 39 43 48 49 41 34 35 45 49 50 49 49 50 49 49 46 41 44 44 45 36 41 53 51 52 48 47 48 45 44 45 44 43 42 42 42 41
48 48 48 48 49 47 43 46 49 50 45 43 33 33 38 48 41 42 47 44 46 45 44 40 41 41 38 37 47 46 46 46 45 45 45 48 43 42 40 40 40 37 36 36
48 48 48 45 43 40 41 48 48 49 45 35 33 32 34 45 41 42 41 42 38 43 38 39 42 37 38 43 44 43 43 44 42 41 41 42 41 38 38 39 38 35 34 35
48 46 41 34 41 48 49 45 41 41 42 42 35 40 36 42 36 36 36 37 36 36 37 40 37 37 40 40 41 43 42 42 42 37 35 36 36 36 36 36 37 37 35 35
43 39 37 42 48 44 39 33 34 36 34 38 37 38 37 43 37 36 37 34 34 34 37 37 35 36 36 40 40 42 43 43 43 43 41 41 39 36 35 34 35 35 35 33
44 44 46 45 41 37 33 31 32 33 34 35 36 37 41 38 42 36 36 34 33 33 37 35 33 34 37 39 39 39 41 41 40 40 37 37 36 37 34 33 33 31 30 29
46 41 36 38 33 31 29 29 31 31 32 34 34 34 36 37 39 34 33 32 32 35 33 30 31 35 35 36 37 35 37 37 37 35 35 35 34 34 32 30 30 30 29 29
34 33 29 30 27 28 29 30 31 32 32 32 33 33 34 33 33 32 32 32 32 30 27 27 31 33 33 33 34 34 32 32 32 32 32 31 30 29 30 29 29 28 27 28
32 32 26 28 31 31 32 32 32 32 34 33 34 34 36 32 32 32 32 30 25 25 25 28 31 32 32 32 32 31 31 30 30 30 29 28 28 28 27 28 29 28 27 25
32 28 25 28 28 25 27 27 29 33 32 34 34 32 31 28 28 25 21 24 20 23 25 30 32 31 31 31 31 31 31 30 30 30 29 28 27 26 26 26 25 25 25 23
30 26 26 25 25 24 25 26 28 32 33 30 30 22 21 28 22 19 21 18 21 22 26 30 31 31 31 31 31 31 31 30 29 29 28 27 27 27 27 25 26 26 24 23

GFSNW_sfc_temp_042.txt.gz
Temp
53 53 53 53 53 53 51 45 35 54 58 37 39 40 51 55 59 63 59 59 57 56 57 54 56 59 64 71 71 61 68 62 53 59 65 67 68 64 63 52 50 52 49 53
53 53 53 53 53 53 49 39 40 52 54 32 34 46 50 56 56 58 57 56 59 60 56 52 59 61 69 68 68 65 65 58 50 53 58 63 61 64 64 61 56 52 45 54
52 52 52 52 52 52 49 39 33 40 42 53 45 43 47 48 58 58 60 59 59 57 54 59 56 59 61 64 69 57 63 62 56 49 56 63 57 61 63 60 51 53 54 59
52 52 52 52 51 52 49 40 37 42 34 39 47 49 49 47 48 57 60 56 56 56 50 54 54 58 58 60 55 64 65 56 60 62 64 65 63 63 61 59 60 54 59 61
52 52 51 51 51 51 44 36 42 47 46 45 44 46 45 48 51 53 52 53 56 57 54 55 53 55 56 60 59 62 65 57 58 55 61 61 59 63 64 63 63 62 63 62
51 52 51 51 50 50 41 44 54 52 46 45 42 44 45 48 53 55 59 58 56 53 56 59 58 59 59 61 59 58 58 56 52 49 57 56 46 55 61 63 64 63 57 66
51 52 51 50 50 50 48 53 50 45 42 44 43 45 49 49 52 50 57 60 55 60 62 62 62 60 58 60 61 64 55 54 54 48 42 36 60 65 68 64 66 69 67 70
50 51 51 50 50 50 50 54 50 48 39 47 46 46 47 51 53 52 55 59 63 63 59 50 46 45 50 53 57 57 61 56 48 42 45 55 56 58 59 59 62 71 69 71
50 50 51 50 50 50 51 53 57 49 45 46 52 45 48 46 48 48 54 62 64 60 50 48 41 40 45 48 48 54 55 54 52 43 43 38 58 68 69 67 54 72 70 68
50 50 50 50 49 50 51 51 55 50 46 54 54 46 46 53 52 49 53 54 54 60 46 40 43 43 54 45 43 40 45 46 43 46 44 53 63 64 66 51 57 69 71 69
50 50 49 49 49 50 51 47 55 52 47 50 50 51 50 52 53 47 53 52 52 50 44 44 47 43 48 51 55 48 46 45 42 48 41 41 62 61 58 67 65 69 67 68
49 50 49 49 49 50 51 44 54 56 49 43 52 49 51 50 62 58 55 55 54 55 49 50 52 43 41 50 44 55 45 54 53 54 54 67 64 70 70 71 71 66 68 68
49 49 49 49 49 50 51 46 52 53 48 43 43 47 52 52 57 61 54 57 62 58 63 54 52 45 49 42 49 54 54 52 49 52 64 62 65 70 68 68 69 69 69 67
49 49 49 49 49 50 51 49 53 53 49 38 45 56 50 56 58 59 59 60 63 61 60 54 48 46 57 52 57 51 60 53 55 56 64 60 63 66 69 66 64 63 67 65
49 49 49 48 49 50 49 51 52 56 52 39 44 53 56 58 56 55 57 57 58 58 52 45 46 56 52 51 51 50 58 57 51 53 66 63 70 71 69 65 60 63 63 61
48 48 48 48 48 49 43 37 49 56 56 42 34 49 49 52 52 49 52 57 57 57 54 51 57 55 54 45 49 61 64 64 65 63 61 63 60 60 68 63 62 63 61 62
48 47 47 48 48 48 44 44 49 52 53 43 36 40 49 51 51 50 50 54 55 55 52 51 54 52 54 46 46 62 65 66 64 57 55 56 55 57 55 58 58 54 59 58
47 47 47 48 49 50 47 49 49 54 49 45 37 37 40 50 45 43 51 49 49 50 49 48 50 52 48 45 57 61 63 57 55 55 54 52 54 54 53 53 52 50 49 50
48 48 48 48 48 41 42 48 49 51 48 39 37 35 36 46 42 43 41 45 41 48 44 48 50 45 44 52 54 53 52 51 52 49 52 50 50 48 46 47 47 47 43 45
48 48 41 35 41 48 48 45 39 41 46 47 38 43 33 41 41 41 38 37 37 36 41 47 42 47 49 47 48 50 50 49 49 45 43 44 42 43 45 45 47 45 44 43
48 39 37 49 48 49 47 36 35 36 34 42 41 41 36 43 39 39 43 36 34 34 39 41 39 42 41 43 46 48 48 49 49 50 49 49 49 46 42 42 43 43 41 40
45 48 51 49 45 43 34 32 34 34 36 39 37 39 42 42 48 44 40 38 36 34 39 39 36 34 37 39 41 44 46 47 46 47 46 46 45 44 42 40 36 33 32 32
51 47 41 39 35 31 30 30 32 33 34 35 36 36 39 44 47 38 36 34 35 36 33 29 29 33 35 35 36 36 38 39 38 38 37 36 36 36 34 31 31 31 30 30
37 34 30 32 30 30 31 31 32 35 33 34 36 35 36 36 34 33 34 33 34 31 28 26 29 32 32 33 34 33 31 32 31 31 31 30 29 29 30 30 30 30 29 30
32 33 28 29 31 30 30 31 32 33 33 33 34 35 35 33 32 32 33 30 26 27 25 28 29 32 32 32 32 31 30 30 30 30 29 29 29 29 29 30 30 30 28 27
32 27 24 26 27 25 26 26 27 31 31 33 34 33 31 28 28 26 23 25 19 22 24 27 31 31 31 31 31 30 30 30 30 30 29 29 28 27 27 28 27 27 27 26
28 25 26 24 25 23 25 27 27 31 34 30 31 25 23 31 25 21 23 19 22 23 24 26 29 30 30 30 30 30 31 30 30 29 29 28 28 29 28 26 26 27 26 25

GFSNW_sfc_temp_045.txt.gz
Temp
53 53 53 53 53 53 50 44 35 56 56 37 41 37 49 55 62 66 65 66 64 63 63 61 61 60 65 72 74 65 71 65 55 60 71 74 70 66 65 53 53 56 53 55
53 53 53 53 53 53 47 39 42 53 55 32 39 46 49 56 57 60 62 61 64 67 62 56 62 63 69 70 71 67 69 61 52 56 63 69 65 68 69 66 63 54 46 54
53 53 52 53 53 52 47 40 33 40 43 51 47 45 46 49 57 59 64 63 65 62 60 64 60 61 66 68 69 59 65 64 58 51 58 65 59 64 67 64 53 54 56 61
53 53 53 53 52 52 47 40 38 42 33 40 47 50 50 49 49 58 61 60 61 60 55 58 58 62 62 62 60 65 66 57 61 64 67 67 65 64 65 63 63 56 61 64
52 52 52 52 52 51 44 35 46 48 48 45 47 48 47 50 53 56 54 55 60 62 58 60 56 60 59 58 64 62 68 57 61 58 65 66 62 66 67 67 66 65 66 65
51 51 51 52 51 50 42 43 56 50 47 44 45 47 49 50 56 59 62 60 58 57 62 64 62 63 61 61 60 59 62 58 55 50 61 61 51 60 65 67 69 67 60 68
51 51 51 51 51 50 44 46 57 47 42 43 47 50 52 52 55 54 61 62 59 64 71 67 65 62 59 61 62 64 60 57 56 49 46 39 60 71 71 66 69 72 72 73
50 51 51 51 51 51 46 55 55 49 39 49 48 51 52 54 57 54 59 64 67 69 63 54 50 48 50 54 58 59 63 58 51 45 47 55 62 66 65 64 64 74 72 74
49 50 50 51 51 50 47 56 61 51 45 45 54 50 53 49 51 51 56 65 69 64 56 51 43 43 49 47 48 59 61 60 52 49 43 39 58 69 75 74 55 74 75 74
49 49 50 51 51 50 48 49 59 51 47 53 54 49 51 56 55 51 53 59 58 63 49 41 44 46 58 47 42 42 44 46 44 47 46 54 68 72 76 53 57 75 76 75
49 49 50 50 50 49 48 46 58 55 49 51 55 57 50 55 57 49 55 54 54 52 45 45 48 47 53 53 56 50 46 45 43 48 45 41 67 67 60 67 74 75 75 76
49 49 49 50 50 49 50 45 57 58 48 42 54 57 58 59 62 59 57 54 55 58 52 52 52 47 49 52 43 61 46 54 51 55 55 67 67 69 73 77 76 75 75 77
48 49 50 50 50 49 49 50 54 51 44 46 52 51 58 59 58 62 48 58 64 61 66 59 54 47 53 43 48 54 62 61 54 57 64 67 68 70 74 76 75 78 78 77
49 49 50 50 49 49 50 52 55 53 49 39 48 61 56 61 56 56 59 58 64 67 65 56 52 48 62 52 56 54 61 61 57 59 66 68 72 71 72 75 75 75 75 76
49 50 50 49 49 49 52 52 54 56 51 44 48 57 57 58 53 51 56 58 58 60 55 51 49 58 58 59 57 55 66 60 55 54 66 65 66 73 75 73 73 71 70 72
49 49 48 48 49 49 47 38 49 56 56 51 38 54 56 58 54 51 54 58 58 60 58 53 58 63 59 49 49 62 67 69 68 64 69 66 68 71 71 73 74 73 70 72
47 47 48 49 50 51 44 43 52 56 60 51 43 43 54 58 56 53 52 57 57 54 51 52 55 58 57 51 47 62 66 68 69 71 69 59 63 64 65 68 72 66 70 71
48 48 49 48 49 50 49 51 52 57 55 53 41 40 44 55 47 45 55 51 53 54 51 56 52 56 54 47 58 63 66 66 66 64 64 63 60 60 60 63 62 60 63 64
47 47 48 47 46 43 45 49 50 59 55 43 41 37 35 43 43 48 48 48 43 55 47 49 54 48 44 53 58 62 59 55 56 56 56 58 56 58 55 56 56 57 56 56
48 51 47 40 46 48 49 45 41 46 49 48 40 47 36 38 39 37 39 43 39 36 40 53 47 48 52 47 52 54 54 55 55 51 51 52 51 53 52 53 55 55 51 50
53 43 42 47 47 43 43 36 34 35 36 44 44 43 39 46 36 37 43 37 38 35 40 44 43 43 34 37 43 49 52 53 53 54 55 54 54 54 51 49 50 48 47 45
45 50 54 53 48 45 36 34 35 35 38 42 41 42 45 42 43 39 42 35 38 34 40 40 30 30 34 34 36 38 42 46 48 50 50 50 50 50 47 42 38 35 33 33
53 51 44 45 37 31 30 30 33 33 34 36 39 37 41 42 40 39 38 35 34 35 32 28 30 33 34 33 34 34 35 35 36 36 36 35 34 35 33 31 31 31 30 29
39 36 31 32 31 31 30 30 31 33 33 33 37 35 35 37 37 33 33 33 36 31 29 26 30 31 32 33 32 32 30 30 30 30 30 29 29 29 30 31 31 30 29 29
33 35 26 28 30 31 31 32 33 35 34 34 35 34 35 32 32 33 35 32 27 27 25 27 29 32 32 31 31 31 30 30 30 30 30 30 30 29 29 30 30 29 28 26
31 28 25 26 28 27 28 29 29 33 31 33 35 33 31 28 30 27 25 26 22 24 27 28 30 30 31 31 31 31 31 30 30 30 29 29 28 28 28 29 29 29 29 28
28 25 26 25 26 24 26 28 30 34 33 31 31 26 24 30 24 20 22 19 22 25 26 28 28 27 28 29 29 30 30 30 29 29 29 29 29 29 28 26 27 27 27 26

GFSNW_sfc_temp_048.txt.gz
Temp
53 54 54 54 54 53 51 44 35 56 57 37 39 38 45 50 55 61 59 61 57 59 61 59 57 60 66 74 72 62 66 60 53 60 70 72 69 64 63 51 49 53 47 51
53 53 54 53 53 53 47 39 39 52 54 31 34 43 46 50 51 55 58 56 59 63 59 55 61 62 71 70 69 65 65 57 48 54 61 68 63 66 66 64 61 52 41 50
53 53 53 53 52 53 48 39 33 40 43 50 43 41 44 44 53 54 59 59 62 59 58 59 58 59 68 69 69 56 60 60 54 46 54 63 58 63 64 60 48 49 52 58
52 52 53 52 52 52 47 40 36 43 33 36 45 46 48 45 45 53 57 57 57 57 49 54 54 61 60 66 63 65 63 54 58 60 64 65 63 62 63 61 62 54 58 60
51 52 52 53 52 52 45 34 42 48 47 43 43 44 44 46 50 51 50 52 57 59 53 56 53 58 60 59 65 62 65 54 56 52 61 63 59 62 65 64 65 64 65 63
51 52 52 52 52 51 44 42 52 50 45 42 40 41 45 47 52 55 58 57 56 55 59 61 57 62 59 63 61 59 58 55 51 44 57 57 48 59 63 65 68 66 58 66
51 51 51 51 52 51 43 42 51 43 40 41 43 47 49 49 52 50 57 60 56 64 67 60 54 59 58 59 62 63 56 54 51 40 43 37 58 69 69 64 66 69 70 72
50 50 51 51 51 52 45 46 48 44 38 48 46 47 49 52 54 52 55 61 65 69 59 46 38 41 45 53 61 59 60 54 45 40 41 51 59 64 63 60 60 70 69 72
50 50 50 50 51 52 47 43 51 48 43 44 53 48 50 46 48 51 54 63 68 63 55 43 35 32 44 46 52 61 58 56 47 43 38 36 54 66 71 70 51 71 72 70
49 49 50 50 50 51 48 43 47 47 41 53 53 48 48 54 52 50 54 56 56 56 49 39 35 35 54 45 45 42 44 43 40 42 40 48 64 68 71 50 52 70 73 72
49 49 49 50 50 51 48 44 50 47 43 52 53 52 46 51 54 47 55 54 53 43 41 43 44 42 49 49 54 44 39 39 39 43 40 38 65 65 57 63 67 71 72 73
49 49 49 49 50 50 50 42 49 53 46 45 52 53 55 54 57 56 56 54 54 53 45 49 50 44 46 50 42 59 41 47 43 50 50 61 64 63 68 70 70 70 70 74
49 49 49 49 50 50 51 46 48 47 43 46 46 47 55 59 60 63 52 57 60 55 54 53 52 45 50 43 47 53 59 59 50 49 55 59 64 65 68 70 67 73 75 75
49 49 48 50 49 50 51 45 48 47 48 38 42 52 55 63 61 60 58 58 57 59 61 52 49 45 59 48 54 50 56 61 56 55 59 63 66 62 65 68 71 72 72 72
49 49 49 50 50 50 50 49 49 53 47 39 41 52 60 60 59 57 58 56 52 50 46 45 46 50 53 56 56 52 62 58 52 50 62 59 61 64 69 67 68 71 70 68
48 48 49 49 49 50 46 38 46 52 54 46 37 54 53 56 56 55 55 55 52 50 49 48 56 61 56 47 47 60 64 65 66 62 66 62 64 65 69 65 66 71 70 69
49 49 49 48 49 50 46 44 49 53 56 46 42 44 54 57 55 52 51 55 48 47 47 45 52 55 56 47 43 59 64 65 66 67 65 62 66 61 62 62 64 66 70 68
48 48 48 48 49 50 47 52 51 54 50 51 40 41 44 56 46 44 52 48 49 49 48 50 50 55 50 45 56 60 63 65 64 57 60 61 61 61 62 61 61 60 61 64
48 48 49 48 45 43 45 50 53 56 51 42 42 37 35 43 46 47 47 50 40 52 45 46 51 47 40 38 42 48 52 53 53 56 57 57 57 58 58 55 55 54 54 54
50 48 43 37 44 49 51 48 43 43 47 47 40 48 36 43 36 39 39 43 38 38 45 49 42 41 38 36 37 41 43 49 53 49 48 50 50 53 54 54 54 55 52 50
47 44 38 45 49 47 43 37 38 40 36 45 46 44 38 42 35 34 40 38 35 35 42 41 41 33 32 35 35 39 40 45 47 50 51 51 51 52 51 48 44 41 38 35
45 47 49 46 39 37 35 33 33 33 37 43 40 41 43 39 42 34 36 34 34 32 42 35 27 30 34 34 33 33 35 38 38 39 38 38 39 39 36 34 32 32 32 30
52 48 42 42 37 32 31 29 32 32 32 34 39 37 39 39 39 32 33 32 32 34 31 27 27 32 33 32 32 31 32 32 32 32 32 32 31 31 30 29 29 29 28 28
41 36 30 31 29 29 28 28 30 32 32 31 34 35 33 33 32 32 32 32 33 30 26 22 27 30 31 31 31 30 29 29 29 29 29 28 28 27 28 29 28 27 26 27
32 34 25 27 29 30 30 32 32 32 34 32 34 34 35 33 32 32 34 30 23 24 21 24 28 30 30 30 30 29 29 28 28 28 28 27 27 27 27 27 27 26 26 25
31 27 25 28 29 27 29 29 30 35 32 33 35 33 31 28 30 27 23 25 19 21 24 26 28 28 28 29 29 29 29 29 28 28 28 27 26 26 25 26 26 26 26 25
28 25 27 27 27 25 28 30 30 33 31 31 31 26 25 32 25 21 24 19 21 24 25 26 26 25 26 26 26 26 27 28 28 28 28 27 27 27 26 24 25 26 25 25

GFSNW_sfc_temp_051.txt.gz
Temp
53 53 53 53 53 53 51 44 34 49 53 36 38 33 39 46 48 52 49 52 51 48 49 48 49 53 57 66 65 58 62 53 44 52 64 69 62 56 55 40 42 41 34 40
52 52 53 53 53 53 47 40 39 49 50 31 33 39 40 43 44 47 49 47 52 53 49 43 51 53 62 62 63 59 60 48 41 45 54 63 59 60 60 55 49 39 33 40
52 52 52 53 53 53 48 38 32 40 42 43 38 36 36 37 47 45 48 48 50 47 48 52 48 53 59 60 62 56 61 52 46 40 47 56 51 56 59 54 39 42 40 47
51 52 52 52 53 53 48 38 35 40 33 35 38 39 40 37 37 48 49 45 45 45 43 47 47 52 53 55 58 59 58 46 52 53 57 59 58 57 58 55 53 44 49 53
51 51 51 52 52 53 45 33 37 42 39 42 37 38 36 37 42 44 43 42 46 47 44 48 45 46 47 45 54 54 56 45 50 48 55 56 55 59 57 56 57 56 56 54
51 52 51 52 52 51 45 43 42 44 40 38 35 35 37 40 44 46 50 48 45 43 48 54 52 50 52 51 47 46 50 45 43 38 51 51 41 49 57 57 60 58 49 56
51 51 50 51 51 51 47 43 45 38 34 37 36 40 41 41 45 42 49 51 47 51 57 53 52 52 50 50 51 52 44 46 41 35 41 33 51 62 62 59 61 61 60 59
50 51 50 50 50 51 46 44 44 41 33 40 40 40 41 44 46 45 47 52 56 56 51 42 38 36 41 43 51 51 49 43 36 36 38 44 52 58 57 55 54 61 59 61
49 50 50 50 51 52 48 43 45 42 36 37 47 42 43 39 40 42 46 55 55 51 47 39 31 27 38 36 43 53 49 48 39 33 33 32 45 58 64 62 45 61 62 60
49 49 50 50 51 51 47 44 44 40 35 45 48 42 41 47 44 41 45 47 46 50 36 35 31 32 44 35 32 36 39 36 35 29 29 38 54 62 64 44 45 62 63 62
49 49 49 50 50 51 47 43 45 40 34 43 49 50 43 47 47 39 44 44 44 38 35 34 32 30 41 40 44 36 37 35 32 35 32 31 53 57 51 53 61 63 63 62
49 49 49 49 50 50 49 42 45 46 38 42 48 52 53 50 51 46 45 44 47 42 36 36 36 31 36 38 31 49 37 41 37 41 38 52 53 53 58 62 61 59 60 63
49 49 49 49 49 50 49 44 45 43 38 40 44 44 50 54 52 54 42 44 51 46 46 40 40 35 39 34 38 43 46 49 42 43 50 54 58 58 60 59 59 62 64 61
49 49 49 49 49 50 49 44 46 44 42 34 39 50 47 54 53 51 51 50 50 49 46 41 39 34 48 35 43 40 45 49 47 46 52 56 57 59 59 61 61 61 64 62
48 49 49 49 49 50 48 47 47 48 42 35 37 46 50 53 52 49 50 50 46 43 39 35 35 41 42 42 42 40 50 47 41 38 55 53 56 60 60 60 61 64 61 62
49 49 49 49 48 49 45 39 45 47 48 42 31 46 48 51 52 50 49 48 45 44 42 40 42 47 47 35 34 50 54 56 56 53 57 57 57 60 59 59 60 61 59 62
48 48 48 48 48 47 42 39 45 49 48 42 34 36 46 50 49 45 43 46 44 43 41 40 43 44 46 31 31 47 51 55 54 54 54 52 51 51 54 55 56 57 59 59
48 48 49 49 49 48 44 48 51 50 45 43 31 30 36 47 37 36 43 39 42 40 39 41 38 42 39 33 38 40 42 47 49 49 51 51 52 53 52 53 53 52 51 51
48 48 49 47 44 40 42 50 51 49 44 35 31 28 27 40 37 39 39 41 33 41 33 37 40 33 30 32 33 36 39 40 44 48 49 49 48 49 50 50 49 47 43 42
49 47 40 35 41 50 51 45 40 41 40 40 31 36 32 38 34 36 36 34 30 28 33 42 34 29 33 33 35 35 36 41 43 39 36 39 40 44 39 38 39 37 35 33
45 39 37 44 48 44 40 32 32 33 30 36 36 33 32 38 32 33 35 33 33 32 33 35 31 25 29 33 33 34 35 37 38 40 39 38 37 36 34 33 32 31 29 27
44 44 46 43 39 37 32 28 31 31 31 35 30 32 36 37 37 31 34 32 32 29 36 30 23 26 30 31 30 31 32 33 33 33 33 33 33 32 30 28 27 27 26 25
47 44 35 37 33 28 26 26 29 30 30 32 34 33 30 36 36 30 32 31 31 33 28 21 22 27 29 29 29 29 30 30 30 29 29 29 28 29 28 26 26 26 25 25
36 32 24 27 24 25 24 25 27 30 31 31 31 33 33 32 29 31 31 31 31 24 20 17 23 26 27 29 29 28 27 27 27 26 26 26 25 24 25 25 25 25 24 24
26 27 20 20 27 27 27 29 30 31 32 30 32 32 33 31 30 29 30 25 18 19 16 20 23 25 27 27 27 27 26 26 25 25 25 24 25 25 24 25 26 26 25 24
25 22 18 21 19 16 22 26 27 31 30 32 33 31 28 25 24 21 18 18 15 17 20 22 24 24 24 24 26 26 26 26 25 25 25 25 24 23 23 24 24 24 24 23
25 20 24 19 19 21 25 27 26 31 30 28 28 20 19 27 17 14 17 13 17 20 21 22 23 23 23 24 24 24 24 24 25 26 26 26 25 26 25 23 24 24 23 23

GFSNW_sfc_temp_054.txt.gz
Temp
52 52 52 52 53 53 50 44 35 46 52 35 35 32 40 45 46 50 47 47 45 45 46 44 45 47 53 61 62 53 56 50 43 49 58 61 55 54 52 40 39 39 33 41
51 52 52 52 52 53 47 40 39 47 47 30 31 37 39 43 43 44 43 44 47 49 43 38 45 48 56 57 57 53 56 46 36 44 52 56 52 56 57 51 45 39 33 39
51 51 52 52 52 53 48 37 32 39 41 40 36 35 36 36 45 43 44 43 45 44 41 45 42 45 53 55 54 51 52 49 47 40 44 50 48 54 57 52 36 40 40 46
51 51 51 52 52 52 47 37 34 39 32 34 36 37 39 36 36 43 45 41 41 40 36 41 41 47 49 54 52 52 51 45 49 52 55 55 54 53 54 51 49 44 48 49
50 50 51 51 52 52 44 33 36 40 37 40 36 37 35 35 39 41 39 38 43 43 38 40 39 44 46 46 51 48 49 41 46 44 53 54 50 54 55 54 54 53 52 50
50 51 51 50 51 50 43 44 43 43 39 38 35 34 35 38 40 42 45 44 42 40 43 47 48 49 49 49 49 44 43 40 37 39 49 50 40 48 51 54 54 54 46 54
50 51 51 51 51 50 46 45 43 37 33 35 35 39 40 39 41 38 46 46 42 47 53 50 48 47 47 48 47 49 43 40 38 33 38 32 49 60 57 54 58 58 58 59
51 51 51 50 50 51 47 46 43 38 33 37 38 39 40 42 42 41 43 46 50 52 47 38 36 33 38 42 47 45 47 41 33 30 35 42 49 53 53 51 50 59 58 59
50 50 50 50 51 51 47 47 46 43 37 36 43 39 41 36 36 38 42 50 50 48 40 33 29 25 34 35 39 48 46 46 36 34 30 31 44 55 59 58 40 58 60 59
49 49 49 50 50 51 47 44 47 39 34 39 44 39 38 43 40 35 40 42 43 47 32 26 27 30 40 32 30 33 35 35 33 32 29 35 48 54 61 43 44 57 60 60
49 49 49 49 50 50 46 43 46 40 34 37 44 49 42 43 43 36 40 39 39 35 31 29 29 26 35 35 39 34 34 33 32 33 31 29 51 55 48 49 52 57 59 58
49 49 49 49 50 50 49 41 45 47 40 38 44 46 51 53 53 46 41 41 42 42 34 32 32 28 27 34 30 42 35 39 36 37 36 50 51 53 53 56 54 55 54 58
49 49 49 49 50 50 49 42 43 42 37 38 39 40 51 52 51 51 41 42 48 43 43 37 36 33 32 28 31 39 43 48 39 41 48 51 55 54 56 56 55 57 58 59
48 49 49 49 49 50 49 42 44 42 39 32 38 49 44 53 51 51 49 48 50 48 43 37 32 31 41 30 39 36 44 46 45 44 49 53 55 57 58 57 57 58 60 59
49 49 49 49 49 49 47 46 45 45 41 33 36 44 49 51 49 48 48 47 46 43 39 35 32 37 38 38 40 39 47 44 40 38 51 51 52 57 58 58 59 61 58 57
48 49 49 49 48 48 44 38 45 46 45 40 33 43 46 48 47 46 46 46 44 44 40 38 39 44 42 34 35 43 43 44 47 44 48 52 53 54 56 57 55 56 56 58
48 49 48 48 47 45 40 38 42 48 45 38 33 34 45 47 45 42 42 44 42 42 40 38 40 41 44 34 33 38 41 42 45 47 48 47 48 47 50 52 53 53 52 51
48 48 48 48 49 49 43 45 49 46 40 42 31 32 35 44 37 37 43 40 40 40 39 36 38 41 40 33 33 36 38 41 42 43 45 45 47 49 48 49 49 43 39 38
48 48 48 46 43 40 42 47 48 46 42 34 30 29 30 39 35 36 38 38 32 38 33 32 37 32 26 28 31 33 34 35 38 43 40 41 41 39 39 40 39 36 33 32
47 45 40 32 42 48 47 43 39 38 38 37 29 33 32 37 30 34 34 31 27 31 32 37 29 26 31 31 33 33 33 35 38 37 35 36 36 35 33 33 32 31 30 29
43 39 36 43 47 43 38 31 31 32 30 33 32 30 30 36 28 30 34 32 33 30 31 30 26 21 27 30 30 32 33 35 34 36 35 35 34 32 31 29 28 28 27 26
42 43 44 40 38 35 29 28 29 28 31 33 28 31 35 34 36 30 33 32 32 29 34 26 17 24 27 28 29 29 30 31 30 31 29 29 30 29 27 27 26 25 25 25
45 40 35 35 30 22 20 23 25 26 30 30 32 33 34 34 34 31 32 30 30 32 23 17 20 25 27 27 28 27 28 28 27 27 27 27 26 26 25 24 24 24 23 24
31 28 18 19 17 21 20 19 19 26 30 29 31 32 33 32 27 31 29 27 27 19 11 14 21 24 25 26 27 26 24 25 24 24 25 24 24 23 24 24 24 23 22 22
25 25 15 17 22 20 22 26 23 28 31 30 32 32 32 29 27 25 26 19 15 16 12 16 21 22 24 24 24 24 24 23 23 23 23 23 23 22 22 23 24 24 23 22
24 22 16 18 17 18 20 25 23 29 29 31 31 30 26 22 21 18 14 15 11 14 18 21 22 22 22 22 23 24 25 24 24 24 24 24 23 22 22 23 22 22 22 21
21 17 17 15 13 16 20 23 24 29 29 23 25 17 18 24 18 15 17 13 16 18 19 21 21 21 21 22 22 22 22 21 21 22 22 22 24 24 23 20 21 22 21 20

GFSNW_sfc_temp_057.txt.gz
Temp
51 52 52 52 52 52 49 44 35 47 51 35 36 31 37 45 44 48 45 45 44 41 42 41 44 46 49 56 55 50 52 45 41 47 56 57 54 50 49 38 37 36 31 41
51 51 51 51 52 52 46 39 38 46 47 30 31 37 37 41 42 42 42 42 44 47 41 38 41 45 52 55 53 49 51 43 38 42 47 52 49 51 52 48 42 36 33 40
50 50 51 51 52 52 46 36 32 38 40 38 37 33 34 35 44 42 43 41 43 42 39 43 40 42 50 53 53 51 50 45 42 37 43 49 46 51 53 49 37 38 40 47
51 51 51 51 51 52 45 36 33 39 32 33 37 38 38 33 35 42 43 39 40 38 33 37 37 44 47 51 53 52 47 38 42 47 51 53 52 50 50 47 48 43 47 45
50 50 50 50 51 51 43 32 35 39 34 39 36 37 35 35 37 39 37 36 39 40 36 38 35 41 43 43 48 47 49 37 38 39 49 50 48 52 53 52 50 48 49 47
50 50 50 49 50 50 42 43 42 41 37 35 34 34 36 37 40 41 43 41 38 36 40 44 45 45 45 46 45 43 42 38 36 32 41 45 38 46 51 51 52 51 44 50
50 50 50 49 49 49 45 44 42 36 33 35 35 39 39 38 40 37 42 43 39 44 49 47 46 44 45 45 45 48 40 39 37 32 35 28 45 55 57 52 54 55 54 55
50 50 49 49 49 49 45 45 43 39 33 36 38 39 38 40 42 40 40 44 47 47 43 36 34 30 35 38 43 44 45 40 33 32 31 36 47 50 49 49 51 56 55 58
49 50 50 49 49 50 46 44 47 42 36 35 42 39 40 34 35 38 39 47 48 44 36 32 28 24 32 33 36 45 42 40 35 32 28 28 39 51 58 56 43 55 58 57
49 49 50 50 50 50 47 45 47 42 35 42 43 38 36 42 37 34 38 40 39 44 30 25 25 27 37 29 29 31 36 34 33 33 31 33 45 51 54 38 43 53 58 59
49 49 49 49 50 50 46 43 47 43 36 39 44 46 41 41 41 32 38 38 37 32 29 27 28 23 32 33 36 34 31 31 32 33 30 28 48 47 40 47 52 53 54 54
49 49 49 49 49 50 49 40 46 47 40 39 44 45 47 50 50 44 40 40 40 38 32 30 30 25 24 31 26 39 32 35 31 34 35 46 49 48 51 50 51 54 54 55
48 48 49 49 49 49 48 41 44 42 37 38 38 39 46 49 49 51 40 40 45 40 42 35 34 30 30 25 29 34 38 43 37 37 44 48 53 53 55 56 55 56 56 55
48 48 48 49 49 50 49 41 44 42 39 31 35 48 45 51 49 48 50 49 48 45 41 36 32 28 39 29 37 33 39 42 39 39 45 50 53 55 57 57 57 56 58 58
49 49 49 49 49 49 46 44 45 45 40 32 32 42 47 49 50 47 48 49 45 41 37 34 34 35 36 35 36 33 40 38 36 32 43 41 47 51 51 53 54 56 55 56
48 49 49 49 49 49 43 37 44 46 43 39 30 40 42 45 46 46 46 46 44 42 40 36 40 42 40 31 30 38 41 41 42 40 43 44 48 49 48 49 49 49 47 45
48 49 49 49 48 44 39 37 42 46 42 35 33 35 44 46 45 43 42 45 42 40 38 35 37 40 43 33 28 35 39 39 41 44 42 43 45 41 43 44 46 44 42 40
48 48 49 47 47 47 42 43 48 46 39 39 32 33 36 45 38 37 40 37 38 38 37 36 36 40 39 31 31 35 36 37 41 40 42 41 42 40 38 40 39 35 33 33
48 47 48 45 43 39 42 48 47 44 41 33 31 27 31 39 35 36 36 37 29 36 32 34 37 31 26 27 29 31 32 32 33 37 41 41 37 35 34 33 32 30 28 28
48 45 39 34 40 48 48 42 36 35 37 38 32 31 33 37 32 33 33 33 32 31 33 37 26 25 28 29 31 31 32 33 34 34 35 35 35 33 30 29 30 29 28 27
42 35 35 43 48 42 36 32 32 32 28 32 30 30 32 36 30 31 31 33 33 29 31 31 25 21 25 26 28 30 31 33 32 33 32 32 31 30 29 27 27 27 26 25
43 42 43 42 38 33 28 28 27 30 29 32 32 30 33 32 34 29 33 31 31 27 30 23 18 22 26 27 26 27 28 28 28 29 27 28 27 27 26 25 24 24 23 23
42 36 32 32 25 17 16 19 24 24 29 30 32 32 34 34 35 31 32 30 27 29 20 16 18 23 26 26 26 25 26 27 26 26 26 26 25 26 25 23 23 23 22 22
29 25 14 16 12 18 18 17 17 26 28 29 31 32 32 32 31 30 26 24 24 13 8 13 18 22 22 24 24 24 22 23 23 22 23 22 22 22 23 22 22 21 19 20
25 24 13 16 20 20 19 21 22 26 30 30 32 30 29 24 22 22 20 14 9 12 8 13 19 21 22 23 23 23 22 22 22 22 21 21 21 21 20 22 22 22 21 20
24 21 15 17 16 17 19 20 19 27 28 31 30 26 22 17 18 15 12 13 8 10 15 19 21 20 20 20 21 20 21 22 22 22 22 22 21 20 20 21 20 20 20 18
21 15 20 13 14 16 19 22 24 28 27 21 23 18 18 23 15 12 15 11 14 16 16 18 18 19 19 20 20 20 20 20 20 20 21 21 22 21 20 18 19 20 19 18

GFSNW_sfc_temp_060.txt.gz
Temp
51 51 51 51 52 51 48 41 33 47 49 35 34 31 34 43 41 46 43 43 41 40 41 40 41 43 47 52 52 47 50 44 38 46 53 54 49 46 48 37 35 35 32 41
50 50 51 51 51 51 44 37 38 46 47 30 31 35 35 39 40 41 41 39 41 43 39 37 42 43 50 51 51 47 51 41 33 38 45 48 45 48 49 45 40 35 34 38
50 50 50 51 50 51 45 36 30 37 40 39 35 33 33 34 42 40 41 40 41 40 37 42 39 41 48 50 51 50 50 45 38 34 40 47 42 47 50 47 35 35 36 43
50 50 51 51 50 51 44 37 32 38 31 33 37 37 36 34 34 40 42 37 38 37 33 35 35 42 42 48 52 50 46 38 40 43 46 47 48 48 47 44 43 39 43 43
50 50 50 50 50 50 41 32 34 38 35 39 35 36 33 35 37 38 35 35 38 38 33 36 34 38 39 40 45 44 47 36 37 38 44 44 41 47 48 47 46 45 46 45
50 50 50 49 50 49 40 41 41 39 36 35 32 33 36 35 40 39 41 39 37 34 38 42 44 43 43 43 41 39 39 36 33 31 39 39 33 41 46 49 51 48 44 49
49 49 49 48 49 49 44 43 41 36 32 34 34 38 39 38 39 37 43 42 37 43 46 45 43 41 42 42 41 44 39 36 34 30 35 26 42 51 50 47 50 51 50 52
49 49 49 49 49 49 44 45 41 37 31 36 36 38 37 40 42 40 40 43 47 46 41 35 33 30 33 36 41 41 44 37 32 28 29 35 42 47 45 42 44 52 50 53
48 48 49 49 49 49 46 44 46 41 34 34 41 38 39 35 35 36 39 48 46 44 36 33 27 23 31 31 35 41 39 39 34 32 26 25 37 47 51 49 39 50 51 52
49 49 48 49 49 49 46 44 46 42 35 41 42 37 36 41 37 34 38 40 37 41 31 29 28 27 35 28 28 34 34 33 33 32 31 32 43 47 50 35 38 45 47 50
49 49 49 48 49 49 46 43 46 41 34 39 45 46 41 41 41 33 38 37 35 30 27 28 31 25 31 30 34 34 33 31 27 31 28 25 46 45 42 45 46 48 50 49
48 49 49 49 49 48 48 38 46 46 40 39 46 48 49 50 49 44 42 38 36 36 30 28 29 25 23 30 26 36 30 34 31 33 33 43 44 47 49 48 48 49 51 53
48 48 49 49 49 49 47 42 43 40 35 38 39 39 46 48 51 54 38 39 43 38 40 33 32 28 29 24 27 33 37 41 35 36 40 43 46 48 50 50 49 54 57 56
48 48 48 49 49 50 48 41 44 41 39 33 36 46 45 51 48 48 48 46 47 43 40 34 30 28 37 27 35 31 37 39 37 36 40 43 45 46 46 45 50 53 58 56
48 48 49 49 49 49 46 44 45 45 39 32 33 42 46 49 47 46 47 46 44 40 37 30 33 33 35 33 34 32 38 36 33 31 39 39 41 44 43 42 44 45 44 48
48 48 49 49 48 49 42 36 43 45 45 37 29 40 41 44 45 45 45 46 44 41 39 36 36 40 38 33 27 38 42 41 41 40 41 40 41 42 41 39 42 41 40 38
48 48 49 48 48 44 39 35 42 47 44 37 31 33 42 44 43 41 41 44 43 42 40 37 35 37 41 34 31 34 38 38 39 43 41 39 40 37 38 38 39 39 36 34
48 49 48 48 47 47 42 42 47 47 41 38 30 32 36 44 37 37 42 39 41 40 38 36 35 37 36 32 29 33 33 35 37 37 39 41 41 39 36 36 35 32 29 29
48 48 46 44 40 38 41 48 46 43 40 30 30 30 30 40 37 38 37 39 32 37 33 32 35 32 27 25 27 29 30 30 32 35 37 40 38 34 33 32 31 28 27 28
47 44 37 32 41 48 49 42 37 36 35 38 32 33 32 36 33 33 34 33 30 27 30 33 26 23 26 28 29 30 30 31 32 31 32 31 32 30 28 28 28 28 27 26
41 37 36 42 47 40 37 31 30 32 30 33 32 33 33 37 29 32 31 31 33 29 28 28 25 20 23 26 28 28 29 30 30 31 29 29 29 27 26 26 26 25 25 23
42 42 43 39 34 32 30 28 29 30 29 32 33 33 35 35 33 31 33 31 32 25 28 23 15 21 25 27 25 26 26 27 27 27 26 26 26 26 25 24 23 22 22 21
41 36 30 30 25 19 20 18 21 23 28 29 32 32 33 33 35 32 32 29 23 27 19 15 16 22 25 25 25 24 25 25 25 24 25 24 23 23 22 21 21 21 21 21
28 23 13 14 10 15 16 15 16 25 28 28 32 32 31 31 30 28 25 20 21 11 9 12 17 21 21 23 23 23 21 22 21 21 21 21 20 20 21 20 20 19 18 19
23 21 10 14 19 21 21 22 23 26 28 30 30 25 28 20 16 20 20 13 10 12 8 14 18 19 20 20 21 22 21 21 20 21 20 19 19 19 19 19 19 19 18 18
22 19 13 14 12 15 14 17 18 26 26 26 27 19 17 14 16 13 10 12 7 8 13 17 18 18 19 19 20 20 21 21 21 21 21 20 19 18 18 19 18 17 17 16
18 16 16 12 12 12 15 18 22 26 24 19 23 16 16 22 13 9 13 4 8 12 15 17 18 18 18 19 19 19 19 18 19 19 20 19 20 19 18 16 17 17 17 16

GFSNW_sfc_temp_063.txt.gz
Temp
50 51 51 51 51 51 47 40 31 46 48 34 35 31 35 42 42 46 44 44 41 40 41 40 41 41 46 51 52 48 53 47 40 47 55 58 57 53 53 44 40 42 41 47
50 50 51 51 51 50 42 36 37 46 45 29 30 35 35 39 40 42 41 40 41 44 40 37 41 43 50 51 51 48 50 44 38 42 50 53 51 54 53 49 46 44 39 46
50 50 51 50 50 51 44 36 30 37 39 39 34 33 33 33 41 40 42 40 43 41 38 43 40 41 48 49 51 49 51 46 41 37 42 47 45 49 53 52 41 44 44 50
50 50 50 50 50 50 43 36 31 36 29 31 33 36 36 33 34 41 42 38 39 39 35 37 38 44 44 49 49 51 49 39 43 44 46 46 46 47 50 48 50 45 50 49
49 50 50 50 50 50 40 32 34 37 35 37 33 34 34 34 37 39 36 36 39 40 36 38 37 40 41 41 46 44 47 40 41 40 46 47 44 48 49 50 50 50 51 51
49 49 49 49 50 49 39 40 41 38 36 34 32 33 36 36 40 41 44 41 39 36 39 44 44 45 45 44 41 40 41 40 38 36 40 42 39 44 47 50 52 51 46 55
49 49 49 49 50 49 42 41 40 34 30 34 34 37 38 38 40 37 42 44 39 44 49 48 46 42 42 42 42 45 39 39 36 35 36 29 46 51 51 49 51 53 53 54
49 49 49 49 49 49 43 43 40 36 30 35 35 37 38 41 42 39 40 43 45 49 45 37 34 35 36 37 41 41 43 40 34 32 34 39 47 49 48 46 48 49 49 51
48 48 48 48 48 49 44 43 45 40 34 33 40 36 40 36 34 35 39 46 49 47 36 33 28 27 33 34 38 43 41 42 37 33 30 28 43 50 53 51 42 50 51 51
47 48 48 48 48 48 45 43 46 40 33 40 41 37 37 42 39 35 38 40 39 45 33 30 30 30 37 31 31 34 34 35 32 32 32 38 47 51 52 40 43 53 52 53
48 48 48 48 48 48 46 42 46 41 34 39 45 46 41 42 41 35 39 37 36 34 31 31 32 31 35 35 39 38 35 33 33 35 31 29 49 50 44 49 53 52 54 54
48 48 49 49 48 48 48 41 46 46 39 38 45 47 51 51 50 44 42 41 38 38 35 34 36 32 32 36 32 40 35 40 38 39 39 47 50 49 50 50 49 50 51 55
48 48 49 49 49 48 47 40 44 42 38 37 39 39 48 50 51 54 40 42 46 41 44 37 36 34 35 32 35 39 42 44 40 41 46 47 49 50 49 49 48 49 48 50
48 48 48 49 49 48 45 41 43 42 38 33 37 48 45 53 50 50 50 48 48 45 44 38 35 36 41 36 40 38 43 43 41 41 45 47 47 45 45 46 47 46 47 44
48 48 48 49 49 48 45 44 43 44 40 33 35 43 47 50 49 48 49 49 47 44 40 35 36 38 39 38 38 39 43 40 39 39 39 39 42 47 44 43 43 42 41 40
48 49 49 49 49 48 42 35 43 45 45 37 32 41 42 45 47 46 46 47 46 45 42 38 41 44 42 34 34 40 42 42 40 38 42 42 44 44 42 40 40 40 37 36
48 48 49 48 48 44 39 37 42 47 46 37 33 34 41 46 44 42 44 45 44 44 41 39 41 42 42 36 34 36 36 37 38 41 39 41 42 38 39 38 39 37 36 34
48 48 48 48 47 46 42 43 48 47 41 39 32 32 37 45 37 37 43 40 41 40 38 38 39 40 39 31 30 33 33 35 37 35 38 38 40 39 36 37 36 33 30 30
48 48 47 42 39 37 41 47 48 45 40 33 32 31 30 41 38 39 38 40 33 38 34 34 38 34 31 25 27 28 30 29 31 34 36 37 35 33 32 31 29 29 28 28
46 44 39 32 37 47 47 41 36 37 38 39 31 35 32 38 35 33 34 34 32 31 34 34 29 22 26 28 29 29 29 30 31 29 30 30 30 29 27 26 27 26 25 24
41 37 35 42 47 41 37 32 31 31 29 34 35 34 33 35 33 32 34 33 33 29 31 32 26 21 24 28 27 28 29 29 29 30 29 28 28 27 26 25 24 24 23 22
42 40 40 37 33 32 29 29 30 30 29 32 32 33 35 34 37 34 33 31 32 26 29 25 17 21 25 26 25 26 27 28 27 27 26 26 26 25 24 23 22 21 21 20
39 34 29 30 23 18 19 20 22 23 27 30 32 32 33 35 36 33 33 29 23 28 19 15 18 22 24 25 25 25 26 25 25 24 24 24 22 23 22 20 20 20 19 19
29 24 14 14 13 17 18 18 19 26 28 28 33 31 30 30 29 27 25 22 23 15 12 11 18 21 22 23 24 23 21 21 21 21 21 20 19 19 20 20 19 18 17 17
23 22 12 13 19 20 21 22 24 26 28 31 30 25 28 21 19 22 21 16 11 13 11 15 19 20 20 21 22 21 21 20 20 20 19 19 18 17 17 18 19 18 17 17
22 18 15 16 15 16 17 19 21 26 26 29 27 21 17 15 16 14 11 13 10 11 15 18 20 19 19 19 20 20 20 21 20 20 20 19 18 17 17 18 17 17 16 15
18 15 16 14 15 15 17 19 22 26 27 19 22 16 17 22 12 9 13 9 12 14 17 19 19 18 18 19 19 19 19 19 19 20 19 19 19 19 17 15 16 17 17 16

GFSNW_sfc_temp_066.txt.gz
Temp
51 51 50 51 51 51 49 45 33 53 54 36 39 33 42 44 48 53 49 48 46 44 45 44 44 38 44 51 52 50 56 52 48 53 62 66 65 59 59 50 48 52 51 54
50 51 51 50 51 51 48 38 42 52 50 32 34 38 42 44 45 47 48 46 47 49 44 41 46 39 49 52 49 49 54 50 44 47 55 60 57 60 60 59 57 50 44 53
49 50 50 50 51 50 46 39 31 41 42 43 39 38 39 39 48 47 50 47 47 46 44 48 44 45 45 48 50 48 53 51 48 44 48 53 51 56 60 56 48 50 52 56
50 50 51 49 51 50 45 37 33 44 32 35 38 39 40 36 39 46 49 45 45 43 39 42 42 47 49 48 50 51 51 39 46 49 50 51 50 51 55 55 56 50 55 57
50 50 50 49 50 50 40 33 34 41 41 37 35 35 35 37 43 44 42 42 45 45 41 44 40 44 46 44 48 48 51 40 45 44 50 51 48 53 55 56 57 56 57 57
49 49 49 49 50 49 41 40 42 38 40 39 37 36 39 38 42 46 49 46 42 40 44 48 50 51 50 49 45 43 44 41 41 38 47 47 42 50 53 54 58 57 53 59
49 50 50 50 49 49 46 42 44 34 31 38 39 42 38 37 41 42 47 47 42 47 53 53 52 50 49 49 49 49 43 42 43 38 41 30 50 58 58 56 56 59 58 58
49 49 49 49 50 50 46 47 40 38 33 41 41 42 42 44 43 44 43 45 46 47 44 41 39 40 39 43 47 48 49 44 39 36 37 46 52 54 53 53 50 57 57 60
48 48 48 49 49 50 46 43 45 39 36 39 46 43 44 39 42 40 39 44 46 43 42 39 32 32 38 37 40 49 49 48 42 37 34 32 50 55 58 57 47 59 58 59
48 48 48 48 49 50 46 42 45 40 33 43 48 43 43 47 42 41 41 39 38 41 38 34 34 35 42 37 34 33 36 39 35 37 36 44 55 55 57 44 46 57 59 60
49 48 48 48 48 48 45 41 45 41 35 43 47 51 47 47 43 36 41 37 37 37 34 36 38 37 43 41 44 41 39 37 35 39 34 32 55 56 48 52 57 57 58 59
48 48 48 48 48 48 47 40 45 47 39 41 49 53 56 55 52 46 43 44 43 43 40 42 44 39 41 43 37 50 40 47 44 46 45 54 57 55 56 55 53 54 54 56
48 48 49 48 48 48 47 42 44 42 38 39 42 39 51 55 56 60 44 43 47 48 52 47 45 39 46 38 42 45 50 52 48 47 52 54 55 55 55 55 53 54 54 54
48 48 48 49 48 48 47 42 45 43 38 34 41 52 45 53 55 56 56 51 51 50 49 43 43 41 50 45 47 45 51 51 48 49 54 54 52 53 51 52 54 52 52 51
48 48 49 49 49 48 46 45 46 46 44 36 40 46 51 53 53 53 52 49 45 43 40 40 40 49 47 49 47 46 54 50 46 45 45 42 47 50 48 47 48 49 47 46
48 48 49 48 47 47 42 34 42 47 48 38 33 47 45 50 52 50 49 48 44 42 40 41 47 52 48 40 41 50 49 48 47 45 48 47 49 45 44 42 43 45 45 44
48 48 48 48 46 44 41 42 44 45 47 38 35 37 44 49 49 48 46 47 43 42 40 41 45 47 47 42 39 44 41 43 44 44 44 45 41 39 40 41 42 39 38 36
48 48 48 47 47 47 44 47 47 47 42 42 34 35 37 47 38 37 44 40 42 41 40 41 44 47 45 34 32 35 36 41 40 39 40 39 41 39 37 38 39 35 32 30
48 48 47 44 41 39 43 48 48 49 43 36 37 34 32 44 40 39 41 42 35 40 35 38 39 38 31 26 29 29 31 32 33 38 40 37 34 33 32 32 32 31 28 28
45 44 36 32 39 47 46 41 36 37 38 41 38 39 34 42 40 37 37 41 37 33 35 38 35 26 29 30 31 31 32 32 33 32 35 34 33 32 30 29 30 29 29 27
44 38 35 42 48 44 38 33 34 36 34 40 40 39 34 40 37 34 39 35 37 32 33 33 31 27 26 30 30 31 31 32 32 33 32 32 32 31 29 28 27 26 25 23
44 40 40 37 35 36 34 32 33 35 33 34 34 35 39 36 40 36 35 34 34 30 36 33 27 24 29 30 28 29 30 30 29 30 29 29 29 28 27 26 24 23 22 21
47 41 32 36 31 26 28 26 28 30 31 32 33 33 36 34 36 35 36 31 28 34 28 24 23 26 28 28 28 27 29 29 28 27 27 27 25 25 24 21 21 22 21 21
35 31 21 25 22 24 25 27 28 30 31 31 35 33 34 35 33 31 28 26 31 24 22 19 24 23 24 25 26 26 23 23 23 22 22 21 21 21 21 21 21 19 18 18
28 29 19 21 24 26 26 28 29 31 32 33 34 34 36 30 28 29 28 24 20 23 22 22 24 24 24 24 24 23 22 21 21 21 20 20 20 19 19 20 20 19 18 18
28 24 22 24 26 24 26 26 28 31 32 36 37 30 28 23 26 24 19 24 20 19 22 23 24 22 22 22 22 23 23 23 22 22 21 20 19 19 19 19 18 18 17 16
24 21 25 24 24 23 24 26 28 32 33 29 31 25 20 29 22 17 22 19 20 21 22 24 24 23 21 22 22 22 22 22 22 22 21 21 21 21 20 18 19 20 19 18

GFSNW_sfc_temp_069.txt.gz
Temp
51 51 51 51 50 52 49 50 35 57 60 37 41 34 44 50 51 56 53 53 50 49 50 48 47 39 46 48 48 46 55 50 43 51 62 63 61 59 59 50 49 55 52 53
50 50 50 51 50 50 54 39 45 57 51 33 37 43 46 50 48 50 51 50 53 54 49 43 50 47 49 48 46 44 45 47 39 43 53 62 56 60 62 60 57 45 44 53
48 49 48 49 50 51 50 39 33 45 45 46 42 41 42 43 52 50 52 51 54 51 46 50 46 48 48 49 46 47 49 47 44 42 48 57 53 59 62 59 50 51 52 57
49 50 49 50 50 50 48 38 36 44 34 39 43 44 43 42 44 50 53 48 50 46 40 43 44 50 52 53 47 47 49 38 44 52 52 56 55 56 59 57 57 51 56 58
49 49 50 50 50 49 44 34 39 46 43 46 42 42 41 41 46 47 45 46 50 50 45 46 44 49 49 46 50 45 46 38 38 44 53 53 52 56 56 57 58 58 59 57
49 49 50 50 50 48 41 44 49 43 40 43 39 39 43 43 47 49 50 49 49 47 48 51 53 54 53 52 48 44 43 39 35 35 44 47 41 51 53 54 59 59 53 59
49 49 49 49 49 48 47 47 48 36 33 39 43 44 42 43 45 42 46 53 48 50 55 55 54 53 52 51 50 51 43 41 41 33 39 29 48 61 60 55 57 61 61 62
49 49 49 49 49 49 46 51 43 40 33 44 44 44 44 46 47 43 45 50 52 53 48 41 39 41 42 45 50 50 50 44 38 32 34 39 50 53 53 50 51 61 60 62
48 48 49 49 49 50 50 50 50 41 35 40 49 45 47 42 41 41 45 47 49 43 39 37 34 33 40 40 44 52 51 48 41 39 30 29 46 57 60 61 43 61 61 61
48 48 48 48 49 49 50 49 51 42 34 45 45 42 44 50 47 41 46 42 40 42 37 34 36 37 47 38 35 39 41 41 37 37 37 45 57 59 61 42 41 60 62 61
49 48 48 48 48 49 48 48 52 43 35 44 50 51 45 49 47 37 43 39 37 35 34 36 39 39 43 43 47 42 41 38 37 40 37 34 59 58 48 53 59 59 60 59
48 48 48 48 48 48 49 44 51 50 40 39 52 55 58 55 50 43 42 41 39 42 40 43 44 41 43 45 38 52 41 48 44 46 45 57 60 55 58 59 57 56 56 58
48 47 48 48 48 48 47 42 44 42 36 37 44 46 55 59 59 58 41 49 51 49 51 41 44 39 49 39 43 47 53 55 50 48 54 53 56 58 57 58 56 57 57 56
48 48 48 48 49 48 48 42 44 42 38 34 44 58 52 59 58 57 54 49 53 50 49 44 43 41 53 44 43 49 50 54 52 52 53 56 57 55 53 55 56 55 55 54
48 48 48 49 49 48 46 44 45 47 46 39 44 54 55 57 54 53 51 46 48 42 40 42 42 50 49 53 51 48 57 50 47 44 50 51 52 52 52 51 50 51 51 50
49 48 48 48 48 47 43 35 44 47 48 40 35 52 50 52 54 52 48 46 45 42 39 43 48 54 49 43 43 50 52 52 51 48 51 51 50 48 49 47 47 47 47 45
48 48 48 49 48 44 40 41 45 48 47 39 36 40 49 54 54 51 48 47 43 41 39 43 47 49 50 45 40 38 46 49 48 49 48 45 45 40 44 43 44 45 45 42
48 48 48 47 47 47 42 48 48 50 42 41 35 37 40 52 43 40 45 40 41 40 39 44 46 50 46 36 35 39 41 45 45 44 46 42 42 41 39 40 41 38 34 34
49 47 47 44 42 40 43 47 48 49 43 36 37 34 32 44 41 41 41 42 34 41 36 39 46 41 28 28 31 32 34 34 36 42 45 43 39 37 37 37 36 35 35 34
47 43 36 32 41 47 47 41 36 37 41 44 38 44 35 43 42 37 37 39 38 32 35 41 37 28 32 35 35 35 34 36 37 34 34 34 35 35 34 33 34 34 32 30
42 35 35 42 48 44 39 34 34 36 34 42 41 42 36 44 39 36 42 37 40 35 36 35 33 26 29 34 34 35 35 36 36 36 34 34 33 32 32 30 29 29 28 26
45 40 41 41 39 36 33 33 35 38 36 39 37 38 43 40 44 39 39 35 37 30 40 34 28 27 32 32 31 32 32 33 32 32 31 31 30 31 29 28 26 25 24 23
48 40 35 37 35 29 30 27 31 31 34 34 36 35 38 40 40 36 36 32 32 38 31 28 26 29 29 29 30 29 30 31 30 28 28 28 26 26 25 23 23 23 22 23
40 33 24 29 27 29 29 30 30 31 33 34 37 35 37 36 34 34 30 30 33 28 27 23 25 25 26 27 27 27 24 24 24 23 23 23 22 22 22 22 22 21 19 20
33 34 24 25 28 29 29 31 32 33 34 34 37 37 39 33 30 33 31 27 25 27 25 25 26 26 26 26 25 24 24 23 23 24 23 22 22 21 20 21 21 20 20 19
32 28 26 29 29 28 29 30 30 32 33 37 39 32 30 27 31 28 24 29 25 23 25 25 26 24 24 24 25 25 25 25 24 24 23 23 21 21 20 20 20 19 19 18
28 25 28 28 28 27 28 30 30 34 33 31 37 28 24 34 27 23 26 22 23 24 25 27 26 24 24 24 24 25 25 25 24 24 23 23 23 23 23 20 21 22 21 19

GFSNW_sfc_temp_072.txt.gz
Temp
50 51 50 50 49 50 48 41 33 57 58 35 36 31 41 48 52 56 53 53 50 48 50 48 48 48 45 51 50 43 47 42 37 43 55 56 55 50 52 44 42 50 47 50
50 50 50 50 50 49 41 38 44 54 49 31 34 41 43 47 48 50 50 49 52 53 48 44 49 50 52 51 47 41 43 40 34 39 49 50 47 50 51 52 50 44 39 49
50 49 50 49 50 50 41 38 32 44 43 45 40 39 40 42 52 50 52 51 54 50 47 51 45 45 50 51 49 45 46 41 38 35 39 42 44 50 53 50 40 44 45 53
49 49 49 49 49 50 41 38 35 42 34 37 40 41 39 41 43 51 53 48 48 48 42 46 44 50 49 48 46 47 42 35 39 40 43 46 45 48 50 49 52 47 52 53
49 50 50 49 48 49 39 35 38 45 38 42 42 42 39 41 43 47 45 45 49 50 45 47 43 48 47 44 49 47 45 35 38 38 46 47 39 51 52 50 53 56 58 54
49 50 50 49 49 48 38 44 48 42 39 40 38 38 42 44 47 48 48 47 46 45 49 51 51 53 48 48 46 43 43 37 34 30 39 42 40 46 49 52 56 54 48 52
49 49 49 49 49 49 45 43 46 37 32 38 39 43 44 43 46 44 50 51 46 50 56 56 54 53 52 51 50 51 43 39 35 31 35 29 46 52 54 52 52 54 55 58
48 49 49 49 49 49 45 47 42 39 32 41 42 44 43 44 47 45 47 50 48 52 50 42 39 40 41 44 49 49 49 43 33 30 31 37 46 47 47 50 45 52 54 59
48 48 48 49 49 49 48 48 49 40 34 37 47 43 45 40 41 43 46 49 50 49 41 35 31 31 38 37 43 51 49 46 38 34 29 27 43 50 51 48 34 52 55 57
48 47 48 48 49 49 49 48 50 41 33 43 43 39 39 47 46 41 44 41 41 47 38 32 31 34 45 36 36 38 38 38 33 34 32 42 54 53 53 34 38 53 56 56
48 48 48 48 48 49 48 48 52 43 36 42 47 48 42 43 44 37 42 38 40 36 31 34 37 37 41 41 45 41 38 35 34 37 34 32 56 54 45 49 53 56 56 54
48 48 48 47 48 49 48 44 52 51 40 43 50 51 53 51 50 40 38 38 38 43 38 41 37 38 39 41 36 51 38 45 41 43 43 52 55 53 56 56 53 53 53 54
48 48 48 49 48 48 47 46 50 46 38 39 42 43 53 58 57 57 38 45 47 41 47 41 39 36 44 37 40 42 48 52 44 47 48 50 52 55 56 55 53 54 54 53
48 48 48 48 48 48 48 41 46 45 39 33 40 56 51 57 58 57 52 49 51 49 47 39 38 38 48 40 45 44 49 50 50 43 44 44 49 51 53 52 53 52 53 51
48 48 49 48 48 48 47 44 46 49 43 35 39 51 57 59 56 55 54 51 48 42 39 40 38 43 43 46 47 38 48 44 42 36 46 43 45 48 51 48 48 49 47 46
48 48 49 48 47 48 42 33 43 49 50 38 32 44 52 55 55 52 50 49 43 42 39 40 45 51 43 38 37 38 47 48 46 42 49 47 48 46 47 45 45 47 45 42
48 48 48 48 48 45 39 39 45 48 47 36 34 38 49 53 51 48 47 49 43 41 39 38 43 45 47 40 33 35 40 48 45 47 47 43 41 39 42 43 44 43 41 38
48 48 47 47 47 46 42 48 48 48 41 39 33 37 40 52 42 40 46 39 40 40 39 43 42 47 45 30 32 36 38 43 41 43 46 42 43 42 40 42 42 38 34 33
48 47 47 44 41 39 43 48 48 48 41 36 35 32 32 48 44 41 42 40 33 40 35 39 43 35 27 28 31 32 34 35 37 42 41 41 39 39 39 38 37 35 33 31
46 43 37 32 40 47 46 41 34 36 39 42 35 40 34 43 41 37 36 39 36 32 37 43 34 26 34 36 35 35 35 36 37 34 32 33 33 33 33 31 32 32 29 28
41 35 36 43 48 44 38 33 33 35 33 42 41 39 36 43 36 35 42 35 38 33 35 34 31 26 29 34 34 34 34 35 34 34 32 32 31 30 29 28 27 27 26 24
42 41 43 42 39 37 33 32 34 35 36 39 38 40 42 40 41 37 38 35 36 30 39 34 26 25 31 32 30 31 31 31 29 30 29 29 29 29 27 26 24 23 23 22
48 42 36 38 34 30 29 27 32 32 35 35 37 35 40 40 42 37 37 31 31 38 32 26 24 27 30 29 30 28 29 29 28 26 27 26 25 25 24 22 22 22 20 20
38 35 26 30 28 29 29 29 31 32 35 36 37 36 37 37 34 34 31 31 34 29 27 22 23 25 25 27 27 26 23 24 23 22 22 21 21 20 21 21 20 20 18 18
35 36 25 26 29 30 31 32 34 33 34 34 37 38 39 34 32 34 31 28 27 26 22 23 24 25 25 25 25 24 23 23 23 23 21 21 20 20 20 20 20 20 19 18
32 30 28 30 30 29 30 32 31 34 34 35 41 34 32 29 32 29 26 28 24 22 23 24 25 24 24 24 24 25 24 24 23 23 22 21 20 20 20 20 20 19 19 18
29 26 30 30 30 28 29 31 31 35 33 32 35 30 26 34 27 23 25 22 22 24 25 26 25 24 23 24 25 25 25 24 24 23 23 23 23 23 22 20 20 21 20 18

GFSNW_sfc_temp_075.txt.gz
Temp
51 51 51 51 50 50 45 38 29 44 51 32 34 29 36 43 42 48 46 47 46 43 44 42 43 43 43 48 48 41 43 38 32 40 50 51 47 41 41 34 36 41 38 38
50 50 50 50 50 50 41 34 34 45 44 27 29 35 37 40 40 42 44 44 48 48 43 38 44 44 48 48 45 40 41 36 30 36 44 51 43 45 45 42 41 35 33 39
50 50 50 50 50 49 41 33 27 34 34 34 33 32 34 36 46 44 46 46 48 45 42 45 41 44 47 48 46 46 44 38 34 30 35 37 35 41 46 42 35 38 40 48
50 50 50 50 49 49 41 33 31 35 21 30 32 35 34 34 37 46 48 43 44 42 37 40 39 44 44 47 46 44 41 31 37 39 42 41 41 39 40 42 41 37 44 49
49 50 50 50 49 46 38 32 32 37 33 35 33 35 35 34 37 39 39 41 44 43 38 41 39 43 41 41 42 42 41 32 35 35 44 40 37 41 41 43 44 44 46 45
49 49 49 50 49 45 35 38 40 35 34 35 31 32 35 38 43 44 46 40 38 37 41 43 44 44 44 44 42 37 38 34 31 28 38 36 32 40 41 44 47 46 40 47
49 50 49 49 50 48 39 40 36 30 25 31 34 38 39 35 39 38 45 46 40 44 50 48 47 45 46 43 43 45 38 35 33 28 33 27 40 51 49 45 47 50 50 53
49 49 49 49 49 50 40 39 35 32 24 33 35 38 40 41 41 39 41 45 42 44 43 35 33 32 35 39 44 42 43 37 30 27 28 36 42 43 42 44 39 45 45 50
48 48 48 47 49 50 42 41 40 36 30 29 41 35 38 33 34 36 40 42 44 41 37 31 26 24 32 32 38 46 44 41 34 31 27 26 39 45 50 50 35 46 48 47
48 48 48 48 49 49 44 39 42 37 32 36 38 33 33 36 35 32 38 38 40 39 30 25 24 26 40 30 31 32 34 35 30 29 28 34 49 49 52 33 35 47 49 50
48 48 48 48 48 49 44 40 42 38 32 36 41 42 37 38 37 32 35 35 37 34 26 27 28 27 35 35 35 37 33 30 28 30 28 27 50 47 39 44 48 49 48 49
48 48 48 48 48 48 48 37 45 44 37 35 43 44 46 44 43 39 35 35 35 38 34 32 32 31 33 36 29 42 33 38 34 36 35 47 50 47 51 51 48 48 48 49
47 48 48 49 48 48 47 42 41 39 34 36 37 37 46 51 50 47 35 38 41 39 43 38 36 32 36 29 33 36 43 49 41 41 44 46 48 50 50 51 49 50 48 47
48 48 48 49 49 48 48 41 42 41 35 25 33 49 43 50 50 48 46 44 45 43 41 36 34 33 41 34 37 35 36 44 39 34 35 40 42 47 47 47 48 47 46 43
48 48 48 48 49 49 47 44 44 46 39 30 33 40 47 50 49 47 47 45 43 37 35 36 34 40 38 38 39 32 37 33 33 32 37 36 37 43 46 43 43 42 41 39
48 48 48 49 48 48 41 33 42 46 45 34 28 41 42 46 48 45 44 43 39 38 38 37 39 45 39 33 31 34 36 42 41 37 43 41 41 41 44 41 39 38 36 35
48 48 48 48 48 44 38 36 41 46 44 34 30 32 42 47 46 41 41 42 40 39 37 37 38 40 41 33 28 31 33 38 41 43 44 37 37 35 41 41 39 37 34 32
48 48 48 48 47 45 40 45 46 47 39 38 30 31 35 45 35 35 42 39 39 39 38 38 37 39 35 25 29 32 34 38 37 40 42 41 40 39 36 38 37 32 29 28
48 48 47 43 41 37 41 48 48 46 40 32 32 30 29 42 38 39 39 39 32 39 34 35 38 30 23 27 28 29 32 32 33 38 36 36 34 34 33 32 31 28 27 27
46 43 37 32 39 47 46 39 36 35 38 38 33 36 30 38 35 33 34 34 33 31 33 38 28 24 30 31 31 31 31 32 32 28 28 30 29 27 26 26 27 26 24 23
40 36 35 42 48 41 37 31 32 32 30 33 35 35 33 39 33 32 34 33 32 28 32 32 28 23 25 29 28 29 30 30 29 29 27 27 27 25 24 23 23 23 22 20
41 41 43 41 38 35 31 30 31 31 27 31 32 35 38 37 39 33 33 31 32 28 35 31 20 23 26 26 25 25 26 26 25 26 24 25 24 24 23 23 21 21 20 19
44 40 34 35 32 27 23 23 23 28 33 34 34 33 35 36 38 33 32 29 27 30 27 17 19 23 25 25 25 24 25 24 24 23 23 22 21 21 19 17 16 16 16 17
35 29 17 26 27 26 26 27 29 31 33 33 33 33 33 33 32 32 29 29 30 24 17 16 18 18 19 21 24 22 19 19 18 15 16 15 15 15 15 15 13 13 13 14
29 28 20 21 25 23 29 31 31 32 33 33 31 31 33 31 29 31 28 27 23 19 11 15 19 20 20 17 19 19 17 15 15 13 14 12 12 13 14 12 13 13 12 10
29 25 24 26 26 25 28 30 29 32 32 33 31 32 29 28 28 24 18 22 14 12 14 19 17 16 15 19 20 16 15 15 14 13 14 14 11 11 12 12 11 8 9 7
26 21 24 27 21 23 26 28 30 33 32 31 29 25 25 28 21 16 19 13 16 19 20 19 16 14 13 15 17 18 19 20 20 18 16 13 13 14 15 14 12 14 14 10

GFSNW_sfc_temp_081.txt.gz
Temp
50 51 51 51 51 49 43 32 20 40 41 27 28 26 32 38 37 40 37 39 39 32 32 34 39 37 41 45 45 38 39 38 31 33 43 46 42 40 40 32 32 35 33 34
50 50 50 50 50 49 36 30 33 38 38 23 26 30 32 35 34 35 36 37 40 37 31 28 39 39 45 45 43 37 39 36 26 31 37 41 40 41 40 39 37 33 29 34
50 50 50 50 50 49 38 33 24 27 31 27 24 26 30 28 38 37 38 37 39 37 31 36 38 41 43 44 42 46 43 34 31 26 29 35 32 38 40 35 32 34 35 40
50 50 50 50 49 48 38 33 24 28 16 25 28 27 26 28 29 38 39 36 36 35 29 32 36 40 40 43 45 40 37 29 32 34 36 37 36 37 39 37 36 32 38 38
50 49 49 49 49 48 37 27 28 30 25 33 29 29 29 29 32 32 33 33 38 38 32 37 34 38 37 36 38 37 37 29 31 30 36 38 35 39 41 39 39 40 40 38
49 50 49 49 49 45 36 36 37 34 29 30 28 28 29 29 31 35 39 37 34 33 38 40 41 40 40 39 37 35 36 32 28 22 33 32 28 36 39 41 43 41 35 43
50 49 49 49 49 47 36 35 37 31 23 30 31 33 33 31 32 32 36 38 35 41 46 45 43 41 41 39 39 40 34 32 29 23 27 17 38 44 42 40 42 43 47 49
49 49 48 49 49 49 41 40 35 32 23 30 32 34 34 36 36 34 37 38 42 43 40 34 32 31 33 36 38 37 38 32 26 21 21 30 38 40 38 35 37 43 44 45
48 48 49 49 49 48 42 42 39 34 26 26 34 30 34 29 30 32 35 41 41 40 33 31 26 24 30 30 34 40 36 34 29 25 20 19 35 45 46 43 32 42 47 45
48 48 48 48 49 48 43 41 40 34 29 31 34 29 29 35 32 30 34 34 36 37 28 24 23 26 34 27 28 29 28 29 27 26 23 30 44 46 47 31 33 42 43 44
48 48 48 48 48 49 44 40 39 35 27 31 37 39 31 32 31 23 31 30 32 33 28 26 27 23 30 28 32 31 29 26 26 26 24 23 44 45 34 39 43 43 42 41
48 48 48 48 48 49 47 38 42 39 34 31 39 41 41 39 39 32 34 30 32 33 29 28 32 27 27 29 24 38 29 34 30 33 29 40 43 43 44 43 41 41 41 41
47 48 48 48 48 49 47 41 40 39 34 33 31 33 41 44 43 42 32 34 38 35 38 35 34 29 34 26 30 30 32 35 35 35 34 35 38 38 39 38 37 40 41 41
47 48 48 48 48 49 48 40 41 37 31 21 28 42 37 43 43 41 42 41 40 39 39 35 33 31 38 32 31 29 30 32 34 33 34 36 34 34 36 35 36 36 37 37
48 48 49 48 48 49 47 43 43 43 33 24 28 36 41 43 41 39 40 40 38 36 34 30 32 37 35 33 32 25 30 28 28 29 33 33 32 33 33 32 32 33 32 30
48 49 49 48 48 48 43 34 41 45 40 31 22 34 37 40 40 39 38 39 37 37 37 32 36 41 36 30 26 28 30 32 33 32 34 33 33 33 33 31 30 30 29 29
48 48 49 48 48 44 39 35 40 47 43 34 27 26 36 39 39 37 38 39 38 39 36 33 36 36 34 28 22 26 29 31 32 34 35 31 33 30 33 31 30 29 27 27
48 48 48 48 48 46 41 42 46 46 38 36 27 26 31 39 32 33 38 34 38 37 34 37 36 32 31 22 25 27 28 30 31 33 34 32 32 32 31 31 29 26 24 24
48 48 48 43 40 37 40 46 47 44 38 30 30 25 26 38 34 36 36 34 31 36 33 34 32 26 19 23 25 25 26 26 27 32 31 30 27 27 27 28 27 25 24 23
47 43 36 31 38 47 45 41 34 35 36 36 29 31 27 36 33 33 33 34 32 30 32 32 25 20 24 26 26 25 26 26 27 27 25 26 24 24 24 23 24 23 22 22
40 34 34 41 47 40 36 30 30 31 29 32 32 33 31 37 32 31 34 31 32 28 30 29 22 19 22 26 25 25 25 25 25 25 25 25 25 23 22 21 21 21 20 17
41 41 43 40 35 33 30 27 30 29 26 25 31 33 35 35 36 32 33 30 31 27 33 24 11 18 23 24 23 23 23 23 23 24 23 24 24 23 22 20 18 16 14 12
45 38 33 33 31 27 22 23 26 28 30 32 34 33 34 34 36 33 32 27 24 31 13 11 14 21 23 23 23 22 23 23 22 21 21 20 17 17 16 13 10 11 10 8
33 30 23 25 24 20 19 17 19 29 32 33 34 33 32 32 30 31 20 23 25 12 10 11 14 19 20 20 21 18 13 13 13 10 11 10 9 6 4 3 0 5 4 0
29 29 18 13 23 26 29 30 31 31 33 33 31 30 32 27 24 27 27 20 11 13 11 7 15 16 16 15 15 12 10 8 8 5 7 3 5 6 5 1 3 6 3 3
28 23 23 24 23 23 27 29 29 32 32 33 31 26 24 22 23 22 16 18 14 9 5 10 15 13 13 13 13 9 7 8 6 5 5 5 4 6 4 4 3 -1 1 -3
25 19 20 15 18 19 25 27 28 32 32 29 24 19 20 25 15 13 14 9 6 8 13 14 10 13 10 7 10 12 13 11 8 6 7 5 4 5 9 8 6 9 8 1

GFSNW_sfc_temp_084.txt.gz
Temp
50 50 50 50 50 49 41 31 22 37 39 27 27 19 30 37 34 38 35 35 34 32 32 31 30 32 37 42 42 36 40 37 29 34 41 43 41 38 40 32 29 33 29 30
50 50 50 50 50 48 34 29 28 36 36 12 18 30 31 34 32 33 33 33 37 36 32 27 32 33 42 43 40 39 40 34 27 31 36 39 38 40 39 36 36 32 30 32
50 50 50 50 50 49 36 27 23 26 33 25 23 25 27 28 36 33 36 34 36 34 32 34 30 32 39 44 43 45 43 33 31 27 29 33 28 36 39 37 28 29 33 35
50 50 50 50 49 49 37 29 22 27 19 23 24 29 27 26 26 35 37 33 32 32 28 31 31 34 37 42 44 39 37 30 31 32 35 35 34 34 36 34 36 31 35 36
50 49 49 49 49 48 37 26 29 31 23 28 26 28 26 27 29 30 30 30 34 36 30 34 31 33 38 37 38 36 37 28 30 29 34 35 32 36 36 36 37 37 38 37
49 49 49 49 49 46 35 37 38 32 28 27 22 25 27 28 30 34 35 36 33 32 36 40 41 41 40 39 35 33 34 29 26 20 30 30 27 33 36 37 41 40 35 42
49 49 49 49 49 46 37 34 36 28 21 26 29 32 34 30 31 29 36 37 34 38 42 43 40 38 38 38 38 38 32 32 28 24 27 14 34 40 40 37 40 43 43 44
49 49 48 48 49 49 40 35 33 31 22 29 30 32 32 33 33 31 33 35 38 41 37 32 31 30 31 34 36 35 36 31 25 20 21 28 34 38 36 33 35 42 39 43
48 48 48 48 49 49 42 41 39 33 24 26 33 30 32 29 29 31 35 41 41 39 32 30 26 22 29 29 31 37 34 34 29 25 20 15 32 41 45 43 30 38 42 44
48 48 48 48 49 49 43 40 42 36 27 30 32 28 29 34 32 29 32 33 33 36 27 24 22 25 32 27 28 29 28 30 27 25 25 28 38 41 46 30 31 35 37 35
48 48 48 48 48 48 44 40 42 37 30 29 35 36 30 32 30 24 31 30 31 31 28 27 26 24 29 28 32 31 29 27 27 29 25 21 40 42 36 38 37 34 34 33
47 48 48 48 48 48 46 38 43 41 33 30 36 38 39 38 37 32 33 31 32 33 31 30 33 28 27 28 23 35 27 31 28 31 29 36 36 36 37 37 34 36 34 34
47 48 48 48 48 48 47 40 39 39 35 34 30 33 40 41 40 41 30 34 38 35 37 34 33 29 33 27 26 28 29 34 30 33 33 32 34 35 34 34 32 34 34 33
47 47 47 48 48 49 48 39 39 37 32 26 27 40 35 41 41 39 40 39 41 38 37 34 32 29 37 31 29 24 27 30 28 32 34 34 31 32 32 31 32 30 31 31
47 48 48 48 48 48 46 42 43 42 35 23 27 34 39 41 38 37 38 38 37 33 29 33 28 34 35 33 31 22 28 26 25 26 32 31 29 30 31 29 28 30 29 28
47 48 48 49 48 48 43 33 41 45 42 32 21 32 34 38 37 36 35 35 35 34 35 34 34 39 35 29 24 26 28 30 32 31 32 31 30 29 29 27 27 28 27 27
47 48 49 49 48 44 38 36 39 46 42 33 27 25 34 37 37 34 34 37 36 33 36 31 33 34 34 27 21 26 27 30 31 31 34 30 29 27 30 29 28 27 25 25
47 48 49 48 47 46 41 41 46 45 37 36 27 25 28 38 30 31 34 32 34 35 34 33 34 32 30 22 25 26 27 29 30 30 31 30 30 30 29 29 28 24 23 22
48 48 48 44 40 37 40 46 47 43 38 29 29 26 21 38 35 36 35 36 27 34 32 34 32 25 18 23 24 24 25 25 25 29 29 28 26 25 25 26 26 24 22 22
48 43 36 30 37 46 45 39 33 34 34 36 24 28 26 35 33 32 29 33 32 30 33 31 24 17 24 25 25 25 25 24 26 27 24 25 23 23 23 22 23 22 21 20
40 34 33 41 46 39 35 30 30 30 29 33 32 29 26 37 31 30 33 31 32 28 31 29 22 16 22 25 24 24 24 25 24 25 24 24 24 23 22 20 20 19 18 15
41 40 42 40 35 32 30 27 29 28 26 29 29 30 32 35 35 32 33 29 31 25 31 24 13 18 24 23 23 22 23 23 22 23 22 22 22 21 20 18 16 14 12 10
43 38 32 33 31 26 20 21 25 24 23 30 33 32 33 34 35 32 32 28 27 30 17 14 13 20 22 21 22 22 23 22 21 19 19 18 15 15 14 11 8 9 8 5
34 30 24 26 23 20 22 24 21 25 32 32 34 32 32 32 31 31 20 24 29 20 13 13 15 17 18 19 20 17 12 12 12 9 10 9 7 4 3 1 -1 3 1 -3
29 28 22 16 21 23 29 31 31 31 33 34 32 31 32 26 24 25 26 23 20 15 12 7 12 16 16 13 13 10 7 5 7 4 5 1 4 5 3 -0 0 3 -1 -2
28 22 18 23 22 25 27 29 29 32 32 33 30 25 21 20 23 23 19 17 13 9 3 8 14 12 12 12 13 11 9 7 4 2 4 4 2 4 2 1 -0 -3 -2 -4
23 17 20 16 17 23 25 27 28 31 32 26 23 19 21 25 17 15 15 11 7 6 10 11 11 13 11 8 8 9 10 9 6 4 5 4 2 3 8 8 5 8 7 -1

GFSNW_sfc_temp_087.txt.gz
Temp
50 50 50 50 50 48 41 33 24 40 41 28 29 25 30 35 35 38 35 35 33 30 32 30 30 29 34 37 40 41 43 40 34 37 45 47 45 41 41 31 30 33 33 37
49 49 49 49 50 48 35 30 30 39 38 20 23 30 31 34 32 33 33 33 36 37 31 25 33 33 41 36 36 41 44 37 32 32 39 43 40 38 37 36 35 32 29 38
49 49 50 50 49 47 36 28 21 30 35 29 27 25 27 28 37 34 35 34 36 33 30 35 30 31 36 36 41 44 45 37 35 32 33 37 33 38 41 38 32 34 35 38
50 50 50 50 49 48 36 29 24 29 21 27 28 26 26 26 26 35 36 32 32 32 28 31 30 33 33 37 41 42 42 34 36 37 38 38 37 37 39 36 38 32 38 39
49 49 49 49 49 48 35 29 29 32 30 28 23 27 25 27 29 29 30 28 33 34 29 33 30 33 34 35 40 39 41 32 34 34 37 37 35 39 40 39 39 39 40 39
49 49 49 49 48 45 36 37 38 32 29 29 25 25 27 28 30 34 37 32 31 32 35 39 40 41 39 39 38 37 36 34 31 28 34 35 30 36 39 41 43 42 35 44
49 49 49 49 48 46 39 36 36 29 24 28 29 31 32 31 30 27 32 35 32 39 43 42 40 40 40 40 41 41 35 34 32 28 30 22 38 45 43 40 42 43 41 42
49 49 49 48 48 48 40 38 35 31 25 30 30 31 31 32 32 31 32 33 36 39 38 34 33 33 36 38 39 38 39 35 29 26 27 33 38 41 40 37 37 36 35 37
48 48 48 48 48 49 42 41 40 35 27 28 33 30 32 29 29 31 33 39 41 36 34 33 28 26 31 31 34 38 38 38 33 28 23 21 35 41 46 44 31 35 34 33
48 48 48 48 48 48 44 41 42 36 28 33 33 30 30 35 32 29 33 33 33 39 33 30 27 28 34 29 30 30 30 31 28 28 26 32 35 40 46 31 30 35 33 31
48 48 48 48 48 48 43 41 41 36 30 32 36 37 33 34 33 27 33 32 34 33 30 30 29 28 31 30 33 32 32 29 29 31 26 24 36 42 33 36 35 34 32 31
47 48 47 48 48 48 46 39 42 41 34 34 38 40 42 39 39 34 34 32 33 33 30 32 33 30 31 29 27 36 29 30 28 32 30 33 34 32 33 34 33 33 32 32
47 47 48 48 48 48 46 40 40 37 34 35 34 34 40 42 42 44 33 36 39 37 38 33 33 30 33 29 26 28 28 33 30 29 30 30 32 33 32 32 30 31 32 31
47 47 48 48 48 48 46 40 41 39 33 27 31 41 38 43 42 41 42 41 43 41 39 33 32 29 37 30 29 27 28 30 27 30 31 32 30 30 30 30 30 29 29 29
47 47 48 48 48 49 45 42 42 42 37 27 30 37 41 42 40 38 39 38 38 36 33 33 32 35 35 33 31 24 29 26 26 25 30 28 26 28 29 27 27 28 28 26
47 47 48 48 48 48 42 33 41 44 42 33 25 36 37 40 39 37 37 37 37 36 35 35 37 39 35 29 24 27 29 31 30 30 30 28 28 28 28 26 25 25 26 26
47 47 48 48 48 44 38 36 40 46 42 33 28 29 37 40 38 37 36 38 37 37 36 34 35 33 33 28 23 25 27 30 30 32 32 27 28 25 27 26 26 27 25 25
47 47 47 48 47 45 41 43 46 44 38 35 28 28 31 41 34 34 37 33 37 37 36 36 35 32 31 22 24 26 26 29 29 28 30 29 29 29 28 29 28 24 23 23
47 47 47 44 41 37 40 46 46 44 38 30 30 26 24 39 36 37 36 37 30 36 33 34 33 27 20 23 25 24 25 25 25 29 29 28 26 26 27 27 26 23 22 22
47 43 37 31 37 46 44 39 34 34 34 35 28 31 27 35 34 32 32 34 33 29 33 31 27 20 24 25 25 26 25 26 29 28 25 26 24 24 23 23 23 22 21 20
40 35 34 40 46 39 34 30 30 31 29 32 33 30 29 38 32 32 33 32 32 28 31 30 25 20 23 26 24 25 26 26 26 26 26 26 26 24 22 21 20 19 18 16
40 40 42 40 35 33 30 28 29 29 28 31 30 32 34 35 38 33 33 31 31 27 32 28 22 21 24 24 23 23 24 24 23 24 23 23 23 23 21 19 17 15 14 12
42 37 33 33 32 27 23 19 25 24 28 27 32 31 33 35 36 33 33 29 28 31 25 23 19 23 24 23 23 22 23 22 21 20 20 19 17 17 16 12 11 12 9 9
34 31 26 27 24 25 23 25 27 29 29 31 33 33 33 33 31 32 27 28 30 24 21 22 20 21 21 21 22 19 14 14 14 13 13 11 10 7 7 7 8 9 7 5
30 30 22 20 23 23 28 28 31 32 33 34 33 33 33 29 28 29 27 26 24 25 23 18 19 19 17 15 15 13 11 10 10 11 10 9 9 9 8 6 9 8 6 6
29 25 18 21 24 27 29 29 30 33 33 34 33 29 28 26 25 26 26 23 20 21 15 14 17 14 14 14 15 12 12 12 11 11 11 11 10 11 10 9 8 6 8 6
23 15 13 16 18 23 26 29 29 32 33 30 28 23 26 27 21 20 20 19 17 13 14 17 16 15 14 12 13 13 14 13 13 12 13 11 10 11 15 15 14 14 12 8

GFSNW_sfc_temp_090.txt.gz
Temp
50 50 50 50 49 48 49 47 37 50 51 39 39 36 36 39 40 43 40 39 38 35 36 34 34 33 39 42 37 33 50 46 39 42 49 55 52 48 47 39 34 41 36 44
50 50 50 50 49 48 51 42 45 51 48 31 36 38 37 39 38 39 38 37 41 42 36 29 35 37 44 41 34 35 50 45 36 37 44 49 46 44 45 43 43 37 34 46
50 50 50 50 49 47 52 40 33 44 46 38 31 31 34 34 42 39 40 38 41 38 36 40 32 35 37 36 34 37 44 45 43 39 40 45 39 44 47 44 37 42 43 47
50 50 50 50 49 48 51 40 35 37 33 37 34 32 31 32 32 39 41 37 36 34 30 35 34 36 33 35 39 45 48 40 44 45 46 46 45 44 46 43 44 38 46 46
50 50 49 49 49 47 47 34 41 37 36 35 29 32 31 31 33 31 34 32 37 36 32 37 30 33 34 34 39 37 47 38 41 39 43 44 40 44 46 46 46 46 47 46
49 50 49 49 49 49 45 46 44 41 36 36 33 34 32 31 31 37 37 32 32 34 39 44 44 44 43 41 36 36 41 40 38 32 41 40 36 42 44 46 48 47 41 47
50 49 49 49 48 48 52 49 45 36 35 38 36 36 37 33 31 29 35 36 33 38 44 46 46 44 44 44 44 44 40 40 39 34 36 25 43 50 48 45 45 41 41 45
49 49 49 49 49 48 49 49 44 39 31 38 38 37 36 36 36 31 31 35 36 38 39 34 35 37 39 41 43 44 46 42 36 32 33 39 42 44 44 41 37 36 37 40
49 49 48 48 49 49 46 44 47 39 34 40 39 37 37 35 32 35 33 43 41 37 37 38 32 30 35 35 38 45 42 44 38 35 25 25 38 46 51 50 32 35 38 35
48 48 48 48 48 49 45 42 43 38 33 44 41 38 35 40 37 34 39 37 40 46 40 36 33 34 39 34 34 35 37 34 33 34 32 38 39 43 50 33 30 34 36 32
48 48 48 48 48 48 46 42 44 39 33 42 43 44 40 41 40 33 39 39 40 38 34 35 36 35 37 36 37 35 35 32 34 34 30 27 35 44 34 32 34 34 32 31
48 48 48 48 48 48 48 41 45 42 36 41 45 47 49 47 46 40 40 37 37 37 36 36 35 35 38 35 32 40 31 32 31 29 27 32 34 33 34 35 32 33 32 32
47 47 48 48 48 48 48 46 41 38 35 37 44 46 50 50 49 51 38 45 44 40 44 37 35 32 38 32 31 33 32 37 34 32 31 31 34 35 35 33 30 31 32 30
47 47 48 48 48 49 48 44 44 42 42 34 43 50 47 52 51 49 48 47 47 45 42 38 36 33 38 33 34 34 31 32 30 30 32 34 31 30 30 30 31 29 29 29
47 47 48 48 48 48 49 46 45 50 44 37 41 48 48 49 49 47 47 45 42 41 39 38 37 40 36 35 39 30 32 28 29 28 31 30 27 29 30 28 27 29 28 28
47 47 48 48 47 47 44 34 44 47 46 39 34 46 45 47 47 46 44 44 43 42 39 39 43 42 35 32 30 29 31 31 31 30 31 30 29 29 29 27 26 27 27 27
46 47 47 48 47 46 40 42 49 49 48 36 32 40 46 46 46 47 45 44 45 43 40 38 40 36 36 32 28 28 30 30 31 33 33 28 29 27 29 28 28 29 30 30
47 47 47 47 48 46 41 48 47 48 39 39 30 35 40 46 41 40 46 40 42 41 39 39 37 36 34 25 26 27 29 30 30 30 33 31 32 33 32 33 32 29 27 27
47 47 47 44 41 37 41 46 47 47 41 36 33 31 32 41 40 43 40 41 34 44 36 36 36 34 27 26 26 26 28 28 29 31 34 34 32 31 32 32 31 28 27 27
47 44 38 32 39 46 44 39 36 35 37 36 33 42 35 42 36 37 38 37 35 30 36 38 35 26 28 29 30 30 31 32 34 31 28 30 29 29 28 28 29 28 26 25
41 35 35 41 46 39 36 32 32 34 31 36 36 39 37 44 34 36 37 35 37 30 34 32 32 28 27 30 29 31 31 32 33 33 32 32 31 28 26 25 25 25 23 21
40 42 43 42 37 35 32 31 33 32 33 38 35 35 40 38 40 37 36 32 34 29 35 32 30 26 29 30 28 29 30 30 30 31 29 29 28 28 27 25 22 20 18 16
43 40 34 34 34 29 28 24 29 31 36 36 35 32 39 37 40 36 34 31 31 37 31 32 28 28 29 28 28 27 28 28 27 26 26 26 24 23 21 17 16 17 14 14
35 33 28 30 28 31 33 34 35 37 36 36 37 36 37 38 32 34 30 32 35 28 27 29 27 26 26 27 27 26 22 22 21 20 19 17 16 14 15 15 15 15 13 13
35 35 29 28 34 33 33 34 34 35 39 38 37 35 37 33 32 33 31 28 27 30 31 29 28 26 24 22 21 19 17 17 18 18 16 15 15 15 14 15 16 15 13 13
32 31 28 29 31 30 32 32 32 36 36 40 42 33 31 31 33 29 28 28 28 30 28 28 26 22 21 21 20 19 19 19 18 18 18 17 16 17 17 16 16 15 15 14
28 28 28 30 32 33 32 33 34 35 36 33 36 29 30 31 30 27 31 30 28 25 26 27 26 22 20 19 18 18 19 19 19 19 19 18 18 18 20 20 19 20 18 16

GFSNW_sfc_temp_093.txt.gz
Temp
50 50 51 50 50 49 47 54 42 57 57 45 48 41 41 43 45 49 45 44 41 38 39 37 37 37 42 43 42 34 43 40 37 46 56 60 55 50 49 40 38 45 42 43
50 50 50 50 50 49 57 52 52 57 54 36 41 43 42 44 43 44 43 40 43 43 39 32 39 41 48 46 37 36 36 36 33 33 44 52 49 52 54 48 47 40 38 45
50 50 50 50 50 49 52 47 36 49 53 44 38 36 38 39 47 44 45 43 45 41 37 43 38 40 44 41 35 39 37 34 38 34 43 47 41 45 49 47 40 43 45 50
50 50 50 50 49 49 50 47 40 45 38 40 39 37 35 36 35 43 45 40 40 36 32 37 38 39 35 39 38 37 36 40 45 46 50 51 48 47 49 45 47 42 48 49
50 50 50 50 49 49 50 38 46 46 41 40 33 36 34 35 36 36 37 35 39 39 35 39 33 37 38 34 39 35 40 39 47 44 50 50 45 48 49 49 49 50 50 50
50 50 50 49 49 48 47 54 52 49 40 42 39 39 36 35 33 40 41 37 34 37 41 45 46 47 45 42 36 35 39 45 44 35 46 45 38 45 47 49 51 47 41 47
50 50 50 49 49 49 50 54 53 41 40 44 43 41 42 38 36 30 38 40 36 41 47 46 49 47 46 46 44 45 38 43 43 34 39 29 44 54 53 47 45 47 46 47
49 50 49 49 49 49 50 55 48 41 35 45 43 42 42 44 41 34 33 39 39 43 37 34 37 39 41 42 46 46 49 43 37 35 38 42 45 47 46 44 35 40 40 42
49 49 49 49 49 49 49 54 55 47 37 44 45 42 45 41 37 38 35 46 47 39 36 35 31 32 38 37 40 48 47 48 41 39 33 29 37 47 52 49 29 36 38 36
49 49 49 49 49 49 48 49 48 41 38 49 46 42 40 46 43 41 44 42 44 50 38 36 35 36 44 36 35 37 40 40 36 36 37 36 39 47 50 32 27 36 36 32
49 49 49 49 49 49 49 46 50 44 40 46 49 50 44 46 46 39 44 43 44 41 35 36 38 37 41 39 41 37 36 32 35 37 34 28 38 45 32 31 34 35 34 31
48 48 48 49 49 49 49 42 50 46 37 45 50 51 52 50 50 45 45 41 41 40 36 37 38 37 39 39 31 44 33 34 31 32 29 34 36 34 35 36 33 33 34 33
48 48 48 48 49 49 49 45 44 40 36 42 48 50 55 56 54 55 43 49 47 43 46 38 39 35 42 32 33 34 34 41 34 33 32 33 35 36 35 34 31 32 32 31
48 48 48 48 48 49 48 46 49 48 42 35 47 56 52 57 56 54 53 50 51 49 49 40 39 35 42 34 38 34 33 35 34 31 33 34 32 31 32 32 31 30 30 30
47 48 48 48 48 49 50 49 52 50 42 36 44 53 54 55 54 52 52 50 48 47 39 37 37 39 37 40 42 32 33 28 29 28 32 31 28 30 32 29 29 31 31 29
47 48 48 48 48 48 45 35 51 53 48 39 33 52 50 52 52 50 50 51 49 45 40 40 43 44 41 33 31 29 32 32 33 31 33 31 30 31 31 29 28 29 29 29
47 47 47 48 48 46 42 43 46 50 49 41 35 42 50 51 51 52 51 50 50 47 44 41 42 39 41 34 30 29 31 32 33 36 36 31 31 28 30 30 30 31 32 33
47 47 47 48 47 45 41 49 50 51 45 47 32 38 43 50 40 39 51 45 43 43 44 46 39 40 35 28 28 30 31 31 32 34 34 33 34 34 35 36 35 31 29 29
47 47 47 44 42 38 42 47 48 51 43 35 35 33 34 49 43 44 46 47 36 48 40 42 43 37 28 28 29 29 30 31 30 34 39 38 36 36 36 36 34 31 29 29
47 45 37 32 39 46 45 40 37 37 38 41 36 45 38 46 42 41 41 44 38 34 39 45 37 28 32 31 31 34 35 36 37 34 32 34 32 32 32 31 32 31 30 28
40 35 34 41 46 41 38 33 33 34 32 40 38 41 38 50 37 35 46 36 40 32 37 36 34 29 30 34 33 35 37 38 37 38 37 36 34 31 30 29 29 28 26 23
40 41 43 41 36 36 33 33 36 34 36 40 37 37 43 43 47 38 40 35 36 30 41 34 30 28 33 34 33 34 35 35 34 36 34 34 33 33 31 29 25 22 19 18
43 40 35 34 34 30 29 26 31 33 40 40 38 34 41 41 43 38 38 30 32 42 32 33 30 32 34 34 33 32 33 33 32 31 32 31 29 27 24 20 19 19 17 18
35 34 30 31 29 33 36 37 37 41 40 40 38 37 39 40 36 35 30 35 37 30 29 30 31 30 30 31 32 31 27 27 26 25 23 21 19 18 18 18 18 18 16 16
34 36 31 31 37 36 35 36 36 40 43 40 37 41 40 37 33 36 34 30 29 32 32 31 31 30 28 27 27 24 23 22 22 22 20 18 18 18 18 19 20 18 17 16
36 36 31 32 33 32 33 34 34 39 40 42 42 34 32 32 34 31 30 30 31 31 30 30 29 27 27 25 24 23 23 24 23 22 21 20 19 20 21 20 19 18 18 17
32 31 31 34 33 34 34 35 37 41 39 35 40 30 31 37 32 31 37 32 30 29 28 30 29 27 25 24 23 22 23 23 24 23 23 22 22 21 21 22 22 22 22 19

GFSNW_sfc_temp_096.txt.gz
Temp
51 51 51 50 50 50 48 51 40 56 58 42 46 41 43 44 46 50 47 46 42 38 38 36 36 36 43 48 46 36 42 34 31 37 50 52 56 48 45 36 37 44 38 34
50 50 50 50 50 50 50 48 49 57 54 35 40 45 44 46 45 46 45 42 44 45 39 32 39 41 49 44 40 36 36 34 28 33 41 53 50 52 50 44 46 35 33 34
50 50 50 50 50 50 48 46 36 48 51 46 40 38 40 40 49 46 46 43 45 40 36 40 35 39 46 44 40 43 37 32 29 26 36 48 44 49 47 44 37 38 39 38
50 50 50 50 50 50 47 46 40 46 37 41 41 39 37 37 36 44 45 41 42 38 33 36 37 39 37 41 42 38 35 30 32 33 35 46 42 42 39 39 44 39 44 43
50 50 50 50 50 49 48 38 43 48 42 42 37 39 37 37 38 37 36 35 39 38 33 37 34 38 37 33 40 36 37 33 35 32 42 46 38 38 41 48 47 48 48 46
50 50 50 49 49 49 47 53 53 47 43 42 40 39 39 38 38 40 43 39 36 36 37 41 41 43 44 43 38 35 34 33 39 35 47 46 37 45 48 44 43 43 35 40
50 50 49 49 49 49 48 51 51 43 39 44 44 44 45 42 40 31 39 42 37 44 47 44 46 45 45 44 43 46 34 35 43 35 40 27 42 52 49 39 38 39 40 40
50 50 49 49 49 49 49 51 48 43 36 46 46 44 44 46 43 38 35 42 44 46 40 35 36 35 36 42 47 46 45 43 39 35 32 35 39 43 42 40 31 36 35 36
49 49 49 49 49 49 50 50 52 45 38 40 47 44 45 41 40 43 40 50 53 42 35 33 29 31 34 31 39 49 49 48 42 40 33 27 32 40 49 48 26 35 34 31
49 49 49 49 49 49 49 47 52 47 37 48 47 41 40 47 44 41 45 44 45 49 36 32 31 34 43 30 33 35 38 39 35 35 33 31 34 42 49 30 26 33 33 31
49 49 49 49 49 49 49 45 53 46 38 45 49 49 44 46 45 37 43 42 43 39 34 35 34 34 37 36 39 36 32 29 30 34 29 25 35 40 30 31 34 34 32 31
48 48 48 49 49 49 49 44 50 50 41 44 48 49 52 51 49 44 44 41 40 39 35 36 36 34 37 34 29 41 29 33 30 30 27 33 34 31 33 35 32 32 31 31
48 48 48 48 49 49 49 45 46 44 37 43 48 49 55 58 56 56 41 45 47 44 47 39 37 32 39 30 31 34 36 40 33 32 31 31 33 34 33 32 30 31 31 30
48 48 48 48 48 49 48 44 47 48 45 35 44 58 54 59 57 55 53 49 51 50 48 40 37 34 43 35 35 32 33 36 33 30 32 32 31 31 31 31 31 30 30 30
48 48 48 48 48 49 50 49 47 50 43 35 41 51 56 57 55 53 53 50 48 45 41 39 37 38 39 39 38 28 33 27 28 26 31 30 27 30 31 29 29 30 30 29
48 48 48 48 48 48 46 35 51 52 51 39 32 51 51 54 54 52 51 51 48 47 42 40 44 44 40 33 29 30 32 32 34 30 32 30 30 30 32 29 29 30 30 31
47 48 48 48 48 47 40 40 42 50 49 39 35 40 51 53 53 52 50 51 49 46 44 42 42 40 41 33 28 30 31 33 34 35 34 29 30 28 32 32 32 32 32 31
47 47 47 48 48 45 42 48 50 51 45 44 32 36 43 52 44 42 51 45 46 44 43 45 41 39 35 26 29 31 31 31 33 33 35 33 35 37 36 36 34 30 28 28
47 47 47 45 42 37 41 49 49 50 42 35 35 31 31 50 45 46 43 45 35 45 38 40 42 37 27 28 29 30 31 31 31 39 39 39 36 36 36 35 33 30 29 29
47 46 38 32 38 46 46 41 37 39 41 41 35 44 36 46 42 40 40 42 39 34 39 45 36 27 31 32 31 32 35 37 38 34 33 34 32 32 31 31 31 30 28 25
42 35 34 41 46 42 39 33 32 36 32 39 39 41 38 49 37 38 44 37 39 32 36 36 33 28 30 34 34 37 38 39 38 38 37 36 34 31 29 28 28 26 24 20
40 40 42 41 37 34 32 32 37 35 35 40 37 38 44 43 48 39 40 35 37 30 41 35 31 29 34 34 33 35 36 36 35 36 34 34 33 32 30 27 23 19 18 16
42 38 34 33 34 28 29 26 31 33 41 42 39 35 41 43 46 37 35 30 31 40 32 32 28 32 34 33 33 32 34 34 33 31 31 29 26 25 22 18 17 18 16 16
34 33 29 31 29 33 36 37 37 42 41 40 39 38 38 41 36 35 30 34 36 30 29 29 30 31 32 33 33 31 27 26 25 23 22 20 18 17 17 17 16 15 13 13
33 33 30 31 37 36 34 36 37 41 43 40 39 39 40 35 32 35 34 31 29 32 31 30 31 30 29 28 26 25 23 22 22 21 19 18 18 17 17 17 18 17 14 14
34 34 32 34 34 32 33 34 34 41 41 43 42 35 32 32 34 31 31 30 30 30 29 29 30 28 28 26 25 24 24 24 22 21 20 19 17 18 19 19 18 16 17 14
33 32 33 34 34 34 33 35 37 43 40 33 38 30 31 36 32 30 36 31 30 29 28 30 29 27 25 24 24 24 24 24 24 23 22 22 22 20 21 20 20 21 21 17

GFSNW_sfc_temp_102.txt.gz
Temp
50 50 50 50 50 50 46 39 32 46 48 34 34 30 41 45 44 46 42 40 38 33 32 30 30 30 35 41 38 31 34 29 24 30 41 45 42 36 37 26 31 34 30 28
50 50 50 50 50 50 41 37 37 46 45 25 27 39 42 45 41 40 39 37 38 37 31 25 31 33 41 41 36 33 35 27 21 25 36 41 36 37 38 38 34 32 28 28
50 50 50 50 50 50 42 36 27 35 38 35 34 32 35 36 43 41 40 38 38 33 30 34 28 31 38 40 37 44 38 29 26 22 31 36 32 34 37 38 30 29 27 28
50 50 50 50 50 49 41 33 30 38 27 30 33 33 34 33 33 39 39 35 35 31 27 29 28 32 30 35 40 39 34 28 30 30 33 34 34 34 34 33 33 29 27 27
50 50 50 49 49 49 38 31 34 37 32 35 31 33 32 32 35 33 32 31 34 32 28 30 26 31 30 30 36 34 36 28 31 28 34 34 31 33 33 33 32 31 30 28
50 49 49 49 49 47 38 40 41 36 35 32 29 29 34 33 32 36 38 35 32 32 36 39 38 37 37 37 32 31 31 30 30 27 33 33 27 28 29 29 31 31 25 29
50 49 49 49 49 47 40 39 38 31 28 32 34 39 38 36 34 24 38 37 34 38 44 43 41 36 36 35 36 38 31 31 32 28 31 20 28 33 34 29 29 31 30 31
49 49 49 49 49 49 40 39 37 32 27 35 38 39 37 38 35 29 29 37 40 41 38 32 30 32 33 37 37 37 36 33 30 28 26 27 31 31 28 29 24 29 28 29
49 49 49 49 49 49 41 39 40 36 29 30 40 35 36 30 26 30 34 41 41 37 34 31 25 26 30 29 34 43 38 38 31 30 24 20 26 30 36 36 18 29 29 26
49 49 49 49 49 49 41 39 41 36 27 34 37 31 31 36 31 28 32 34 36 37 27 24 24 27 34 26 27 28 30 30 25 27 24 26 27 32 39 20 20 29 27 25
48 48 48 49 49 49 42 38 41 36 25 32 39 41 33 33 31 23 32 31 32 30 25 27 26 28 30 29 31 30 27 24 23 25 22 20 28 32 25 27 29 28 26 24
48 48 48 48 48 49 46 36 41 41 32 32 38 40 42 41 40 33 32 34 31 29 27 29 29 27 29 28 24 35 24 28 24 25 22 28 29 27 29 31 28 28 26 25
48 48 48 48 48 48 45 39 39 35 30 30 34 37 43 46 43 43 33 35 38 36 38 31 31 30 30 27 23 27 28 33 25 25 25 27 29 29 29 29 28 27 27 26
47 48 48 48 48 48 45 36 37 37 33 25 32 48 43 49 46 44 42 40 40 38 35 31 31 30 35 28 28 23 27 28 27 24 26 27 27 28 29 28 27 27 27 26
48 48 48 48 48 48 42 38 39 42 35 26 29 38 45 49 46 45 43 41 37 32 30 28 31 34 34 31 29 23 29 25 22 21 26 25 25 27 29 27 27 28 26 25
47 48 48 48 48 46 38 29 39 41 44 29 22 36 40 44 45 43 41 39 36 33 31 30 33 39 31 26 22 28 30 28 31 23 27 26 26 27 28 26 26 27 26 26
47 47 48 47 47 41 37 35 41 46 44 32 27 28 41 47 43 39 38 39 36 34 31 30 35 33 31 19 12 28 31 28 28 29 29 25 25 25 28 27 27 28 26 26
47 47 47 47 47 44 37 41 46 46 40 35 22 26 31 42 32 32 36 33 33 33 31 32 32 30 23 16 24 26 28 29 30 30 31 28 28 30 29 30 28 25 23 23
47 47 46 40 37 32 36 47 47 43 39 30 26 21 23 38 34 33 33 33 23 32 27 30 34 30 20 19 24 23 28 28 27 31 31 30 30 29 29 27 26 23 21 21
47 41 36 30 37 46 46 39 33 34 36 36 26 29 25 36 27 27 28 29 25 26 29 33 27 24 28 30 30 31 32 33 33 30 28 29 27 26 25 24 24 22 20 20
38 34 33 40 45 40 36 29 30 27 28 30 30 34 23 35 26 26 30 24 26 23 29 30 27 22 26 30 30 32 34 34 33 34 31 30 27 24 22 22 22 21 19 15
39 39 41 40 35 32 30 27 26 27 25 28 32 27 32 32 35 27 29 26 25 22 33 30 24 23 28 29 29 29 31 30 29 30 28 27 26 24 22 21 18 15 13 7
41 37 33 32 31 25 24 18 23 17 25 29 26 24 32 30 32 25 26 27 19 32 27 26 23 26 28 27 27 25 26 26 25 24 24 23 21 20 16 12 7 8 6 2
33 31 25 26 23 26 22 21 20 26 25 28 25 25 27 25 26 25 27 26 31 25 18 21 22 25 26 27 27 24 20 18 18 15 15 13 11 7 4 5 3 4 0 -2
30 31 22 24 27 31 32 33 28 27 27 27 27 26 27 23 28 31 30 25 24 21 18 22 24 26 23 22 21 17 15 14 13 12 11 8 7 7 3 -1 0 2 -2 -2
31 31 29 31 31 30 31 32 32 34 29 27 28 25 20 21 22 27 22 22 17 23 25 24 25 23 19 19 19 18 16 14 11 10 9 9 7 9 7 2 2 -1 -0 -1
29 30 29 31 31 30 31 32 34 33 28 28 25 22 22 28 25 23 23 18 23 25 25 26 26 23 16 15 16 16 15 13 12 10 10 7 5 7 10 10 8 9 12 5

GFSNW_sfc_temp_105.txt.gz
Temp
50 49 49 50 50 50 46 40 31 45 47 33 34 30 40 45 44 46 42 40 36 32 32 29 29 29 34 40 36 29 34 25 23 28 39 42 39 34 33 27 26 32 29 23
48 48 49 49 50 50 41 35 36 45 44 26 28 38 41 42 40 39 37 36 36 36 31 25 30 31 39 38 34 32 33 27 18 25 34 38 33 34 34 36 34 29 25 23
48 49 49 50 50 50 42 35 27 35 38 34 34 33 34 35 41 38 38 36 36 32 29 32 27 30 35 37 35 43 37 27 24 20 28 35 28 31 33 33 29 27 26 24
50 50 50 50 50 50 42 35 30 37 27 31 33 33 34 33 32 38 37 34 33 31 26 28 27 30 29 33 38 36 34 26 29 30 32 32 30 31 32 31 33 26 25 24
49 49 49 50 50 49 39 33 34 35 31 34 31 33 31 32 34 33 32 31 33 31 27 30 25 30 29 27 33 34 34 25 29 26 33 31 27 28 30 29 30 29 27 23
49 49 49 49 49 48 37 38 40 37 35 32 29 29 33 33 32 36 38 34 30 29 33 37 38 39 37 37 32 30 30 27 27 26 31 30 20 25 26 27 28 30 25 25
49 49 49 49 49 47 40 38 38 31 27 32 33 37 37 34 33 26 36 35 33 38 41 39 38 36 36 36 35 35 29 29 29 27 29 17 26 31 30 26 27 28 28 27
49 49 49 49 49 48 40 38 38 34 27 34 37 37 36 36 33 29 28 36 39 38 34 32 28 28 31 33 35 36 35 31 29 27 24 26 29 28 27 27 23 27 26 27
49 49 49 49 49 49 41 38 39 36 31 30 38 34 35 29 26 30 33 38 39 36 32 30 24 25 27 28 32 38 37 34 31 28 24 19 24 28 34 34 16 27 26 25
48 48 49 49 49 49 41 38 39 36 29 34 36 31 31 33 30 27 30 33 34 34 26 27 25 26 32 24 24 27 29 29 25 27 24 24 25 29 36 19 19 26 26 23
48 48 48 49 49 48 41 37 40 36 28 33 38 39 32 32 30 23 31 28 30 28 25 27 25 25 28 27 30 28 25 23 22 25 23 19 27 30 25 26 28 26 24 22
48 48 48 48 49 48 44 36 40 39 33 33 36 38 39 38 38 31 33 30 30 27 26 29 29 25 26 24 18 32 23 25 23 23 20 26 28 26 29 30 27 25 24 24
48 48 48 48 48 48 45 37 36 35 29 32 34 36 40 43 41 41 31 32 36 34 35 30 30 28 31 26 22 26 27 31 24 23 24 26 26 27 28 27 25 26 26 25
47 48 48 48 48 48 44 37 37 35 31 26 32 44 40 46 44 41 40 39 38 36 33 30 27 30 34 28 26 23 25 28 25 23 24 26 26 26 26 27 27 26 25 24
48 48 48 48 48 47 41 38 38 39 33 25 29 37 43 45 43 42 40 39 34 30 29 28 30 34 33 27 28 21 28 24 19 21 25 25 22 27 28 25 24 26 25 24
47 48 48 48 47 45 37 30 39 40 37 29 22 34 38 41 42 40 39 37 34 31 30 29 31 40 31 25 21 27 25 29 27 25 27 26 26 27 28 25 25 26 24 24
47 47 47 47 47 40 36 32 41 44 38 29 23 27 40 43 41 36 36 36 33 32 30 30 35 34 29 22 18 27 26 25 27 29 28 24 26 23 27 27 27 27 25 24
47 47 47 47 47 43 37 38 47 43 35 34 21 26 33 41 31 31 33 31 31 32 30 30 31 33 23 19 25 29 30 29 28 28 30 27 27 27 26 27 25 23 22 22
47 47 45 40 36 32 35 46 44 39 35 25 23 21 25 36 31 31 31 31 22 31 26 28 34 28 20 20 26 27 27 27 26 29 29 28 27 26 25 25 24 22 20 21
46 40 33 28 34 45 45 37 30 29 31 36 24 27 23 32 25 26 26 27 24 26 29 31 26 23 29 25 27 28 30 30 31 26 25 27 25 25 24 24 23 22 21 20
36 34 33 39 45 39 35 30 29 27 25 29 26 28 23 33 25 25 28 23 25 22 28 28 25 22 25 29 29 31 32 33 32 31 30 30 29 25 23 22 22 20 18 14
38 39 42 40 36 32 30 27 26 28 24 25 25 26 30 31 32 26 28 25 24 21 32 29 22 20 27 28 28 29 30 30 30 30 28 27 26 25 23 20 18 14 12 7
41 37 32 31 31 24 24 16 24 16 24 27 24 23 29 28 31 24 26 20 18 30 25 25 21 25 27 26 26 26 27 28 27 25 25 24 22 20 16 12 5 7 6 -1
33 30 24 25 22 27 19 20 19 25 23 25 25 24 26 25 25 20 18 24 28 18 18 20 19 25 25 26 27 25 21 20 20 17 16 14 11 5 3 4 1 4 -0 -4
29 31 22 24 25 29 31 32 30 28 25 27 26 25 26 22 27 30 26 22 20 18 17 16 21 25 25 23 21 18 16 14 13 11 10 6 5 7 1 -4 -2 1 -3 -4
31 30 28 29 29 29 31 31 31 33 29 25 29 25 21 23 20 26 19 19 16 17 16 21 22 22 21 20 20 18 15 14 11 10 9 8 6 7 5 0 -2 -4 -2 -3
28 29 28 31 31 29 31 32 33 33 28 22 27 18 20 26 23 23 22 15 21 22 25 26 26 23 16 15 16 16 15 13 10 8 9 5 4 6 9 8 5 7 9 2

GFSNW_sfc_temp_108.txt.gz
Temp
51 51 50 50 50 50 47 39 27 43 45 32 31 28 38 45 42 45 41 39 37 32 31 29 29 29 34 38 37 28 32 25 23 27 37 39 36 31 30 21 25 30 25 21
50 50 50 49 50 50 40 35 35 44 44 27 27 36 39 41 39 38 37 34 36 35 31 26 30 31 38 37 33 31 33 26 17 25 30 37 33 33 34 32 30 28 19 18
49 49 49 50 50 49 42 34 27 36 39 33 33 33 35 34 41 38 38 36 36 32 29 32 27 30 34 35 34 42 36 27 22 19 28 33 27 31 32 30 25 25 21 23
48 48 48 49 49 50 43 34 28 37 28 30 33 34 35 33 32 37 37 33 33 31 26 28 27 29 27 32 37 34 31 25 26 28 32 32 29 27 28 30 32 26 24 22
48 48 49 49 49 50 40 32 33 35 32 35 33 34 32 32 34 33 31 31 32 31 27 29 25 29 28 26 31 32 35 25 27 24 31 30 25 26 26 26 28 25 24 22
48 49 49 50 50 48 38 38 40 37 34 32 30 30 32 33 32 35 36 33 31 29 32 36 36 39 35 35 32 30 29 27 25 23 28 28 22 24 25 25 26 28 25 24
49 49 49 49 50 47 41 38 38 32 28 32 33 36 36 33 32 25 35 35 31 36 38 37 35 34 34 35 35 34 29 28 28 25 26 17 24 31 30 25 25 27 27 26
49 49 49 49 49 48 39 36 37 33 25 34 36 36 34 34 33 29 29 35 37 36 33 32 28 28 30 32 34 34 33 30 26 25 23 23 27 27 26 26 22 26 25 27
49 49 49 49 49 48 39 37 37 36 32 31 39 34 34 30 26 30 32 36 37 34 30 30 20 20 26 28 32 36 35 33 29 28 24 18 23 27 32 32 16 26 26 25
48 48 49 49 49 49 41 37 37 37 29 34 36 32 31 33 30 28 30 32 32 33 25 21 24 24 31 24 24 27 28 28 25 27 23 23 25 27 32 20 18 25 25 22
48 48 48 49 49 48 41 36 38 36 29 33 37 38 32 31 29 24 30 27 29 27 24 26 24 24 24 27 28 26 24 22 21 25 23 19 27 30 25 24 26 25 23 20
48 48 48 48 48 48 44 35 38 38 34 33 36 37 38 36 36 31 32 29 29 26 26 29 26 26 28 23 18 30 23 24 22 21 19 25 27 26 28 29 25 24 23 22
48 48 48 48 48 48 43 35 35 35 32 33 34 34 38 41 40 39 30 30 34 32 33 30 28 28 31 26 21 25 27 30 23 22 24 24 26 27 27 27 24 24 24 21
47 48 48 48 48 48 44 36 36 35 32 27 32 42 38 42 41 39 39 37 36 34 32 29 29 28 35 25 25 23 25 27 25 22 24 25 25 24 26 25 25 23 24 23
47 48 48 48 47 46 41 38 37 38 34 27 30 36 41 43 41 40 39 37 33 29 28 27 30 33 32 24 27 20 28 25 18 14 24 23 24 22 26 23 22 23 24 23
47 48 48 47 47 44 37 31 39 39 36 30 23 33 36 39 40 38 37 35 32 30 29 28 30 39 28 16 19 27 25 30 27 24 26 24 26 25 25 25 24 25 24 23
47 47 47 47 46 40 35 33 37 43 37 28 23 28 37 40 38 34 34 34 31 31 29 29 33 33 30 16 16 26 25 27 27 28 28 24 23 22 25 25 26 26 24 23
47 47 47 46 46 43 36 39 45 40 33 31 21 28 33 41 31 30 31 30 30 30 29 29 30 31 26 18 23 25 25 25 27 28 28 27 26 26 25 25 25 22 21 21
47 46 45 39 36 33 35 45 43 37 34 24 22 23 24 34 30 30 30 30 22 30 25 27 33 28 18 20 27 27 27 27 26 27 26 26 26 24 24 24 23 21 20 20
46 39 33 26 35 45 44 37 29 29 30 31 23 26 29 32 25 25 26 27 24 26 31 31 25 19 29 25 28 29 29 29 29 25 24 25 24 23 23 23 23 22 20 19
36 32 33 39 45 36 31 24 23 24 24 27 25 27 25 32 24 29 29 24 25 21 26 28 23 20 26 27 28 30 30 31 30 30 30 29 27 25 23 22 22 21 19 14
37 39 41 39 35 32 28 25 27 27 24 24 24 25 30 31 32 26 28 24 23 20 32 27 21 21 28 29 29 30 31 30 30 30 28 27 27 25 23 21 18 15 12 7
41 37 33 30 30 24 16 15 23 18 23 24 23 22 27 27 30 24 25 17 16 30 27 25 21 27 28 28 27 27 29 30 28 27 27 26 23 21 17 12 7 7 4 -3
32 30 23 23 21 26 19 19 18 23 22 23 24 24 25 24 25 18 17 20 24 14 16 20 19 27 26 27 27 26 24 23 23 21 20 16 13 7 4 5 3 3 1 -6
29 30 23 23 25 28 25 30 30 30 23 26 26 25 29 25 25 25 21 20 15 16 16 15 17 25 25 23 22 21 19 18 17 16 12 9 6 6 0 -5 -3 2 -1 -6
30 30 27 28 28 28 30 31 31 32 31 25 28 28 23 23 19 26 17 18 14 16 18 19 16 21 22 21 21 19 17 16 13 11 10 8 6 7 5 -1 -3 -5 -2 -3
28 27 28 31 30 28 30 31 32 33 31 19 27 17 19 25 22 21 20 15 16 15 22 25 23 19 18 18 17 17 16 13 12 9 9 5 4 5 8 8 3 6 8 -1

GFSNW_sfc_temp_111.txt.gz
Temp
56 54 52 51 50 50 47 39 30 44 46 35 34 31 37 44 42 45 41 41 38 34 34 32 32 32 36 41 40 33 37 30 25 30 40 41 38 35 31 25 25 29 27 25
55 52 51 50 50 51 43 34 34 44 43 27 29 36 39 42 40 40 38 36 38 38 33 29 33 34 39 40 38 35 36 29 22 27 31 38 34 36 34 32 31 25 23 23
52 51 50 49 51 53 45 35 28 35 39 36 36 35 35 34 41 39 40 37 38 34 32 34 30 32 37 38 37 42 39 30 25 24 31 35 28 31 33 30 26 29 26 23
51 50 50 50 51 50 44 36 31 38 29 31 34 36 36 33 32 38 39 34 35 33 28 29 29 32 32 34 38 38 34 26 27 29 33 33 29 28 28 24 31 28 23 22
50 50 49 50 50 50 40 32 33 37 36 35 33 36 34 34 34 35 33 33 34 34 30 33 28 31 31 30 35 33 34 27 26 23 33 31 25 27 27 25 27 25 24 22
49 49 49 49 49 48 39 39 42 38 36 35 34 33 34 34 34 37 39 36 34 32 34 38 39 41 39 38 34 32 30 28 27 24 29 28 23 25 25 25 27 28 25 26
49 48 49 50 49 47 43 41 40 34 30 36 36 36 37 34 35 30 37 37 35 38 42 40 38 36 36 37 36 37 30 29 29 26 26 19 25 30 30 26 26 29 28 28
47 47 48 49 49 48 42 40 40 36 30 36 36 37 35 35 35 33 33 37 40 40 39 33 29 30 30 31 34 33 32 31 27 25 24 24 26 28 27 26 23 27 27 29
47 49 49 49 50 48 41 38 40 38 35 34 40 35 37 33 31 33 35 39 41 39 34 31 24 24 27 28 31 36 34 32 29 28 23 20 26 29 32 32 22 27 28 27
49 49 49 49 49 48 42 37 38 39 31 36 39 35 34 35 34 32 34 35 36 38 31 28 27 27 33 26 25 26 29 29 27 28 25 24 27 29 33 22 22 26 26 25
49 49 49 49 48 47 42 37 38 39 32 35 40 40 35 34 35 31 33 33 34 32 29 30 28 26 29 29 29 27 25 23 24 26 24 20 28 30 26 26 27 26 24 22
48 48 49 49 49 48 44 37 40 40 36 36 38 40 41 42 40 35 34 34 32 33 31 32 31 28 31 27 24 32 25 25 23 23 22 26 28 27 30 31 27 25 25 23
48 48 48 48 48 47 44 36 37 38 35 36 37 37 42 44 43 43 35 35 38 35 38 36 33 29 33 27 26 27 29 31 25 25 25 25 26 28 29 29 26 27 26 25
48 48 48 48 48 47 44 37 37 38 36 30 35 44 40 44 45 43 42 39 38 38 38 35 34 31 36 28 29 27 28 30 27 23 25 26 26 27 27 26 26 25 25 24
48 48 48 48 47 46 43 39 38 39 38 31 34 38 42 43 44 42 42 40 37 37 35 34 32 34 32 30 31 26 30 26 24 24 27 27 25 27 28 25 24 25 25 23
47 47 48 47 47 44 38 33 40 41 39 35 29 36 39 43 43 41 40 39 36 36 36 34 35 39 34 26 25 28 28 31 30 26 29 27 27 27 28 26 26 27 26 25
47 47 47 47 46 42 36 34 40 43 40 34 30 33 39 42 40 37 38 37 36 37 35 34 36 35 33 25 25 27 28 28 28 30 29 25 27 25 28 28 28 28 27 26
47 47 47 47 46 43 38 40 44 42 36 35 27 31 35 40 35 34 35 35 36 35 34 35 34 33 31 25 24 26 28 28 29 29 31 31 29 29 27 28 27 25 23 23
46 46 45 40 36 34 37 45 43 39 36 28 28 29 27 37 33 34 35 35 31 34 32 33 35 31 27 26 26 25 27 28 28 29 28 28 27 26 26 26 26 24 23 23
45 40 34 29 37 44 43 37 32 31 32 33 28 30 30 35 31 31 32 32 30 30 32 35 31 29 30 31 32 31 31 31 31 26 24 27 25 25 25 25 27 26 24 22
37 34 33 40 44 38 33 26 26 28 27 31 30 32 31 35 31 32 32 29 29 25 30 30 28 27 28 29 31 33 33 32 32 33 32 32 29 27 25 25 25 24 23 20
39 38 42 39 36 31 26 25 27 28 27 28 30 31 34 33 35 33 31 28 28 24 33 29 26 27 29 30 31 31 32 33 32 33 31 30 29 28 26 24 22 20 17 13
40 37 33 31 30 22 18 15 24 23 27 28 29 29 32 33 34 29 30 25 24 31 27 28 27 29 30 30 31 31 33 33 31 30 30 29 26 25 22 17 14 12 10 7
33 28 23 21 22 24 22 24 23 27 27 29 30 29 31 29 29 25 24 26 28 22 21 23 27 29 29 29 29 29 27 27 26 24 23 20 17 14 13 12 10 9 7 3
29 29 23 24 27 29 29 30 31 30 29 30 31 30 32 27 26 28 25 22 20 22 24 26 26 28 27 26 27 25 24 22 22 21 19 15 13 12 8 7 9 9 6 5
30 30 28 28 29 30 32 32 31 32 32 30 32 30 25 24 24 26 20 22 20 26 25 27 22 25 25 25 25 23 22 21 18 17 16 13 12 12 10 6 8 7 8 7
28 27 28 31 30 29 31 32 32 34 32 27 29 21 22 27 23 22 25 24 26 24 27 27 23 24 23 22 22 20 19 17 16 14 14 12 10 10 11 12 10 11 12 9

GFSNW_sfc_temp_114.txt.gz
Temp
54 54 54 54 51 51 48 41 31 42 47 35 36 37 45 48 49 51 47 48 45 44 43 40 39 38 42 48 46 38 44 36 32 37 45 47 46 42 41 30 30 36 33 30
53 54 54 52 51 53 44 36 34 43 43 31 34 44 44 48 47 47 46 44 46 44 40 36 40 39 44 45 44 41 42 36 29 32 34 42 35 40 42 38 34 30 27 28
53 53 54 51 51 54 44 37 31 35 37 43 42 41 42 41 49 47 46 42 44 41 40 42 36 37 41 43 43 43 43 36 29 31 36 40 33 35 37 33 29 33 32 26
53 53 54 51 52 53 44 41 36 43 31 35 42 44 44 41 39 45 45 39 42 42 36 37 35 39 38 40 41 43 39 30 33 33 38 39 34 33 35 28 31 26 28 26
53 53 53 51 53 52 42 37 42 46 42 43 40 42 41 40 39 39 40 41 43 43 37 39 35 38 38 36 42 40 41 30 31 29 38 36 29 29 32 28 28 27 27 24
53 54 51 51 51 50 41 47 55 50 41 42 39 40 41 40 39 42 47 45 41 38 42 46 47 48 45 44 39 35 33 31 29 27 33 31 25 26 27 27 30 29 30 28
53 51 50 51 50 49 47 52 54 45 35 41 41 43 43 42 43 34 43 45 42 45 50 48 46 45 44 43 42 42 32 30 33 30 29 22 26 32 33 30 29 32 31 32
50 50 49 49 49 48 46 51 52 44 34 41 42 43 43 45 43 38 38 44 47 50 46 38 34 32 31 34 38 38 34 32 30 28 30 28 29 31 31 28 26 33 33 33
49 48 48 48 48 49 49 47 53 50 37 37 47 45 45 41 40 39 39 45 49 47 43 36 29 29 32 32 31 36 35 33 31 33 28 24 31 34 37 37 26 32 34 34
48 48 48 48 48 48 50 43 47 52 39 46 49 44 43 48 45 42 41 42 42 46 39 33 34 33 39 32 31 31 33 31 29 32 31 31 32 34 38 25 25 32 35 34
47 47 48 48 49 49 52 44 47 50 42 43 47 47 44 44 47 40 42 41 40 40 36 39 38 33 34 34 35 31 30 30 31 33 30 26 33 34 29 29 32 31 31 29
48 48 48 48 48 48 51 45 50 54 47 41 47 46 48 51 51 46 44 43 42 44 43 43 39 31 33 33 29 36 28 32 33 29 28 30 32 31 36 36 32 32 31 29
48 48 49 49 49 49 52 47 51 52 44 45 48 44 49 53 51 53 46 47 46 44 49 42 40 32 39 32 35 32 31 32 29 30 28 29 31 33 36 36 32 33 32 29
48 48 48 48 48 49 52 48 49 54 49 37 39 51 47 51 54 53 53 49 48 49 50 43 39 34 42 33 36 36 33 33 29 26 28 30 30 31 31 31 31 30 30 29
48 48 48 48 49 49 51 49 50 51 51 39 41 48 48 52 53 51 52 50 48 48 45 41 35 38 38 39 40 34 35 31 30 31 32 33 29 30 32 29 29 30 29 28
47 48 48 47 46 47 53 39 53 52 58 45 36 45 46 50 51 50 49 49 49 51 49 41 40 43 40 33 36 31 31 32 34 31 35 34 31 31 34 31 31 32 32 32
47 47 47 47 47 48 44 42 47 48 57 44 37 38 46 49 49 49 49 49 49 50 47 45 42 42 42 37 33 29 30 31 33 36 34 27 30 29 33 33 33 34 34 35
47 47 47 47 48 49 46 48 47 51 50 49 36 35 41 48 44 42 49 47 49 47 47 46 44 41 42 32 28 30 31 32 33 35 37 35 36 34 33 35 35 32 31 31
47 46 47 49 45 43 46 45 47 52 49 38 40 34 31 47 44 45 45 49 39 46 42 42 42 39 33 32 30 30 31 33 32 34 37 36 33 32 33 33 33 32 30 30
47 48 43 33 42 45 47 48 42 43 44 45 37 44 34 44 42 41 42 44 40 35 39 44 38 37 36 36 37 37 36 37 36 31 29 32 31 31 32 33 34 33 31 30
45 39 36 45 45 47 42 33 35 39 35 42 40 40 37 45 38 37 43 37 38 32 34 34 34 35 35 37 38 39 38 37 38 38 37 37 35 33 32 32 32 31 30 28
43 45 47 47 42 37 33 30 33 36 33 38 37 40 44 42 47 42 40 35 35 28 36 32 31 35 36 38 38 38 38 37 36 38 36 36 35 34 33 31 29 28 26 21
49 44 36 38 34 29 28 24 28 30 35 37 38 35 42 42 47 37 37 29 30 39 29 32 35 35 36 37 37 36 38 38 36 35 35 35 33 33 30 27 23 20 19 18
37 33 27 29 27 30 31 32 33 34 37 38 41 36 40 40 36 33 29 31 35 27 26 28 36 33 32 33 34 35 33 32 32 31 30 28 25 23 23 21 19 17 15 15
33 36 26 29 31 33 32 33 34 34 40 41 39 38 41 35 31 35 32 26 25 30 32 35 35 33 32 31 31 32 31 29 29 28 25 23 20 20 18 18 19 18 14 15
36 34 31 32 33 32 33 34 33 39 40 42 42 34 29 27 32 29 26 28 28 33 34 33 32 30 31 31 31 30 30 29 28 27 25 22 20 19 19 18 17 16 16 15
33 31 33 33 33 32 33 36 37 42 40 32 37 29 26 33 28 26 34 31 34 33 32 35 31 30 30 30 28 27 26 26 25 23 23 22 20 17 18 18 17 19 19 19

GFSNW_sfc_temp_117.txt.gz
Temp
53 53 54 54 54 51 50 42 33 44 48 34 36 41 49 51 56 58 54 54 54 50 51 47 47 45 49 54 53 43 50 41 36 42 52 53 50 46 44 32 32 36 36 33
52 53 53 54 53 51 45 35 34 43 44 33 39 49 50 53 53 53 52 50 53 54 49 42 47 46 51 50 49 45 47 39 30 36 42 47 41 45 47 43 39 32 27 31
51 52 53 53 52 53 45 36 30 33 35 38 46 45 45 47 56 54 54 52 53 49 46 49 43 45 46 49 49 45 46 38 33 31 33 42 37 41 43 41 32 35 35 29
51 52 53 53 52 53 49 38 36 44 30 32 42 46 48 46 45 54 54 49 49 46 41 44 42 46 44 44 45 45 43 33 35 37 41 42 39 38 40 33 37 29 32 29
50 51 52 53 51 52 47 36 43 49 49 43 40 42 45 46 48 47 46 45 47 48 44 46 41 44 42 38 45 42 46 32 33 30 41 40 35 37 38 34 33 29 30 27
50 51 52 53 51 51 44 47 56 53 46 42 40 43 47 48 48 49 51 47 47 46 49 52 53 54 51 48 42 40 38 33 31 29 39 35 29 30 32 31 32 33 29 30
50 51 52 52 51 52 47 52 53 46 39 45 44 49 50 49 46 35 48 52 49 52 57 55 52 50 50 47 46 47 34 31 35 31 33 24 28 36 36 32 33 36 34 33
51 51 52 52 51 52 53 53 52 49 40 49 47 50 49 49 47 43 45 51 54 55 50 42 37 36 35 40 43 42 40 35 31 29 32 31 30 32 33 30 29 37 35 35
50 51 51 52 51 52 52 46 51 52 48 46 53 49 48 41 40 43 46 50 54 52 46 39 31 31 37 34 36 45 41 38 31 34 29 26 34 40 44 42 27 39 40 37
50 51 52 51 51 50 50 44 48 53 42 51 51 47 43 49 47 45 45 44 45 50 42 32 36 36 45 35 34 32 31 31 30 32 31 32 40 41 42 27 27 39 41 40
51 51 50 49 49 50 51 44 51 51 43 46 49 53 50 52 51 43 47 44 45 43 37 39 41 39 40 38 41 37 36 33 32 35 31 27 38 39 31 33 38 39 37 32
47 48 49 49 49 50 51 44 53 57 51 48 54 54 57 57 59 53 49 48 47 47 45 46 46 38 38 38 33 43 33 38 33 33 30 33 36 36 40 41 37 36 34 33
47 48 48 47 48 50 49 51 56 55 46 48 52 47 53 58 59 61 48 52 54 49 55 46 46 34 43 36 39 38 36 39 37 33 31 32 34 38 41 40 36 37 36 34
47 47 47 48 50 52 56 56 60 57 52 39 41 56 51 58 59 58 58 55 54 56 55 43 41 37 46 37 41 42 38 38 34 30 31 33 33 35 35 35 35 34 34 34
48 48 50 51 52 53 56 57 59 60 54 41 42 50 54 58 57 56 57 55 53 53 47 42 38 42 40 41 44 39 41 34 33 31 35 36 31 33 35 33 32 33 33 32
48 49 49 49 49 55 58 41 58 62 60 47 37 50 50 54 56 55 54 55 56 57 53 43 45 47 44 35 36 34 35 35 38 34 40 36 33 34 37 35 35 36 36 36
48 48 49 49 49 53 49 46 52 53 62 48 40 41 50 54 53 54 53 54 55 55 53 46 42 44 43 37 34 33 33 34 39 40 36 30 33 31 36 37 38 38 39 40
48 48 49 50 50 52 51 51 51 53 57 54 40 38 42 52 47 46 55 50 53 52 52 51 47 45 43 33 31 33 34 36 38 38 42 38 39 38 37 39 39 37 36 37
48 49 51 54 53 50 50 45 50 60 56 43 42 36 32 51 49 49 50 53 42 52 46 48 48 44 35 34 32 32 35 35 36 39 41 40 37 37 37 38 38 36 36 36
50 54 47 34 48 45 48 54 45 48 50 50 42 48 38 48 46 45 45 49 43 37 44 49 41 40 41 42 42 41 40 42 41 37 34 36 35 36 37 37 39 38 36 35
53 43 39 49 47 54 48 37 39 44 40 45 43 43 40 51 41 40 48 41 43 35 38 38 37 37 38 43 43 44 44 43 42 42 41 40 39 37 37 37 38 37 36 33
46 49 51 52 47 42 36 35 39 42 36 42 40 43 48 47 52 42 44 38 39 30 41 33 33 35 41 42 42 42 42 41 40 42 40 40 39 39 38 37 36 34 32 26
54 48 38 42 38 31 31 26 33 33 38 41 42 38 44 47 49 40 40 31 32 42 31 35 36 40 41 40 41 39 41 40 38 39 40 39 38 38 35 32 29 25 23 22
42 36 28 33 30 32 32 35 34 37 40 42 43 42 41 44 37 37 31 34 38 29 28 32 37 37 36 35 38 39 36 35 35 34 34 33 31 30 29 25 24 23 20 21
37 39 28 31 34 34 33 35 36 40 44 44 42 43 44 38 33 38 35 28 28 33 34 34 35 35 34 33 33 33 32 32 31 31 29 27 26 24 23 23 23 22 20 20
40 37 33 35 33 32 33 34 35 44 45 47 46 37 31 30 35 31 29 31 31 33 34 33 34 32 33 33 33 33 32 32 31 30 28 26 24 23 23 23 22 20 21 19
36 31 34 34 33 32 33 38 41 48 44 35 41 31 28 37 31 31 39 33 33 32 33 34 33 32 32 32 32 31 31 31 30 29 28 26 26 22 22 21 21 23 22 22

GFSNW_sfc_temp_120.txt.gz
Temp
52 52 53 53 54 53 50 43 34 45 48 34 34 36 48 52 55 60 57 57 54 53 53 51 51 48 53 57 55 45 51 43 34 41 53 55 51 45 44 31 29 36 33 29
51 52 52 53 53 52 47 36 35 44 45 31 33 41 47 52 54 56 54 53 55 57 52 45 50 51 52 54 51 46 49 39 30 35 43 49 44 45 46 44 38 31 27 28
51 52 52 52 53 52 46 37 30 33 36 39 39 40 45 46 57 56 57 54 56 53 49 53 45 48 49 50 49 47 46 39 32 28 34 40 33 36 44 42 32 34 33 27
51 51 51 52 53 52 47 39 37 43 29 33 37 43 47 45 45 55 57 52 52 49 43 46 45 48 45 47 48 47 44 33 34 37 40 41 39 38 41 36 39 31 32 30
50 50 51 52 52 52 44 36 46 47 48 43 36 36 40 45 50 51 49 48 51 51 45 47 42 47 46 39 46 42 45 32 34 29 39 39 35 38 40 37 37 34 32 32
50 50 50 51 52 51 43 48 58 52 46 42 35 38 43 47 50 54 55 52 50 47 49 53 54 54 53 49 43 40 38 33 30 27 40 38 30 34 36 38 39 38 31 32
50 50 50 51 52 51 48 54 54 44 42 42 41 44 47 47 50 38 53 54 49 52 59 57 54 52 51 50 48 48 35 32 34 29 34 23 31 39 41 37 36 36 33 32
50 50 50 50 51 52 48 54 50 47 42 47 46 45 47 51 50 47 47 51 54 56 52 43 38 37 39 42 45 44 41 36 30 28 31 32 32 35 35 31 30 39 35 33
49 50 50 50 51 52 48 52 54 53 45 46 51 48 51 47 42 45 47 52 56 52 45 40 31 29 34 34 37 46 41 39 32 32 26 24 33 41 45 42 27 39 38 35
49 49 50 50 51 52 48 45 48 54 44 54 54 50 49 54 48 43 44 45 45 51 41 35 32 33 43 33 31 31 31 31 29 30 27 31 42 43 46 27 28 40 41 39
49 49 50 50 51 52 49 45 51 46 46 51 55 59 51 51 47 39 43 41 44 41 37 36 37 37 35 38 41 36 33 30 31 32 28 27 43 41 32 34 41 40 36 33
49 49 50 50 51 52 50 44 51 51 47 48 54 54 55 54 55 49 47 46 45 45 41 43 41 34 39 40 33 47 34 38 32 29 29 35 38 37 41 43 38 36 33 31
49 49 50 50 51 50 49 46 49 46 41 40 43 43 54 60 59 60 45 50 52 50 54 46 42 36 44 35 39 39 40 42 37 33 33 34 36 41 42 40 36 37 35 33
50 50 50 50 49 50 51 45 53 51 45 35 38 55 52 59 60 59 59 57 56 56 53 45 41 38 48 39 42 40 40 40 36 30 33 34 35 36 36 36 36 35 35 34
48 49 49 49 50 51 50 49 55 56 46 35 39 51 56 58 57 56 57 54 52 50 45 43 38 43 41 41 42 39 42 35 33 32 36 36 32 34 36 33 33 34 34 33
48 48 49 49 50 51 48 40 56 59 55 43 34 50 50 54 56 54 54 54 53 53 47 43 46 47 43 35 35 36 36 37 40 36 40 37 34 35 37 34 35 36 36 36
47 48 49 50 51 53 49 45 53 53 59 46 38 39 50 54 54 52 52 55 54 53 50 46 43 43 44 36 33 34 34 35 41 39 36 31 33 31 36 37 38 39 38 38
49 50 50 51 51 51 49 51 52 49 56 53 38 37 42 53 46 45 54 49 51 51 50 49 45 43 43 34 33 34 35 39 38 38 42 37 38 38 37 39 38 36 36 37
50 50 51 54 54 49 50 48 47 60 54 42 40 35 32 50 48 48 49 52 42 50 44 46 47 42 36 36 34 34 35 37 36 40 39 38 35 36 37 37 38 36 35 35
51 55 46 34 48 46 47 53 44 48 51 51 41 47 37 47 45 44 44 47 42 36 42 48 40 39 43 44 42 40 40 42 41 37 34 35 34 35 36 37 39 38 36 35
52 44 41 50 48 51 48 39 39 43 39 45 44 45 41 51 41 40 47 40 42 35 39 38 37 36 39 44 43 44 44 44 43 43 41 40 39 37 36 37 38 37 36 34
49 50 53 53 48 43 36 35 39 41 35 42 41 43 47 47 51 43 44 38 39 30 43 35 32 35 43 44 43 42 44 43 43 43 40 38 38 39 38 38 36 34 29 23
55 48 39 42 39 32 32 27 33 32 39 42 42 38 45 47 48 41 40 32 32 42 32 33 34 38 42 41 40 39 42 41 40 40 39 36 36 38 35 28 25 24 22 21
42 36 30 33 30 31 32 34 35 39 42 42 43 41 40 43 36 38 31 34 38 29 29 31 35 39 38 38 38 37 36 34 35 34 34 33 31 27 26 26 25 22 20 20
38 39 29 30 32 33 34 37 39 43 46 44 42 42 42 38 32 38 34 29 28 32 32 32 34 36 34 33 34 33 32 31 30 31 28 27 26 24 23 23 23 22 20 19
39 36 32 34 33 32 33 34 36 46 45 46 44 37 32 31 35 32 31 32 30 31 32 33 34 33 33 33 33 32 32 32 31 29 28 26 25 23 23 23 21 20 20 20
37 32 33 34 33 32 33 38 41 47 42 34 41 32 30 38 33 33 38 31 32 32 32 32 33 32 32 32 32 32 32 31 31 29 27 25 25 23 22 19 20 22 21 20

GFSNW_sfc_temp_123.txt.gz
Temp
52 52 53 53 53 53 50 43 35 45 49 34 33 33 40 49 51 55 52 51 49 46 47 44 44 44 49 52 49 41 43 36 26 35 46 49 44 40 38 22 26 30 28 21
51 52 52 52 53 53 46 39 35 44 44 31 31 37 42 46 48 49 47 48 51 49 43 37 44 43 48 49 46 41 42 32 22 28 35 42 36 39 39 37 32 28 19 19
51 51 52 52 52 53 45 36 29 34 38 37 36 37 38 40 50 49 49 49 51 45 42 46 40 40 45 46 44 48 43 34 27 23 29 35 30 37 39 35 26 25 23 20
50 51 51 51 52 52 45 38 33 36 28 31 35 41 41 39 40 50 51 47 47 43 37 38 37 41 39 43 45 43 37 28 26 31 37 37 34 33 36 29 33 24 23 25
49 50 51 51 52 52 43 35 35 37 34 38 35 36 37 39 43 45 45 43 47 45 38 40 37 41 36 34 41 38 38 25 23 19 35 35 30 33 34 31 32 26 26 25
49 49 50 51 51 50 40 43 46 41 38 35 33 35 37 39 43 46 50 46 44 41 44 48 46 46 46 43 37 33 31 25 19 19 34 35 24 28 30 33 36 35 28 29
49 49 49 50 51 50 44 45 45 37 31 35 35 39 39 40 44 36 48 49 42 46 51 49 48 46 47 44 42 41 28 26 27 22 26 18 26 37 37 33 36 33 30 30
49 49 49 49 51 51 44 46 43 38 32 41 40 40 39 43 44 39 42 49 48 49 47 36 33 31 35 40 41 38 36 29 22 20 22 28 30 33 33 30 31 36 32 32
48 49 49 49 50 51 47 44 45 41 34 35 47 40 43 37 39 38 41 46 47 46 39 33 27 25 31 29 35 43 37 34 25 26 23 21 28 39 43 40 24 38 34 30
48 49 49 49 50 51 47 44 47 42 37 42 45 41 39 43 38 36 38 39 40 44 35 30 28 29 40 29 28 29 29 29 26 25 24 28 37 41 44 24 25 37 35 32
48 49 49 49 50 51 47 44 47 44 37 39 44 47 43 43 42 35 37 36 37 36 32 32 31 29 31 31 35 31 29 24 24 27 25 23 39 39 30 31 34 36 36 33
48 49 49 49 50 50 49 41 48 49 40 39 46 46 47 53 49 40 43 40 40 37 35 35 33 29 30 31 28 41 29 31 26 28 24 31 34 31 36 36 31 30 30 29
49 49 49 50 50 51 49 43 47 44 39 37 38 39 49 56 52 54 39 43 47 44 45 38 35 30 36 29 30 32 33 39 28 27 27 31 34 36 36 35 32 31 30 28
49 49 49 50 50 51 50 44 47 44 39 33 36 49 46 55 55 53 52 50 50 47 43 36 33 31 39 29 33 30 31 33 29 27 29 31 34 34 33 33 33 31 31 29
49 49 49 50 50 51 48 46 47 49 41 33 35 44 51 54 53 52 51 49 46 40 37 35 32 36 34 30 33 26 31 27 24 22 30 29 28 32 34 32 31 32 30 28
49 49 49 50 51 51 45 37 46 49 47 35 29 41 45 50 51 50 49 48 45 41 37 35 37 44 36 26 25 31 35 35 32 29 34 31 31 32 35 33 33 34 32 31
49 49 50 50 49 47 41 39 44 49 48 37 31 32 45 51 50 46 44 46 42 43 40 35 35 37 36 32 22 27 34 30 33 33 32 29 31 28 33 35 36 37 35 34
49 50 50 49 48 48 44 46 51 50 46 44 31 31 37 49 38 37 44 40 40 40 39 37 34 33 32 22 31 28 32 33 32 33 36 32 34 34 33 37 36 33 31 32
49 49 49 47 46 41 43 48 49 48 46 34 33 29 27 44 40 40 39 40 29 39 32 34 35 28 25 28 31 29 33 33 32 35 34 34 31 32 32 35 35 32 30 31
48 46 40 33 41 47 47 46 38 41 42 42 33 37 30 40 36 34 33 35 31 26 31 37 28 24 36 36 34 34 35 38 36 32 29 31 31 30 31 33 35 34 32 31
45 38 36 43 48 45 40 33 33 34 32 35 35 37 34 41 31 29 35 28 29 25 29 28 25 24 29 36 35 37 37 41 40 37 35 35 35 32 31 32 34 33 32 30
45 45 47 45 41 35 33 28 32 33 30 33 32 34 37 37 41 32 33 29 28 23 31 24 20 30 37 37 38 38 42 41 40 39 35 35 35 33 32 33 33 29 26 23
47 42 36 35 32 24 24 21 26 26 30 32 32 31 35 37 38 29 29 24 21 32 18 21 26 32 39 37 37 37 37 37 36 33 32 33 32 32 29 25 24 23 21 19
35 31 23 27 26 25 30 28 28 30 33 35 33 30 31 29 28 26 23 27 27 18 15 25 30 33 33 33 34 35 32 32 31 29 30 29 26 24 24 24 23 22 20 19
32 33 23 25 30 31 32 33 33 35 34 33 32 32 32 27 25 28 26 23 17 22 22 28 30 32 31 31 31 28 28 28 28 27 25 24 24 23 22 22 22 21 19 18
33 32 28 30 31 32 33 33 33 37 33 33 33 28 23 24 26 25 21 24 20 26 29 30 32 32 32 31 29 28 29 28 27 26 25 24 24 22 21 20 20 19 19 18
31 31 32 31 32 32 32 33 33 37 32 26 30 24 26 28 25 25 26 23 28 30 30 30 31 32 32 31 28 28 28 27 26 24 23 22 22 21 19 17 17 19 18 16